<?xml version="1.0" encoding="UTF-8" standalone="no" ?>
<gpx xmlns="http://www.topografix.com/GPX/1/1" xmlns:xsi="http://www.w3.org/2001/XMLSchema-instance" xsi:schemaLocation="http://www.topografix.com/GPX/1/1 http://www.topografix.com/GPX/1/1/gpx.xsd" version="1.1" creator="VisuGPX - https://www.visugpx.com">
  <metadata>
    <name>Pilon du Roi (départ centre Simiane)</name>
    <desc><![CDATA[Des vues magnifiques, tant sur le trajet (en e retourant !) que d'en haut.
Descente un peu raide vers Les Marres : peut-être rallonger un peu sur la DFCI pour simplifier (mais ça rallonge...)]]></desc>
  </metadata>
  <trk>
    <name><![CDATA[2020-06-14 17:54:50]]></name>
    <trkseg>
      <trkpt lat="43.42917" lon="5.43569">
        <ele>234.22</ele>
        <time>2020-06-14T08:08:08Z</time>
      </trkpt>
      <trkpt lat="43.42914" lon="5.43571">
        <ele>234.7</ele>
        <time>2020-06-14T08:08:26Z</time>
      </trkpt>
      <trkpt lat="43.42913" lon="5.43572">
        <ele>234.7</ele>
        <time>2020-06-14T08:08:33Z</time>
      </trkpt>
      <trkpt lat="43.42908" lon="5.43571">
        <ele>235.18</ele>
        <time>2020-06-14T08:08:46Z</time>
      </trkpt>
      <trkpt lat="43.42906" lon="5.43578">
        <ele>238.06</ele>
        <time>2020-06-14T08:09:02Z</time>
      </trkpt>
      <trkpt lat="43.42905" lon="5.43578">
        <ele>238.54</ele>
        <time>2020-06-14T08:09:10Z</time>
      </trkpt>
      <trkpt lat="43.42903" lon="5.43579">
        <ele>238.06</ele>
        <time>2020-06-14T08:09:12Z</time>
      </trkpt>
      <trkpt lat="43.42902" lon="5.43588">
        <ele>238.06</ele>
        <time>2020-06-14T08:09:18Z</time>
      </trkpt>
      <trkpt lat="43.42905" lon="5.4361">
        <ele>238.54</ele>
        <time>2020-06-14T08:09:33Z</time>
      </trkpt>
      <trkpt lat="43.42906" lon="5.43618">
        <ele>238.54</ele>
        <time>2020-06-14T08:09:44Z</time>
      </trkpt>
      <trkpt lat="43.42906" lon="5.43618">
        <ele>238.06</ele>
        <time>2020-06-14T08:10:05Z</time>
      </trkpt>
      <trkpt lat="43.42905" lon="5.43625">
        <ele>237.58</ele>
        <time>2020-06-14T08:10:21Z</time>
      </trkpt>
      <trkpt lat="43.429" lon="5.4363">
        <ele>236.14</ele>
        <time>2020-06-14T08:10:32Z</time>
      </trkpt>
      <trkpt lat="43.4289" lon="5.43631">
        <ele>236.14</ele>
        <time>2020-06-14T08:10:40Z</time>
      </trkpt>
      <trkpt lat="43.42884" lon="5.43631">
        <ele>237.1</ele>
        <time>2020-06-14T08:10:45Z</time>
      </trkpt>
      <trkpt lat="43.42879" lon="5.43636">
        <ele>239.51</ele>
        <time>2020-06-14T08:10:53Z</time>
      </trkpt>
      <trkpt lat="43.42868" lon="5.43643">
        <ele>240.95</ele>
        <time>2020-06-14T08:11:07Z</time>
      </trkpt>
      <trkpt lat="43.42858" lon="5.43652">
        <ele>242.39</ele>
        <time>2020-06-14T08:11:20Z</time>
      </trkpt>
      <trkpt lat="43.42856" lon="5.43655">
        <ele>243.35</ele>
        <time>2020-06-14T08:11:24Z</time>
      </trkpt>
      <trkpt lat="43.42846" lon="5.43662">
        <ele>243.35</ele>
        <time>2020-06-14T08:11:34Z</time>
      </trkpt>
      <trkpt lat="43.42838" lon="5.43672">
        <ele>243.83</ele>
        <time>2020-06-14T08:11:46Z</time>
      </trkpt>
      <trkpt lat="43.42831" lon="5.43683">
        <ele>242.87</ele>
        <time>2020-06-14T08:11:54Z</time>
      </trkpt>
      <trkpt lat="43.42827" lon="5.43688">
        <ele>242.87</ele>
        <time>2020-06-14T08:12:01Z</time>
      </trkpt>
      <trkpt lat="43.42813" lon="5.43707">
        <ele>242.87</ele>
        <time>2020-06-14T08:12:16Z</time>
      </trkpt>
      <trkpt lat="43.42804" lon="5.4372">
        <ele>244.31</ele>
        <time>2020-06-14T08:12:27Z</time>
      </trkpt>
      <trkpt lat="43.42794" lon="5.43729">
        <ele>245.75</ele>
        <time>2020-06-14T08:12:39Z</time>
      </trkpt>
      <trkpt lat="43.42793" lon="5.4373">
        <ele>245.75</ele>
        <time>2020-06-14T08:12:40Z</time>
      </trkpt>
      <trkpt lat="43.42778" lon="5.43742">
        <ele>244.31</ele>
        <time>2020-06-14T08:12:54Z</time>
      </trkpt>
      <trkpt lat="43.42777" lon="5.43745">
        <ele>244.79</ele>
        <time>2020-06-14T08:12:56Z</time>
      </trkpt>
      <trkpt lat="43.42781" lon="5.4376">
        <ele>245.27</ele>
        <time>2020-06-14T08:13:08Z</time>
      </trkpt>
      <trkpt lat="43.42775" lon="5.43778">
        <ele>246.23</ele>
        <time>2020-06-14T08:13:22Z</time>
      </trkpt>
      <trkpt lat="43.42769" lon="5.43801">
        <ele>246.72</ele>
        <time>2020-06-14T08:13:36Z</time>
      </trkpt>
      <trkpt lat="43.42767" lon="5.43816">
        <ele>246.72</ele>
        <time>2020-06-14T08:13:50Z</time>
      </trkpt>
      <trkpt lat="43.42762" lon="5.43819">
        <ele>247.2</ele>
        <time>2020-06-14T08:13:54Z</time>
      </trkpt>
      <trkpt lat="43.42751" lon="5.4384">
        <ele>248.16</ele>
        <time>2020-06-14T08:14:05Z</time>
      </trkpt>
      <trkpt lat="43.42744" lon="5.43865">
        <ele>247.68</ele>
        <time>2020-06-14T08:14:21Z</time>
      </trkpt>
      <trkpt lat="43.42739" lon="5.43886">
        <ele>246.72</ele>
        <time>2020-06-14T08:14:35Z</time>
      </trkpt>
      <trkpt lat="43.42734" lon="5.43903">
        <ele>246.23</ele>
        <time>2020-06-14T08:14:45Z</time>
      </trkpt>
      <trkpt lat="43.42735" lon="5.43909">
        <ele>246.23</ele>
        <time>2020-06-14T08:14:50Z</time>
      </trkpt>
      <trkpt lat="43.42737" lon="5.43918">
        <ele>245.75</ele>
        <time>2020-06-14T08:14:55Z</time>
      </trkpt>
      <trkpt lat="43.42736" lon="5.43921">
        <ele>246.23</ele>
        <time>2020-06-14T08:14:57Z</time>
      </trkpt>
      <trkpt lat="43.42734" lon="5.43932">
        <ele>245.75</ele>
        <time>2020-06-14T08:15:05Z</time>
      </trkpt>
      <trkpt lat="43.42733" lon="5.43939">
        <ele>245.75</ele>
        <time>2020-06-14T08:15:10Z</time>
      </trkpt>
      <trkpt lat="43.42732" lon="5.43944">
        <ele>245.75</ele>
        <time>2020-06-14T08:15:13Z</time>
      </trkpt>
      <trkpt lat="43.42728" lon="5.43967">
        <ele>244.79</ele>
        <time>2020-06-14T08:15:29Z</time>
      </trkpt>
      <trkpt lat="43.42725" lon="5.43985">
        <ele>244.79</ele>
        <time>2020-06-14T08:15:41Z</time>
      </trkpt>
      <trkpt lat="43.42719" lon="5.44001">
        <ele>243.83</ele>
        <time>2020-06-14T08:15:52Z</time>
      </trkpt>
      <trkpt lat="43.42717" lon="5.44003">
        <ele>243.35</ele>
        <time>2020-06-14T08:15:54Z</time>
      </trkpt>
      <trkpt lat="43.42707" lon="5.44015">
        <ele>242.87</ele>
        <time>2020-06-14T08:16:08Z</time>
      </trkpt>
      <trkpt lat="43.42697" lon="5.44021">
        <ele>248.16</ele>
        <time>2020-06-14T08:16:21Z</time>
      </trkpt>
      <trkpt lat="43.42695" lon="5.44023">
        <ele>248.64</ele>
        <time>2020-06-14T08:16:24Z</time>
      </trkpt>
      <trkpt lat="43.42685" lon="5.44031">
        <ele>249.12</ele>
        <time>2020-06-14T08:16:35Z</time>
      </trkpt>
      <trkpt lat="43.42683" lon="5.44032">
        <ele>249.12</ele>
        <time>2020-06-14T08:16:37Z</time>
      </trkpt>
      <trkpt lat="43.42681" lon="5.44034">
        <ele>249.12</ele>
        <time>2020-06-14T08:16:39Z</time>
      </trkpt>
      <trkpt lat="43.42669" lon="5.44045">
        <ele>253.44</ele>
        <time>2020-06-14T08:16:52Z</time>
      </trkpt>
      <trkpt lat="43.42664" lon="5.44049">
        <ele>254.41</ele>
        <time>2020-06-14T08:16:57Z</time>
      </trkpt>
      <trkpt lat="43.42663" lon="5.44049">
        <ele>254.89</ele>
        <time>2020-06-14T08:17:00Z</time>
      </trkpt>
      <trkpt lat="43.42657" lon="5.44056">
        <ele>255.37</ele>
        <time>2020-06-14T08:17:07Z</time>
      </trkpt>
      <trkpt lat="43.42645" lon="5.44062">
        <ele>258.73</ele>
        <time>2020-06-14T08:17:20Z</time>
      </trkpt>
      <trkpt lat="43.42636" lon="5.44057">
        <ele>260.65</ele>
        <time>2020-06-14T08:17:30Z</time>
      </trkpt>
      <trkpt lat="43.42628" lon="5.44053">
        <ele>261.62</ele>
        <time>2020-06-14T08:17:38Z</time>
      </trkpt>
      <trkpt lat="43.4262" lon="5.44048">
        <ele>261.62</ele>
        <time>2020-06-14T08:17:47Z</time>
      </trkpt>
      <trkpt lat="43.42615" lon="5.44038">
        <ele>261.62</ele>
        <time>2020-06-14T08:17:56Z</time>
      </trkpt>
      <trkpt lat="43.42617" lon="5.44033">
        <ele>261.62</ele>
        <time>2020-06-14T08:18:00Z</time>
      </trkpt>
      <trkpt lat="43.42618" lon="5.44028">
        <ele>262.58</ele>
        <time>2020-06-14T08:18:14Z</time>
      </trkpt>
      <trkpt lat="43.42618" lon="5.44027">
        <ele>263.06</ele>
        <time>2020-06-14T08:18:30Z</time>
      </trkpt>
      <trkpt lat="43.42618" lon="5.44027">
        <ele>264.02</ele>
        <time>2020-06-14T08:18:53Z</time>
      </trkpt>
      <trkpt lat="43.42616" lon="5.44027">
        <ele>264.5</ele>
        <time>2020-06-14T08:18:57Z</time>
      </trkpt>
      <trkpt lat="43.42605" lon="5.44032">
        <ele>263.06</ele>
        <time>2020-06-14T08:19:09Z</time>
      </trkpt>
      <trkpt lat="43.42602" lon="5.44031">
        <ele>262.1</ele>
        <time>2020-06-14T08:19:12Z</time>
      </trkpt>
      <trkpt lat="43.42597" lon="5.4403">
        <ele>262.58</ele>
        <time>2020-06-14T08:19:18Z</time>
      </trkpt>
      <trkpt lat="43.42583" lon="5.44033">
        <ele>263.06</ele>
        <time>2020-06-14T08:19:31Z</time>
      </trkpt>
      <trkpt lat="43.42578" lon="5.44033">
        <ele>264.02</ele>
        <time>2020-06-14T08:19:43Z</time>
      </trkpt>
      <trkpt lat="43.42576" lon="5.44032">
        <ele>264.02</ele>
        <time>2020-06-14T08:19:47Z</time>
      </trkpt>
      <trkpt lat="43.42568" lon="5.44033">
        <ele>269.31</ele>
        <time>2020-06-14T08:20:01Z</time>
      </trkpt>
      <trkpt lat="43.4256" lon="5.44033">
        <ele>273.15</ele>
        <time>2020-06-14T08:20:14Z</time>
      </trkpt>
      <trkpt lat="43.42548" lon="5.44034">
        <ele>276.04</ele>
        <time>2020-06-14T08:20:26Z</time>
      </trkpt>
      <trkpt lat="43.4254" lon="5.44037">
        <ele>278.44</ele>
        <time>2020-06-14T08:20:38Z</time>
      </trkpt>
      <trkpt lat="43.42531" lon="5.44037">
        <ele>278.92</ele>
        <time>2020-06-14T08:20:51Z</time>
      </trkpt>
      <trkpt lat="43.4252" lon="5.4403">
        <ele>278.44</ele>
        <time>2020-06-14T08:21:05Z</time>
      </trkpt>
      <trkpt lat="43.42511" lon="5.44025">
        <ele>281.32</ele>
        <time>2020-06-14T08:21:18Z</time>
      </trkpt>
      <trkpt lat="43.42501" lon="5.44022">
        <ele>281.8</ele>
        <time>2020-06-14T08:21:31Z</time>
      </trkpt>
      <trkpt lat="43.42489" lon="5.44016">
        <ele>279.4</ele>
        <time>2020-06-14T08:21:44Z</time>
      </trkpt>
      <trkpt lat="43.42488" lon="5.44012">
        <ele>278.92</ele>
        <time>2020-06-14T08:21:57Z</time>
      </trkpt>
      <trkpt lat="43.42486" lon="5.44003">
        <ele>284.21</ele>
        <time>2020-06-14T08:22:12Z</time>
      </trkpt>
      <trkpt lat="43.42481" lon="5.43992">
        <ele>288.53</ele>
        <time>2020-06-14T08:22:25Z</time>
      </trkpt>
      <trkpt lat="43.42482" lon="5.43978">
        <ele>292.38</ele>
        <time>2020-06-14T08:22:41Z</time>
      </trkpt>
      <trkpt lat="43.42481" lon="5.43965">
        <ele>293.34</ele>
        <time>2020-06-14T08:22:56Z</time>
      </trkpt>
      <trkpt lat="43.42477" lon="5.43958">
        <ele>298.15</ele>
        <time>2020-06-14T08:23:11Z</time>
      </trkpt>
      <trkpt lat="43.42476" lon="5.43952">
        <ele>299.59</ele>
        <time>2020-06-14T08:23:21Z</time>
      </trkpt>
      <trkpt lat="43.42476" lon="5.43941">
        <ele>301.51</ele>
        <time>2020-06-14T08:23:33Z</time>
      </trkpt>
      <trkpt lat="43.42472" lon="5.43931">
        <ele>301.51</ele>
        <time>2020-06-14T08:23:45Z</time>
      </trkpt>
      <trkpt lat="43.42469" lon="5.43921">
        <ele>301.03</ele>
        <time>2020-06-14T08:23:58Z</time>
      </trkpt>
      <trkpt lat="43.42468" lon="5.43915">
        <ele>302.95</ele>
        <time>2020-06-14T08:24:10Z</time>
      </trkpt>
      <trkpt lat="43.42468" lon="5.43907">
        <ele>302.95</ele>
        <time>2020-06-14T08:24:31Z</time>
      </trkpt>
      <trkpt lat="43.42463" lon="5.43899">
        <ele>304.88</ele>
        <time>2020-06-14T08:24:44Z</time>
      </trkpt>
      <trkpt lat="43.42455" lon="5.4389">
        <ele>306.8</ele>
        <time>2020-06-14T08:24:58Z</time>
      </trkpt>
      <trkpt lat="43.42454" lon="5.43886">
        <ele>308.72</ele>
        <time>2020-06-14T08:25:11Z</time>
      </trkpt>
      <trkpt lat="43.42457" lon="5.43876">
        <ele>310.64</ele>
        <time>2020-06-14T08:25:25Z</time>
      </trkpt>
      <trkpt lat="43.42462" lon="5.43867">
        <ele>315.45</ele>
        <time>2020-06-14T08:25:37Z</time>
      </trkpt>
      <trkpt lat="43.42467" lon="5.43857">
        <ele>316.41</ele>
        <time>2020-06-14T08:25:49Z</time>
      </trkpt>
      <trkpt lat="43.42467" lon="5.43853">
        <ele>315.45</ele>
        <time>2020-06-14T08:25:52Z</time>
      </trkpt>
      <trkpt lat="43.42472" lon="5.43838">
        <ele>319.3</ele>
        <time>2020-06-14T08:26:04Z</time>
      </trkpt>
      <trkpt lat="43.42473" lon="5.4383">
        <ele>321.22</ele>
        <time>2020-06-14T08:26:15Z</time>
      </trkpt>
      <trkpt lat="43.4247" lon="5.43824">
        <ele>319.78</ele>
        <time>2020-06-14T08:26:30Z</time>
      </trkpt>
      <trkpt lat="43.42467" lon="5.43817">
        <ele>317.85</ele>
        <time>2020-06-14T08:26:42Z</time>
      </trkpt>
      <trkpt lat="43.42467" lon="5.43812">
        <ele>319.3</ele>
        <time>2020-06-14T08:27:02Z</time>
      </trkpt>
      <trkpt lat="43.42465" lon="5.43811">
        <ele>312.09</ele>
        <time>2020-06-14T08:27:27Z</time>
      </trkpt>
      <trkpt lat="43.42465" lon="5.43808">
        <ele>312.09</ele>
        <time>2020-06-14T08:27:30Z</time>
      </trkpt>
      <trkpt lat="43.42462" lon="5.43797">
        <ele>313.05</ele>
        <time>2020-06-14T08:27:44Z</time>
      </trkpt>
      <trkpt lat="43.42462" lon="5.43788">
        <ele>314.01</ele>
        <time>2020-06-14T08:27:54Z</time>
      </trkpt>
      <trkpt lat="43.4246" lon="5.43779">
        <ele>317.85</ele>
        <time>2020-06-14T08:28:04Z</time>
      </trkpt>
      <trkpt lat="43.4246" lon="5.43777">
        <ele>317.85</ele>
        <time>2020-06-14T08:28:05Z</time>
      </trkpt>
      <trkpt lat="43.42459" lon="5.43766">
        <ele>322.18</ele>
        <time>2020-06-14T08:28:18Z</time>
      </trkpt>
      <trkpt lat="43.42454" lon="5.43755">
        <ele>325.06</ele>
        <time>2020-06-14T08:28:31Z</time>
      </trkpt>
      <trkpt lat="43.42449" lon="5.43745">
        <ele>326.5</ele>
        <time>2020-06-14T08:28:46Z</time>
      </trkpt>
      <trkpt lat="43.42446" lon="5.43739">
        <ele>326.5</ele>
        <time>2020-06-14T08:29:01Z</time>
      </trkpt>
      <trkpt lat="43.42442" lon="5.43732">
        <ele>325.54</ele>
        <time>2020-06-14T08:29:14Z</time>
      </trkpt>
      <trkpt lat="43.42439" lon="5.43727">
        <ele>324.1</ele>
        <time>2020-06-14T08:29:28Z</time>
      </trkpt>
      <trkpt lat="43.42438" lon="5.43723">
        <ele>323.62</ele>
        <time>2020-06-14T08:29:48Z</time>
      </trkpt>
      <trkpt lat="43.42438" lon="5.43719">
        <ele>323.14</ele>
        <time>2020-06-14T08:30:15Z</time>
      </trkpt>
      <trkpt lat="43.42436" lon="5.43723">
        <ele>320.26</ele>
        <time>2020-06-14T08:30:35Z</time>
      </trkpt>
      <trkpt lat="43.42435" lon="5.43717">
        <ele>325.06</ele>
        <time>2020-06-14T08:30:47Z</time>
      </trkpt>
      <trkpt lat="43.42432" lon="5.43704">
        <ele>328.91</ele>
        <time>2020-06-14T08:31:00Z</time>
      </trkpt>
      <trkpt lat="43.42431" lon="5.437">
        <ele>329.39</ele>
        <time>2020-06-14T08:31:04Z</time>
      </trkpt>
      <trkpt lat="43.42428" lon="5.43685">
        <ele>332.75</ele>
        <time>2020-06-14T08:31:19Z</time>
      </trkpt>
      <trkpt lat="43.42426" lon="5.43674">
        <ele>336.6</ele>
        <time>2020-06-14T08:31:33Z</time>
      </trkpt>
      <trkpt lat="43.42422" lon="5.43664">
        <ele>338.04</ele>
        <time>2020-06-14T08:31:45Z</time>
      </trkpt>
      <trkpt lat="43.42418" lon="5.43652">
        <ele>340.44</ele>
        <time>2020-06-14T08:32:00Z</time>
      </trkpt>
      <trkpt lat="43.42416" lon="5.43643">
        <ele>342.85</ele>
        <time>2020-06-14T08:32:10Z</time>
      </trkpt>
      <trkpt lat="43.42413" lon="5.43634">
        <ele>342.85</ele>
        <time>2020-06-14T08:32:21Z</time>
      </trkpt>
      <trkpt lat="43.42408" lon="5.43621">
        <ele>345.25</ele>
        <time>2020-06-14T08:32:40Z</time>
      </trkpt>
      <trkpt lat="43.42404" lon="5.43607">
        <ele>347.65</ele>
        <time>2020-06-14T08:32:53Z</time>
      </trkpt>
      <trkpt lat="43.42398" lon="5.4359">
        <ele>348.13</ele>
        <time>2020-06-14T08:33:07Z</time>
      </trkpt>
      <trkpt lat="43.42396" lon="5.43584">
        <ele>349.1</ele>
        <time>2020-06-14T08:33:23Z</time>
      </trkpt>
      <trkpt lat="43.42394" lon="5.43578">
        <ele>350.06</ele>
        <time>2020-06-14T08:33:38Z</time>
      </trkpt>
      <trkpt lat="43.42393" lon="5.43563">
        <ele>348.13</ele>
        <time>2020-06-14T08:33:51Z</time>
      </trkpt>
      <trkpt lat="43.42394" lon="5.43553">
        <ele>349.58</ele>
        <time>2020-06-14T08:33:59Z</time>
      </trkpt>
      <trkpt lat="43.42394" lon="5.43535">
        <ele>348.62</ele>
        <time>2020-06-14T08:34:13Z</time>
      </trkpt>
      <trkpt lat="43.42388" lon="5.43521">
        <ele>346.69</ele>
        <time>2020-06-14T08:34:25Z</time>
      </trkpt>
      <trkpt lat="43.4238" lon="5.43515">
        <ele>341.41</ele>
        <time>2020-06-14T08:34:38Z</time>
      </trkpt>
      <trkpt lat="43.42377" lon="5.43514">
        <ele>341.41</ele>
        <time>2020-06-14T08:34:53Z</time>
      </trkpt>
      <trkpt lat="43.42377" lon="5.43516">
        <ele>339.96</ele>
        <time>2020-06-14T08:35:09Z</time>
      </trkpt>
      <trkpt lat="43.42378" lon="5.43518">
        <ele>340.44</ele>
        <time>2020-06-14T08:35:23Z</time>
      </trkpt>
      <trkpt lat="43.42378" lon="5.43515">
        <ele>339.96</ele>
        <time>2020-06-14T08:35:26Z</time>
      </trkpt>
      <trkpt lat="43.42378" lon="5.43512">
        <ele>339.48</ele>
        <time>2020-06-14T08:35:28Z</time>
      </trkpt>
      <trkpt lat="43.42384" lon="5.43501">
        <ele>340.44</ele>
        <time>2020-06-14T08:35:40Z</time>
      </trkpt>
      <trkpt lat="43.4239" lon="5.43493">
        <ele>342.85</ele>
        <time>2020-06-14T08:35:52Z</time>
      </trkpt>
      <trkpt lat="43.42394" lon="5.43481">
        <ele>343.81</ele>
        <time>2020-06-14T08:36:03Z</time>
      </trkpt>
      <trkpt lat="43.42397" lon="5.43469">
        <ele>344.77</ele>
        <time>2020-06-14T08:36:15Z</time>
      </trkpt>
      <trkpt lat="43.42401" lon="5.43456">
        <ele>345.25</ele>
        <time>2020-06-14T08:36:28Z</time>
      </trkpt>
      <trkpt lat="43.42403" lon="5.43449">
        <ele>342.37</ele>
        <time>2020-06-14T08:36:52Z</time>
      </trkpt>
      <trkpt lat="43.42406" lon="5.43437">
        <ele>342.85</ele>
        <time>2020-06-14T08:37:04Z</time>
      </trkpt>
      <trkpt lat="43.42409" lon="5.43424">
        <ele>342.85</ele>
        <time>2020-06-14T08:37:16Z</time>
      </trkpt>
      <trkpt lat="43.42408" lon="5.43419">
        <ele>341.89</ele>
        <time>2020-06-14T08:37:28Z</time>
      </trkpt>
      <trkpt lat="43.42407" lon="5.43416">
        <ele>340.92</ele>
        <time>2020-06-14T08:37:34Z</time>
      </trkpt>
      <trkpt lat="43.42407" lon="5.43412">
        <ele>340.92</ele>
        <time>2020-06-14T08:37:37Z</time>
      </trkpt>
      <trkpt lat="43.4241" lon="5.43406">
        <ele>341.41</ele>
        <time>2020-06-14T08:37:50Z</time>
      </trkpt>
      <trkpt lat="43.42411" lon="5.43404">
        <ele>341.41</ele>
        <time>2020-06-14T08:37:53Z</time>
      </trkpt>
      <trkpt lat="43.42418" lon="5.43393">
        <ele>341.89</ele>
        <time>2020-06-14T08:38:05Z</time>
      </trkpt>
      <trkpt lat="43.42421" lon="5.43386">
        <ele>341.89</ele>
        <time>2020-06-14T08:38:10Z</time>
      </trkpt>
      <trkpt lat="43.42424" lon="5.43366">
        <ele>340.92</ele>
        <time>2020-06-14T08:38:24Z</time>
      </trkpt>
      <trkpt lat="43.4243" lon="5.43349">
        <ele>340.92</ele>
        <time>2020-06-14T08:38:36Z</time>
      </trkpt>
      <trkpt lat="43.42435" lon="5.43334">
        <ele>341.41</ele>
        <time>2020-06-14T08:38:49Z</time>
      </trkpt>
      <trkpt lat="43.42442" lon="5.43322">
        <ele>343.81</ele>
        <time>2020-06-14T08:39:01Z</time>
      </trkpt>
      <trkpt lat="43.42451" lon="5.43306">
        <ele>344.77</ele>
        <time>2020-06-14T08:39:15Z</time>
      </trkpt>
      <trkpt lat="43.42462" lon="5.4329">
        <ele>343.81</ele>
        <time>2020-06-14T08:39:29Z</time>
      </trkpt>
      <trkpt lat="43.42465" lon="5.43275">
        <ele>342.37</ele>
        <time>2020-06-14T08:39:42Z</time>
      </trkpt>
      <trkpt lat="43.42467" lon="5.43269">
        <ele>342.37</ele>
        <time>2020-06-14T08:39:46Z</time>
      </trkpt>
      <trkpt lat="43.42467" lon="5.43253">
        <ele>341.89</ele>
        <time>2020-06-14T08:39:56Z</time>
      </trkpt>
      <trkpt lat="43.42466" lon="5.43236">
        <ele>341.89</ele>
        <time>2020-06-14T08:40:09Z</time>
      </trkpt>
      <trkpt lat="43.42466" lon="5.43221">
        <ele>342.37</ele>
        <time>2020-06-14T08:40:21Z</time>
      </trkpt>
      <trkpt lat="43.42464" lon="5.43207">
        <ele>341.41</ele>
        <time>2020-06-14T08:40:32Z</time>
      </trkpt>
      <trkpt lat="43.42464" lon="5.43199">
        <ele>342.37</ele>
        <time>2020-06-14T08:40:42Z</time>
      </trkpt>
      <trkpt lat="43.42463" lon="5.43194">
        <ele>340.92</ele>
        <time>2020-06-14T08:40:59Z</time>
      </trkpt>
      <trkpt lat="43.4246" lon="5.43182">
        <ele>339</ele>
        <time>2020-06-14T08:41:10Z</time>
      </trkpt>
      <trkpt lat="43.4246" lon="5.43176">
        <ele>338.52</ele>
        <time>2020-06-14T08:41:21Z</time>
      </trkpt>
      <trkpt lat="43.42459" lon="5.43171">
        <ele>338.04</ele>
        <time>2020-06-14T08:41:25Z</time>
      </trkpt>
      <trkpt lat="43.42461" lon="5.43159">
        <ele>338.04</ele>
        <time>2020-06-14T08:41:38Z</time>
      </trkpt>
      <trkpt lat="43.42463" lon="5.43151">
        <ele>337.08</ele>
        <time>2020-06-14T08:41:45Z</time>
      </trkpt>
      <trkpt lat="43.4246" lon="5.43141">
        <ele>335.64</ele>
        <time>2020-06-14T08:41:53Z</time>
      </trkpt>
      <trkpt lat="43.42458" lon="5.43136">
        <ele>335.16</ele>
        <time>2020-06-14T08:41:58Z</time>
      </trkpt>
      <trkpt lat="43.42458" lon="5.43132">
        <ele>334.2</ele>
        <time>2020-06-14T08:42:01Z</time>
      </trkpt>
      <trkpt lat="43.42459" lon="5.4313">
        <ele>334.2</ele>
        <time>2020-06-14T08:42:03Z</time>
      </trkpt>
      <trkpt lat="43.42458" lon="5.43113">
        <ele>333.71</ele>
        <time>2020-06-14T08:42:16Z</time>
      </trkpt>
      <trkpt lat="43.42457" lon="5.43103">
        <ele>333.71</ele>
        <time>2020-06-14T08:42:24Z</time>
      </trkpt>
      <trkpt lat="43.42457" lon="5.43091">
        <ele>334.2</ele>
        <time>2020-06-14T08:42:34Z</time>
      </trkpt>
      <trkpt lat="43.42458" lon="5.43087">
        <ele>334.2</ele>
        <time>2020-06-14T08:42:37Z</time>
      </trkpt>
      <trkpt lat="43.42462" lon="5.43084">
        <ele>332.27</ele>
        <time>2020-06-14T08:42:49Z</time>
      </trkpt>
      <trkpt lat="43.42462" lon="5.43088">
        <ele>331.31</ele>
        <time>2020-06-14T08:43:02Z</time>
      </trkpt>
      <trkpt lat="43.42463" lon="5.43088">
        <ele>330.35</ele>
        <time>2020-06-14T08:43:20Z</time>
      </trkpt>
      <trkpt lat="43.42463" lon="5.43087">
        <ele>331.31</ele>
        <time>2020-06-14T08:43:46Z</time>
      </trkpt>
      <trkpt lat="43.42463" lon="5.43088">
        <ele>326.99</ele>
        <time>2020-06-14T08:44:23Z</time>
      </trkpt>
      <trkpt lat="43.42463" lon="5.43087">
        <ele>327.47</ele>
        <time>2020-06-14T08:44:42Z</time>
      </trkpt>
      <trkpt lat="43.42464" lon="5.43087">
        <ele>327.95</ele>
        <time>2020-06-14T08:45:06Z</time>
      </trkpt>
      <trkpt lat="43.42463" lon="5.43088">
        <ele>328.91</ele>
        <time>2020-06-14T08:45:32Z</time>
      </trkpt>
      <trkpt lat="43.42463" lon="5.43088">
        <ele>328.43</ele>
        <time>2020-06-14T08:45:56Z</time>
      </trkpt>
      <trkpt lat="43.42464" lon="5.43087">
        <ele>328.91</ele>
        <time>2020-06-14T08:46:29Z</time>
      </trkpt>
      <trkpt lat="43.42462" lon="5.43085">
        <ele>328.91</ele>
        <time>2020-06-14T08:46:35Z</time>
      </trkpt>
      <trkpt lat="43.42461" lon="5.43083">
        <ele>328.91</ele>
        <time>2020-06-14T08:46:37Z</time>
      </trkpt>
      <trkpt lat="43.42454" lon="5.43089">
        <ele>327.95</ele>
        <time>2020-06-14T08:46:45Z</time>
      </trkpt>
      <trkpt lat="43.42452" lon="5.43092">
        <ele>328.43</ele>
        <time>2020-06-14T08:46:48Z</time>
      </trkpt>
      <trkpt lat="43.42452" lon="5.43107">
        <ele>330.83</ele>
        <time>2020-06-14T08:47:00Z</time>
      </trkpt>
      <trkpt lat="43.42454" lon="5.43125">
        <ele>330.83</ele>
        <time>2020-06-14T08:47:13Z</time>
      </trkpt>
      <trkpt lat="43.42455" lon="5.4314">
        <ele>331.79</ele>
        <time>2020-06-14T08:47:26Z</time>
      </trkpt>
      <trkpt lat="43.42457" lon="5.43154">
        <ele>332.27</ele>
        <time>2020-06-14T08:47:38Z</time>
      </trkpt>
      <trkpt lat="43.42455" lon="5.43165">
        <ele>333.71</ele>
        <time>2020-06-14T08:47:52Z</time>
      </trkpt>
      <trkpt lat="43.42453" lon="5.43178">
        <ele>335.16</ele>
        <time>2020-06-14T08:48:05Z</time>
      </trkpt>
      <trkpt lat="43.42454" lon="5.43186">
        <ele>335.16</ele>
        <time>2020-06-14T08:48:11Z</time>
      </trkpt>
      <trkpt lat="43.42458" lon="5.43199">
        <ele>334.68</ele>
        <time>2020-06-14T08:48:24Z</time>
      </trkpt>
      <trkpt lat="43.42458" lon="5.43205">
        <ele>335.64</ele>
        <time>2020-06-14T08:48:29Z</time>
      </trkpt>
      <trkpt lat="43.4246" lon="5.43224">
        <ele>336.12</ele>
        <time>2020-06-14T08:48:44Z</time>
      </trkpt>
      <trkpt lat="43.42462" lon="5.43242">
        <ele>337.56</ele>
        <time>2020-06-14T08:48:59Z</time>
      </trkpt>
      <trkpt lat="43.42464" lon="5.43257">
        <ele>339</ele>
        <time>2020-06-14T08:49:12Z</time>
      </trkpt>
      <trkpt lat="43.42464" lon="5.43263">
        <ele>339.48</ele>
        <time>2020-06-14T08:49:18Z</time>
      </trkpt>
      <trkpt lat="43.42459" lon="5.43277">
        <ele>341.89</ele>
        <time>2020-06-14T08:49:33Z</time>
      </trkpt>
      <trkpt lat="43.4245" lon="5.43294">
        <ele>343.81</ele>
        <time>2020-06-14T08:49:48Z</time>
      </trkpt>
      <trkpt lat="43.42439" lon="5.43311">
        <ele>343.81</ele>
        <time>2020-06-14T08:50:02Z</time>
      </trkpt>
      <trkpt lat="43.42432" lon="5.43326">
        <ele>343.33</ele>
        <time>2020-06-14T08:50:15Z</time>
      </trkpt>
      <trkpt lat="43.42426" lon="5.43337">
        <ele>343.33</ele>
        <time>2020-06-14T08:50:26Z</time>
      </trkpt>
      <trkpt lat="43.42423" lon="5.43351">
        <ele>343.33</ele>
        <time>2020-06-14T08:50:37Z</time>
      </trkpt>
      <trkpt lat="43.42419" lon="5.43363">
        <ele>341.89</ele>
        <time>2020-06-14T08:50:48Z</time>
      </trkpt>
      <trkpt lat="43.42417" lon="5.43381">
        <ele>342.37</ele>
        <time>2020-06-14T08:51:03Z</time>
      </trkpt>
      <trkpt lat="43.42416" lon="5.43386">
        <ele>343.33</ele>
        <time>2020-06-14T08:51:09Z</time>
      </trkpt>
      <trkpt lat="43.42413" lon="5.43393">
        <ele>344.29</ele>
        <time>2020-06-14T08:51:15Z</time>
      </trkpt>
      <trkpt lat="43.42406" lon="5.43393">
        <ele>343.33</ele>
        <time>2020-06-14T08:51:29Z</time>
      </trkpt>
      <trkpt lat="43.42404" lon="5.43385">
        <ele>342.37</ele>
        <time>2020-06-14T08:51:38Z</time>
      </trkpt>
      <trkpt lat="43.42397" lon="5.43372">
        <ele>339.96</ele>
        <time>2020-06-14T08:51:50Z</time>
      </trkpt>
      <trkpt lat="43.42389" lon="5.43366">
        <ele>337.56</ele>
        <time>2020-06-14T08:52:01Z</time>
      </trkpt>
      <trkpt lat="43.42386" lon="5.43365">
        <ele>337.08</ele>
        <time>2020-06-14T08:52:05Z</time>
      </trkpt>
      <trkpt lat="43.4238" lon="5.43366">
        <ele>335.64</ele>
        <time>2020-06-14T08:52:16Z</time>
      </trkpt>
      <trkpt lat="43.42368" lon="5.4337">
        <ele>335.16</ele>
        <time>2020-06-14T08:52:30Z</time>
      </trkpt>
      <trkpt lat="43.42362" lon="5.43372">
        <ele>333.23</ele>
        <time>2020-06-14T08:52:45Z</time>
      </trkpt>
      <trkpt lat="43.42362" lon="5.43368">
        <ele>332.75</ele>
        <time>2020-06-14T08:52:56Z</time>
      </trkpt>
      <trkpt lat="43.42358" lon="5.43374">
        <ele>333.71</ele>
        <time>2020-06-14T08:53:07Z</time>
      </trkpt>
      <trkpt lat="43.42352" lon="5.43377">
        <ele>334.2</ele>
        <time>2020-06-14T08:53:19Z</time>
      </trkpt>
      <trkpt lat="43.42349" lon="5.4338">
        <ele>333.71</ele>
        <time>2020-06-14T08:53:34Z</time>
      </trkpt>
      <trkpt lat="43.4234" lon="5.4339">
        <ele>332.75</ele>
        <time>2020-06-14T08:53:47Z</time>
      </trkpt>
      <trkpt lat="43.42331" lon="5.43395">
        <ele>332.27</ele>
        <time>2020-06-14T08:53:58Z</time>
      </trkpt>
      <trkpt lat="43.42325" lon="5.43398">
        <ele>331.79</ele>
        <time>2020-06-14T08:54:09Z</time>
      </trkpt>
      <trkpt lat="43.42324" lon="5.43398">
        <ele>331.79</ele>
        <time>2020-06-14T08:54:11Z</time>
      </trkpt>
      <trkpt lat="43.42312" lon="5.43402">
        <ele>330.35</ele>
        <time>2020-06-14T08:54:24Z</time>
      </trkpt>
      <trkpt lat="43.42311" lon="5.43403">
        <ele>329.87</ele>
        <time>2020-06-14T08:54:25Z</time>
      </trkpt>
      <trkpt lat="43.42308" lon="5.43397">
        <ele>327.95</ele>
        <time>2020-06-14T08:54:36Z</time>
      </trkpt>
      <trkpt lat="43.42307" lon="5.4339">
        <ele>327.95</ele>
        <time>2020-06-14T08:54:42Z</time>
      </trkpt>
      <trkpt lat="43.42309" lon="5.43375">
        <ele>328.43</ele>
        <time>2020-06-14T08:54:54Z</time>
      </trkpt>
      <trkpt lat="43.42304" lon="5.43372">
        <ele>326.99</ele>
        <time>2020-06-14T08:55:09Z</time>
      </trkpt>
      <trkpt lat="43.42303" lon="5.43375">
        <ele>326.02</ele>
        <time>2020-06-14T08:55:30Z</time>
      </trkpt>
      <trkpt lat="43.42303" lon="5.43371">
        <ele>326.99</ele>
        <time>2020-06-14T08:55:43Z</time>
      </trkpt>
      <trkpt lat="43.42303" lon="5.43369">
        <ele>327.47</ele>
        <time>2020-06-14T08:55:49Z</time>
      </trkpt>
      <trkpt lat="43.42311" lon="5.43359">
        <ele>326.5</ele>
        <time>2020-06-14T08:56:02Z</time>
      </trkpt>
      <trkpt lat="43.42313" lon="5.43351">
        <ele>326.5</ele>
        <time>2020-06-14T08:56:09Z</time>
      </trkpt>
      <trkpt lat="43.42314" lon="5.43344">
        <ele>327.47</ele>
        <time>2020-06-14T08:56:13Z</time>
      </trkpt>
      <trkpt lat="43.42315" lon="5.43333">
        <ele>326.5</ele>
        <time>2020-06-14T08:56:21Z</time>
      </trkpt>
      <trkpt lat="43.42315" lon="5.4333">
        <ele>326.5</ele>
        <time>2020-06-14T08:56:23Z</time>
      </trkpt>
      <trkpt lat="43.42316" lon="5.43322">
        <ele>326.5</ele>
        <time>2020-06-14T08:56:29Z</time>
      </trkpt>
      <trkpt lat="43.42314" lon="5.43304">
        <ele>326.02</ele>
        <time>2020-06-14T08:56:41Z</time>
      </trkpt>
      <trkpt lat="43.42313" lon="5.43301">
        <ele>325.54</ele>
        <time>2020-06-14T08:56:44Z</time>
      </trkpt>
      <trkpt lat="43.42311" lon="5.43287">
        <ele>323.62</ele>
        <time>2020-06-14T08:56:56Z</time>
      </trkpt>
      <trkpt lat="43.42311" lon="5.43271">
        <ele>322.66</ele>
        <time>2020-06-14T08:57:09Z</time>
      </trkpt>
      <trkpt lat="43.42312" lon="5.43253">
        <ele>322.18</ele>
        <time>2020-06-14T08:57:22Z</time>
      </trkpt>
      <trkpt lat="43.42317" lon="5.43237">
        <ele>321.7</ele>
        <time>2020-06-14T08:57:34Z</time>
      </trkpt>
      <trkpt lat="43.42318" lon="5.43217">
        <ele>321.22</ele>
        <time>2020-06-14T08:57:48Z</time>
      </trkpt>
      <trkpt lat="43.42316" lon="5.43198">
        <ele>321.22</ele>
        <time>2020-06-14T08:58:02Z</time>
      </trkpt>
      <trkpt lat="43.42317" lon="5.43188">
        <ele>320.74</ele>
        <time>2020-06-14T08:58:14Z</time>
      </trkpt>
      <trkpt lat="43.42317" lon="5.43176">
        <ele>321.7</ele>
        <time>2020-06-14T08:58:24Z</time>
      </trkpt>
      <trkpt lat="43.42318" lon="5.43172">
        <ele>321.7</ele>
        <time>2020-06-14T08:58:27Z</time>
      </trkpt>
      <trkpt lat="43.42319" lon="5.43167">
        <ele>322.18</ele>
        <time>2020-06-14T08:58:31Z</time>
      </trkpt>
      <trkpt lat="43.42322" lon="5.43154">
        <ele>323.62</ele>
        <time>2020-06-14T08:58:43Z</time>
      </trkpt>
      <trkpt lat="43.42324" lon="5.43134">
        <ele>326.02</ele>
        <time>2020-06-14T08:58:59Z</time>
      </trkpt>
      <trkpt lat="43.42326" lon="5.4312">
        <ele>326.99</ele>
        <time>2020-06-14T08:59:11Z</time>
      </trkpt>
      <trkpt lat="43.42325" lon="5.43109">
        <ele>325.06</ele>
        <time>2020-06-14T08:59:24Z</time>
      </trkpt>
      <trkpt lat="43.42327" lon="5.431">
        <ele>325.06</ele>
        <time>2020-06-14T08:59:38Z</time>
      </trkpt>
      <trkpt lat="43.42326" lon="5.43094">
        <ele>324.58</ele>
        <time>2020-06-14T08:59:42Z</time>
      </trkpt>
      <trkpt lat="43.42328" lon="5.43074">
        <ele>323.62</ele>
        <time>2020-06-14T08:59:56Z</time>
      </trkpt>
      <trkpt lat="43.42326" lon="5.4306">
        <ele>324.58</ele>
        <time>2020-06-14T09:00:08Z</time>
      </trkpt>
      <trkpt lat="43.42326" lon="5.4305">
        <ele>326.5</ele>
        <time>2020-06-14T09:00:21Z</time>
      </trkpt>
      <trkpt lat="43.42326" lon="5.43049">
        <ele>326.5</ele>
        <time>2020-06-14T09:00:22Z</time>
      </trkpt>
      <trkpt lat="43.42324" lon="5.43044">
        <ele>326.5</ele>
        <time>2020-06-14T09:00:34Z</time>
      </trkpt>
      <trkpt lat="43.42323" lon="5.43036">
        <ele>326.5</ele>
        <time>2020-06-14T09:00:42Z</time>
      </trkpt>
      <trkpt lat="43.42318" lon="5.4302">
        <ele>328.91</ele>
        <time>2020-06-14T09:00:57Z</time>
      </trkpt>
      <trkpt lat="43.42315" lon="5.43007">
        <ele>329.87</ele>
        <time>2020-06-14T09:01:08Z</time>
      </trkpt>
      <trkpt lat="43.42315" lon="5.43005">
        <ele>330.35</ele>
        <time>2020-06-14T09:01:10Z</time>
      </trkpt>
      <trkpt lat="43.42311" lon="5.42998">
        <ele>330.35</ele>
        <time>2020-06-14T09:01:16Z</time>
      </trkpt>
      <trkpt lat="43.42307" lon="5.42983">
        <ele>330.83</ele>
        <time>2020-06-14T09:01:28Z</time>
      </trkpt>
      <trkpt lat="43.423" lon="5.42972">
        <ele>330.83</ele>
        <time>2020-06-14T09:01:39Z</time>
      </trkpt>
      <trkpt lat="43.42291" lon="5.42966">
        <ele>332.27</ele>
        <time>2020-06-14T09:01:51Z</time>
      </trkpt>
      <trkpt lat="43.42287" lon="5.42964">
        <ele>332.75</ele>
        <time>2020-06-14T09:01:55Z</time>
      </trkpt>
      <trkpt lat="43.42285" lon="5.42964">
        <ele>332.75</ele>
        <time>2020-06-14T09:01:57Z</time>
      </trkpt>
      <trkpt lat="43.42275" lon="5.42956">
        <ele>333.71</ele>
        <time>2020-06-14T09:02:10Z</time>
      </trkpt>
      <trkpt lat="43.42268" lon="5.42952">
        <ele>333.23</ele>
        <time>2020-06-14T09:02:17Z</time>
      </trkpt>
      <trkpt lat="43.42256" lon="5.42947">
        <ele>331.79</ele>
        <time>2020-06-14T09:02:29Z</time>
      </trkpt>
      <trkpt lat="43.42246" lon="5.42947">
        <ele>331.31</ele>
        <time>2020-06-14T09:02:40Z</time>
      </trkpt>
      <trkpt lat="43.42237" lon="5.42949">
        <ele>331.31</ele>
        <time>2020-06-14T09:02:52Z</time>
      </trkpt>
      <trkpt lat="43.42225" lon="5.42954">
        <ele>331.79</ele>
        <time>2020-06-14T09:03:04Z</time>
      </trkpt>
      <trkpt lat="43.42215" lon="5.42954">
        <ele>329.87</ele>
        <time>2020-06-14T09:03:13Z</time>
      </trkpt>
      <trkpt lat="43.42213" lon="5.42954">
        <ele>329.87</ele>
        <time>2020-06-14T09:03:15Z</time>
      </trkpt>
      <trkpt lat="43.42209" lon="5.42958">
        <ele>329.87</ele>
        <time>2020-06-14T09:03:23Z</time>
      </trkpt>
      <trkpt lat="43.42202" lon="5.42957">
        <ele>330.83</ele>
        <time>2020-06-14T09:03:34Z</time>
      </trkpt>
      <trkpt lat="43.42196" lon="5.42959">
        <ele>331.31</ele>
        <time>2020-06-14T09:03:43Z</time>
      </trkpt>
      <trkpt lat="43.42182" lon="5.42966">
        <ele>331.79</ele>
        <time>2020-06-14T09:03:56Z</time>
      </trkpt>
      <trkpt lat="43.42174" lon="5.42969">
        <ele>333.23</ele>
        <time>2020-06-14T09:04:07Z</time>
      </trkpt>
      <trkpt lat="43.42167" lon="5.42971">
        <ele>334.2</ele>
        <time>2020-06-14T09:04:15Z</time>
      </trkpt>
      <trkpt lat="43.42157" lon="5.42972">
        <ele>336.12</ele>
        <time>2020-06-14T09:04:27Z</time>
      </trkpt>
      <trkpt lat="43.42151" lon="5.42972">
        <ele>337.08</ele>
        <time>2020-06-14T09:04:34Z</time>
      </trkpt>
      <trkpt lat="43.42139" lon="5.42973">
        <ele>339</ele>
        <time>2020-06-14T09:04:48Z</time>
      </trkpt>
      <trkpt lat="43.42136" lon="5.42975">
        <ele>339</ele>
        <time>2020-06-14T09:04:52Z</time>
      </trkpt>
      <trkpt lat="43.42123" lon="5.42976">
        <ele>339</ele>
        <time>2020-06-14T09:05:07Z</time>
      </trkpt>
      <trkpt lat="43.4212" lon="5.42977">
        <ele>339.48</ele>
        <time>2020-06-14T09:05:11Z</time>
      </trkpt>
      <trkpt lat="43.42117" lon="5.42977">
        <ele>339.48</ele>
        <time>2020-06-14T09:05:14Z</time>
      </trkpt>
      <trkpt lat="43.42105" lon="5.42979">
        <ele>339.48</ele>
        <time>2020-06-14T09:05:27Z</time>
      </trkpt>
      <trkpt lat="43.42102" lon="5.42981">
        <ele>339.48</ele>
        <time>2020-06-14T09:05:31Z</time>
      </trkpt>
      <trkpt lat="43.42101" lon="5.42984">
        <ele>339</ele>
        <time>2020-06-14T09:05:44Z</time>
      </trkpt>
      <trkpt lat="43.42094" lon="5.42992">
        <ele>339.48</ele>
        <time>2020-06-14T09:06:00Z</time>
      </trkpt>
      <trkpt lat="43.42089" lon="5.43005">
        <ele>340.92</ele>
        <time>2020-06-14T09:06:11Z</time>
      </trkpt>
      <trkpt lat="43.42089" lon="5.43007">
        <ele>340.44</ele>
        <time>2020-06-14T09:06:13Z</time>
      </trkpt>
      <trkpt lat="43.42083" lon="5.43022">
        <ele>341.41</ele>
        <time>2020-06-14T09:06:26Z</time>
      </trkpt>
      <trkpt lat="43.42078" lon="5.43033">
        <ele>342.85</ele>
        <time>2020-06-14T09:06:37Z</time>
      </trkpt>
      <trkpt lat="43.4207" lon="5.43035">
        <ele>344.77</ele>
        <time>2020-06-14T09:06:51Z</time>
      </trkpt>
      <trkpt lat="43.42067" lon="5.43036">
        <ele>344.77</ele>
        <time>2020-06-14T09:06:56Z</time>
      </trkpt>
      <trkpt lat="43.42056" lon="5.43036">
        <ele>343.33</ele>
        <time>2020-06-14T09:07:09Z</time>
      </trkpt>
      <trkpt lat="43.42053" lon="5.43035">
        <ele>343.33</ele>
        <time>2020-06-14T09:07:13Z</time>
      </trkpt>
      <trkpt lat="43.4205" lon="5.43032">
        <ele>343.33</ele>
        <time>2020-06-14T09:07:17Z</time>
      </trkpt>
      <trkpt lat="43.42048" lon="5.43028">
        <ele>343.81</ele>
        <time>2020-06-14T09:07:21Z</time>
      </trkpt>
      <trkpt lat="43.42043" lon="5.43013">
        <ele>344.29</ele>
        <time>2020-06-14T09:07:33Z</time>
      </trkpt>
      <trkpt lat="43.4204" lon="5.42997">
        <ele>344.77</ele>
        <time>2020-06-14T09:07:46Z</time>
      </trkpt>
      <trkpt lat="43.42035" lon="5.42985">
        <ele>345.73</ele>
        <time>2020-06-14T09:07:55Z</time>
      </trkpt>
      <trkpt lat="43.42029" lon="5.42975">
        <ele>345.25</ele>
        <time>2020-06-14T09:08:07Z</time>
      </trkpt>
      <trkpt lat="43.42024" lon="5.4297">
        <ele>345.25</ele>
        <time>2020-06-14T09:08:14Z</time>
      </trkpt>
      <trkpt lat="43.42017" lon="5.42963">
        <ele>344.29</ele>
        <time>2020-06-14T09:08:25Z</time>
      </trkpt>
      <trkpt lat="43.42013" lon="5.42961">
        <ele>344.77</ele>
        <time>2020-06-14T09:08:37Z</time>
      </trkpt>
      <trkpt lat="43.42013" lon="5.42961">
        <ele>344.29</ele>
        <time>2020-06-14T09:08:38Z</time>
      </trkpt>
      <trkpt lat="43.42014" lon="5.42963">
        <ele>343.81</ele>
        <time>2020-06-14T09:08:43Z</time>
      </trkpt>
      <trkpt lat="43.42011" lon="5.4296">
        <ele>343.81</ele>
        <time>2020-06-14T09:08:47Z</time>
      </trkpt>
      <trkpt lat="43.42004" lon="5.42953">
        <ele>344.29</ele>
        <time>2020-06-14T09:08:59Z</time>
      </trkpt>
      <trkpt lat="43.42004" lon="5.42952">
        <ele>344.77</ele>
        <time>2020-06-14T09:09:03Z</time>
      </trkpt>
      <trkpt lat="43.42006" lon="5.42951">
        <ele>344.77</ele>
        <time>2020-06-14T09:09:05Z</time>
      </trkpt>
      <trkpt lat="43.42002" lon="5.42946">
        <ele>343.81</ele>
        <time>2020-06-14T09:09:13Z</time>
      </trkpt>
      <trkpt lat="43.41995" lon="5.42937">
        <ele>345.73</ele>
        <time>2020-06-14T09:09:26Z</time>
      </trkpt>
      <trkpt lat="43.41992" lon="5.42939">
        <ele>343.33</ele>
        <time>2020-06-14T09:09:42Z</time>
      </trkpt>
      <trkpt lat="43.41991" lon="5.42936">
        <ele>342.85</ele>
        <time>2020-06-14T09:09:46Z</time>
      </trkpt>
      <trkpt lat="43.41989" lon="5.42934">
        <ele>342.37</ele>
        <time>2020-06-14T09:09:48Z</time>
      </trkpt>
      <trkpt lat="43.41984" lon="5.42928">
        <ele>341.89</ele>
        <time>2020-06-14T09:09:56Z</time>
      </trkpt>
      <trkpt lat="43.41979" lon="5.42924">
        <ele>340.92</ele>
        <time>2020-06-14T09:10:02Z</time>
      </trkpt>
      <trkpt lat="43.4197" lon="5.42917">
        <ele>340.44</ele>
        <time>2020-06-14T09:10:12Z</time>
      </trkpt>
      <trkpt lat="43.41962" lon="5.42905">
        <ele>342.37</ele>
        <time>2020-06-14T09:10:24Z</time>
      </trkpt>
      <trkpt lat="43.41961" lon="5.42903">
        <ele>343.33</ele>
        <time>2020-06-14T09:10:26Z</time>
      </trkpt>
      <trkpt lat="43.4196" lon="5.429">
        <ele>344.29</ele>
        <time>2020-06-14T09:10:29Z</time>
      </trkpt>
      <trkpt lat="43.41952" lon="5.42887">
        <ele>346.21</ele>
        <time>2020-06-14T09:10:42Z</time>
      </trkpt>
      <trkpt lat="43.41946" lon="5.42881">
        <ele>345.73</ele>
        <time>2020-06-14T09:10:55Z</time>
      </trkpt>
      <trkpt lat="43.41939" lon="5.4287">
        <ele>346.69</ele>
        <time>2020-06-14T09:11:06Z</time>
      </trkpt>
      <trkpt lat="43.41931" lon="5.42861">
        <ele>346.69</ele>
        <time>2020-06-14T09:11:16Z</time>
      </trkpt>
      <trkpt lat="43.41925" lon="5.42856">
        <ele>346.69</ele>
        <time>2020-06-14T09:11:23Z</time>
      </trkpt>
      <trkpt lat="43.41914" lon="5.4285">
        <ele>347.17</ele>
        <time>2020-06-14T09:11:35Z</time>
      </trkpt>
      <trkpt lat="43.41902" lon="5.42845">
        <ele>347.65</ele>
        <time>2020-06-14T09:11:47Z</time>
      </trkpt>
      <trkpt lat="43.41899" lon="5.42844">
        <ele>347.17</ele>
        <time>2020-06-14T09:11:51Z</time>
      </trkpt>
      <trkpt lat="43.41897" lon="5.42843">
        <ele>347.65</ele>
        <time>2020-06-14T09:11:53Z</time>
      </trkpt>
      <trkpt lat="43.41886" lon="5.42838">
        <ele>347.17</ele>
        <time>2020-06-14T09:12:05Z</time>
      </trkpt>
      <trkpt lat="43.41877" lon="5.42835">
        <ele>345.73</ele>
        <time>2020-06-14T09:12:18Z</time>
      </trkpt>
      <trkpt lat="43.41865" lon="5.42831">
        <ele>343.81</ele>
        <time>2020-06-14T09:12:31Z</time>
      </trkpt>
      <trkpt lat="43.41865" lon="5.42831">
        <ele>343.81</ele>
        <time>2020-06-14T09:12:32Z</time>
      </trkpt>
      <trkpt lat="43.41861" lon="5.42831">
        <ele>343.33</ele>
        <time>2020-06-14T09:12:36Z</time>
      </trkpt>
      <trkpt lat="43.41859" lon="5.4283">
        <ele>343.33</ele>
        <time>2020-06-14T09:12:38Z</time>
      </trkpt>
      <trkpt lat="43.41849" lon="5.42831">
        <ele>342.37</ele>
        <time>2020-06-14T09:12:50Z</time>
      </trkpt>
      <trkpt lat="43.41835" lon="5.42831">
        <ele>342.85</ele>
        <time>2020-06-14T09:13:03Z</time>
      </trkpt>
      <trkpt lat="43.41822" lon="5.42832">
        <ele>345.25</ele>
        <time>2020-06-14T09:13:16Z</time>
      </trkpt>
      <trkpt lat="43.41812" lon="5.42832">
        <ele>345.73</ele>
        <time>2020-06-14T09:13:30Z</time>
      </trkpt>
      <trkpt lat="43.41804" lon="5.42824">
        <ele>343.33</ele>
        <time>2020-06-14T09:13:48Z</time>
      </trkpt>
      <trkpt lat="43.41797" lon="5.42815">
        <ele>342.37</ele>
        <time>2020-06-14T09:14:02Z</time>
      </trkpt>
      <trkpt lat="43.41782" lon="5.42807">
        <ele>341.41</ele>
        <time>2020-06-14T09:14:16Z</time>
      </trkpt>
      <trkpt lat="43.41775" lon="5.42797">
        <ele>342.37</ele>
        <time>2020-06-14T09:14:27Z</time>
      </trkpt>
      <trkpt lat="43.41773" lon="5.42781">
        <ele>344.77</ele>
        <time>2020-06-14T09:14:41Z</time>
      </trkpt>
      <trkpt lat="43.41766" lon="5.42758">
        <ele>342.85</ele>
        <time>2020-06-14T09:14:57Z</time>
      </trkpt>
      <trkpt lat="43.41761" lon="5.42743">
        <ele>340.44</ele>
        <time>2020-06-14T09:15:10Z</time>
      </trkpt>
      <trkpt lat="43.41752" lon="5.42728">
        <ele>337.56</ele>
        <time>2020-06-14T09:15:23Z</time>
      </trkpt>
      <trkpt lat="43.4174" lon="5.42715">
        <ele>333.23</ele>
        <time>2020-06-14T09:15:37Z</time>
      </trkpt>
      <trkpt lat="43.41727" lon="5.42711">
        <ele>329.39</ele>
        <time>2020-06-14T09:15:50Z</time>
      </trkpt>
      <trkpt lat="43.41713" lon="5.42715">
        <ele>328.43</ele>
        <time>2020-06-14T09:16:03Z</time>
      </trkpt>
      <trkpt lat="43.41703" lon="5.42722">
        <ele>328.43</ele>
        <time>2020-06-14T09:16:13Z</time>
      </trkpt>
      <trkpt lat="43.41698" lon="5.42725">
        <ele>329.39</ele>
        <time>2020-06-14T09:16:17Z</time>
      </trkpt>
      <trkpt lat="43.41689" lon="5.42735">
        <ele>330.35</ele>
        <time>2020-06-14T09:16:30Z</time>
      </trkpt>
      <trkpt lat="43.4168" lon="5.42743">
        <ele>330.35</ele>
        <time>2020-06-14T09:16:44Z</time>
      </trkpt>
      <trkpt lat="43.41676" lon="5.4274">
        <ele>328.91</ele>
        <time>2020-06-14T09:16:55Z</time>
      </trkpt>
      <trkpt lat="43.41675" lon="5.42738">
        <ele>329.39</ele>
        <time>2020-06-14T09:16:57Z</time>
      </trkpt>
      <trkpt lat="43.41663" lon="5.42739">
        <ele>327.47</ele>
        <time>2020-06-14T09:17:13Z</time>
      </trkpt>
      <trkpt lat="43.41656" lon="5.4274">
        <ele>324.58</ele>
        <time>2020-06-14T09:17:22Z</time>
      </trkpt>
      <trkpt lat="43.4165" lon="5.42734">
        <ele>322.18</ele>
        <time>2020-06-14T09:17:36Z</time>
      </trkpt>
      <trkpt lat="43.41651" lon="5.42723">
        <ele>321.22</ele>
        <time>2020-06-14T09:17:49Z</time>
      </trkpt>
      <trkpt lat="43.41648" lon="5.4271">
        <ele>323.14</ele>
        <time>2020-06-14T09:18:02Z</time>
      </trkpt>
      <trkpt lat="43.41642" lon="5.42693">
        <ele>323.62</ele>
        <time>2020-06-14T09:18:15Z</time>
      </trkpt>
      <trkpt lat="43.41627" lon="5.42681">
        <ele>322.18</ele>
        <time>2020-06-14T09:18:32Z</time>
      </trkpt>
      <trkpt lat="43.41625" lon="5.4268">
        <ele>322.18</ele>
        <time>2020-06-14T09:18:34Z</time>
      </trkpt>
      <trkpt lat="43.41615" lon="5.42679">
        <ele>323.62</ele>
        <time>2020-06-14T09:18:46Z</time>
      </trkpt>
      <trkpt lat="43.41609" lon="5.42677">
        <ele>324.1</ele>
        <time>2020-06-14T09:18:55Z</time>
      </trkpt>
      <trkpt lat="43.41596" lon="5.42673">
        <ele>322.66</ele>
        <time>2020-06-14T09:19:10Z</time>
      </trkpt>
      <trkpt lat="43.41588" lon="5.42672">
        <ele>320.26</ele>
        <time>2020-06-14T09:19:22Z</time>
      </trkpt>
      <trkpt lat="43.41578" lon="5.42667">
        <ele>318.33</ele>
        <time>2020-06-14T09:19:36Z</time>
      </trkpt>
      <trkpt lat="43.41564" lon="5.42666">
        <ele>316.89</ele>
        <time>2020-06-14T09:19:49Z</time>
      </trkpt>
      <trkpt lat="43.41545" lon="5.42678">
        <ele>316.89</ele>
        <time>2020-06-14T09:20:05Z</time>
      </trkpt>
      <trkpt lat="43.41539" lon="5.42683">
        <ele>316.41</ele>
        <time>2020-06-14T09:20:12Z</time>
      </trkpt>
      <trkpt lat="43.41535" lon="5.42688">
        <ele>317.37</ele>
        <time>2020-06-14T09:20:16Z</time>
      </trkpt>
      <trkpt lat="43.41529" lon="5.427">
        <ele>317.85</ele>
        <time>2020-06-14T09:20:29Z</time>
      </trkpt>
      <trkpt lat="43.41525" lon="5.42714">
        <ele>317.37</ele>
        <time>2020-06-14T09:20:41Z</time>
      </trkpt>
      <trkpt lat="43.41518" lon="5.42731">
        <ele>316.41</ele>
        <time>2020-06-14T09:20:55Z</time>
      </trkpt>
      <trkpt lat="43.41512" lon="5.42752">
        <ele>318.33</ele>
        <time>2020-06-14T09:21:10Z</time>
      </trkpt>
      <trkpt lat="43.41509" lon="5.42766">
        <ele>318.81</ele>
        <time>2020-06-14T09:21:17Z</time>
      </trkpt>
      <trkpt lat="43.41505" lon="5.42776">
        <ele>320.26</ele>
        <time>2020-06-14T09:21:24Z</time>
      </trkpt>
      <trkpt lat="43.41504" lon="5.42799">
        <ele>322.66</ele>
        <time>2020-06-14T09:21:38Z</time>
      </trkpt>
      <trkpt lat="43.41503" lon="5.42813">
        <ele>321.7</ele>
        <time>2020-06-14T09:21:50Z</time>
      </trkpt>
      <trkpt lat="43.41503" lon="5.4282">
        <ele>320.74</ele>
        <time>2020-06-14T09:22:03Z</time>
      </trkpt>
      <trkpt lat="43.41502" lon="5.42835">
        <ele>321.22</ele>
        <time>2020-06-14T09:22:15Z</time>
      </trkpt>
      <trkpt lat="43.41499" lon="5.42852">
        <ele>322.18</ele>
        <time>2020-06-14T09:22:28Z</time>
      </trkpt>
      <trkpt lat="43.41497" lon="5.42866">
        <ele>322.66</ele>
        <time>2020-06-14T09:22:39Z</time>
      </trkpt>
      <trkpt lat="43.41497" lon="5.42874">
        <ele>322.66</ele>
        <time>2020-06-14T09:22:45Z</time>
      </trkpt>
      <trkpt lat="43.41493" lon="5.42896">
        <ele>325.06</ele>
        <time>2020-06-14T09:23:01Z</time>
      </trkpt>
      <trkpt lat="43.41491" lon="5.4291">
        <ele>325.54</ele>
        <time>2020-06-14T09:23:11Z</time>
      </trkpt>
      <trkpt lat="43.41491" lon="5.42913">
        <ele>326.02</ele>
        <time>2020-06-14T09:23:13Z</time>
      </trkpt>
      <trkpt lat="43.41492" lon="5.42927">
        <ele>326.5</ele>
        <time>2020-06-14T09:23:23Z</time>
      </trkpt>
      <trkpt lat="43.41491" lon="5.42937">
        <ele>326.02</ele>
        <time>2020-06-14T09:23:31Z</time>
      </trkpt>
      <trkpt lat="43.4149" lon="5.42958">
        <ele>324.1</ele>
        <time>2020-06-14T09:23:46Z</time>
      </trkpt>
      <trkpt lat="43.4149" lon="5.42959">
        <ele>324.1</ele>
        <time>2020-06-14T09:23:47Z</time>
      </trkpt>
      <trkpt lat="43.41486" lon="5.42961">
        <ele>323.14</ele>
        <time>2020-06-14T09:23:59Z</time>
      </trkpt>
      <trkpt lat="43.41486" lon="5.42965">
        <ele>318.81</ele>
        <time>2020-06-14T09:24:18Z</time>
      </trkpt>
      <trkpt lat="43.41481" lon="5.42961">
        <ele>318.33</ele>
        <time>2020-06-14T09:24:28Z</time>
      </trkpt>
      <trkpt lat="43.41478" lon="5.4296">
        <ele>318.33</ele>
        <time>2020-06-14T09:24:31Z</time>
      </trkpt>
      <trkpt lat="43.41463" lon="5.42962">
        <ele>320.74</ele>
        <time>2020-06-14T09:24:44Z</time>
      </trkpt>
      <trkpt lat="43.41461" lon="5.42969">
        <ele>320.26</ele>
        <time>2020-06-14T09:24:48Z</time>
      </trkpt>
      <trkpt lat="43.41459" lon="5.42978">
        <ele>317.37</ele>
        <time>2020-06-14T09:24:59Z</time>
      </trkpt>
      <trkpt lat="43.41453" lon="5.42982">
        <ele>318.33</ele>
        <time>2020-06-14T09:25:05Z</time>
      </trkpt>
      <trkpt lat="43.4145" lon="5.42981">
        <ele>318.81</ele>
        <time>2020-06-14T09:25:08Z</time>
      </trkpt>
      <trkpt lat="43.41444" lon="5.4299">
        <ele>318.81</ele>
        <time>2020-06-14T09:25:20Z</time>
      </trkpt>
      <trkpt lat="43.41447" lon="5.42988">
        <ele>317.37</ele>
        <time>2020-06-14T09:25:32Z</time>
      </trkpt>
      <trkpt lat="43.41453" lon="5.42981">
        <ele>317.37</ele>
        <time>2020-06-14T09:25:44Z</time>
      </trkpt>
      <trkpt lat="43.41457" lon="5.42969">
        <ele>318.33</ele>
        <time>2020-06-14T09:25:56Z</time>
      </trkpt>
      <trkpt lat="43.41458" lon="5.42965">
        <ele>318.33</ele>
        <time>2020-06-14T09:26:00Z</time>
      </trkpt>
      <trkpt lat="43.41459" lon="5.42962">
        <ele>318.81</ele>
        <time>2020-06-14T09:26:03Z</time>
      </trkpt>
      <trkpt lat="43.41459" lon="5.42957">
        <ele>318.81</ele>
        <time>2020-06-14T09:26:06Z</time>
      </trkpt>
      <trkpt lat="43.4146" lon="5.42954">
        <ele>318.81</ele>
        <time>2020-06-14T09:26:08Z</time>
      </trkpt>
      <trkpt lat="43.41467" lon="5.42934">
        <ele>315.45</ele>
        <time>2020-06-14T09:26:21Z</time>
      </trkpt>
      <trkpt lat="43.4147" lon="5.42912">
        <ele>314.01</ele>
        <time>2020-06-14T09:26:37Z</time>
      </trkpt>
      <trkpt lat="43.41472" lon="5.429">
        <ele>313.53</ele>
        <time>2020-06-14T09:26:46Z</time>
      </trkpt>
      <trkpt lat="43.41475" lon="5.42891">
        <ele>313.05</ele>
        <time>2020-06-14T09:26:53Z</time>
      </trkpt>
      <trkpt lat="43.41473" lon="5.42873">
        <ele>313.53</ele>
        <time>2020-06-14T09:27:08Z</time>
      </trkpt>
      <trkpt lat="43.4147" lon="5.42855">
        <ele>314.01</ele>
        <time>2020-06-14T09:27:18Z</time>
      </trkpt>
      <trkpt lat="43.41465" lon="5.42845">
        <ele>315.45</ele>
        <time>2020-06-14T09:27:30Z</time>
      </trkpt>
      <trkpt lat="43.41463" lon="5.42837">
        <ele>314.97</ele>
        <time>2020-06-14T09:27:36Z</time>
      </trkpt>
      <trkpt lat="43.41461" lon="5.42829">
        <ele>314.97</ele>
        <time>2020-06-14T09:27:44Z</time>
      </trkpt>
      <trkpt lat="43.41459" lon="5.42814">
        <ele>313.53</ele>
        <time>2020-06-14T09:27:57Z</time>
      </trkpt>
      <trkpt lat="43.41459" lon="5.42812">
        <ele>313.53</ele>
        <time>2020-06-14T09:27:58Z</time>
      </trkpt>
      <trkpt lat="43.41459" lon="5.42794">
        <ele>313.05</ele>
        <time>2020-06-14T09:28:10Z</time>
      </trkpt>
      <trkpt lat="43.4146" lon="5.42785">
        <ele>314.01</ele>
        <time>2020-06-14T09:28:16Z</time>
      </trkpt>
      <trkpt lat="43.41461" lon="5.42782">
        <ele>314.01</ele>
        <time>2020-06-14T09:28:18Z</time>
      </trkpt>
      <trkpt lat="43.41461" lon="5.42774">
        <ele>313.05</ele>
        <time>2020-06-14T09:28:23Z</time>
      </trkpt>
      <trkpt lat="43.41463" lon="5.42757">
        <ele>309.68</ele>
        <time>2020-06-14T09:28:36Z</time>
      </trkpt>
      <trkpt lat="43.41462" lon="5.4275">
        <ele>308.72</ele>
        <time>2020-06-14T09:28:40Z</time>
      </trkpt>
      <trkpt lat="43.41461" lon="5.4273">
        <ele>306.32</ele>
        <time>2020-06-14T09:28:54Z</time>
      </trkpt>
      <trkpt lat="43.41461" lon="5.42728">
        <ele>306.32</ele>
        <time>2020-06-14T09:28:55Z</time>
      </trkpt>
      <trkpt lat="43.41462" lon="5.42707">
        <ele>305.84</ele>
        <time>2020-06-14T09:29:09Z</time>
      </trkpt>
      <trkpt lat="43.41461" lon="5.42701">
        <ele>305.84</ele>
        <time>2020-06-14T09:29:12Z</time>
      </trkpt>
      <trkpt lat="43.41465" lon="5.42682">
        <ele>304.88</ele>
        <time>2020-06-14T09:29:25Z</time>
      </trkpt>
      <trkpt lat="43.41466" lon="5.42671">
        <ele>300.07</ele>
        <time>2020-06-14T09:29:40Z</time>
      </trkpt>
      <trkpt lat="43.41462" lon="5.4267">
        <ele>298.15</ele>
        <time>2020-06-14T09:30:02Z</time>
      </trkpt>
      <trkpt lat="43.41461" lon="5.4267">
        <ele>297.18</ele>
        <time>2020-06-14T09:30:34Z</time>
      </trkpt>
      <trkpt lat="43.41463" lon="5.42673">
        <ele>299.59</ele>
        <time>2020-06-14T09:31:05Z</time>
      </trkpt>
      <trkpt lat="43.41459" lon="5.42673">
        <ele>301.03</ele>
        <time>2020-06-14T09:31:26Z</time>
      </trkpt>
      <trkpt lat="43.41458" lon="5.42672">
        <ele>301.03</ele>
        <time>2020-06-14T09:31:56Z</time>
      </trkpt>
      <trkpt lat="43.41456" lon="5.42671">
        <ele>299.59</ele>
        <time>2020-06-14T09:32:26Z</time>
      </trkpt>
      <trkpt lat="43.41456" lon="5.42672">
        <ele>302.95</ele>
        <time>2020-06-14T09:32:59Z</time>
      </trkpt>
      <trkpt lat="43.41457" lon="5.42671">
        <ele>301.99</ele>
        <time>2020-06-14T09:33:33Z</time>
      </trkpt>
      <trkpt lat="43.41456" lon="5.4267">
        <ele>301.99</ele>
        <time>2020-06-14T09:33:55Z</time>
      </trkpt>
      <trkpt lat="43.41455" lon="5.42671">
        <ele>303.43</ele>
        <time>2020-06-14T09:34:14Z</time>
      </trkpt>
      <trkpt lat="43.41455" lon="5.42657">
        <ele>300.07</ele>
        <time>2020-06-14T09:34:25Z</time>
      </trkpt>
      <trkpt lat="43.41457" lon="5.42646">
        <ele>298.63</ele>
        <time>2020-06-14T09:34:35Z</time>
      </trkpt>
      <trkpt lat="43.41461" lon="5.42631">
        <ele>295.74</ele>
        <time>2020-06-14T09:34:47Z</time>
      </trkpt>
      <trkpt lat="43.41468" lon="5.4262">
        <ele>292.38</ele>
        <time>2020-06-14T09:34:58Z</time>
      </trkpt>
      <trkpt lat="43.4147" lon="5.42608">
        <ele>292.38</ele>
        <time>2020-06-14T09:35:09Z</time>
      </trkpt>
      <trkpt lat="43.41461" lon="5.42592">
        <ele>294.3</ele>
        <time>2020-06-14T09:35:23Z</time>
      </trkpt>
      <trkpt lat="43.41443" lon="5.42587">
        <ele>297.18</ele>
        <time>2020-06-14T09:35:38Z</time>
      </trkpt>
      <trkpt lat="43.41441" lon="5.42587">
        <ele>297.67</ele>
        <time>2020-06-14T09:35:40Z</time>
      </trkpt>
      <trkpt lat="43.41425" lon="5.42586">
        <ele>298.63</ele>
        <time>2020-06-14T09:35:55Z</time>
      </trkpt>
      <trkpt lat="43.41422" lon="5.42586">
        <ele>299.11</ele>
        <time>2020-06-14T09:35:57Z</time>
      </trkpt>
      <trkpt lat="43.4142" lon="5.42585">
        <ele>299.59</ele>
        <time>2020-06-14T09:35:59Z</time>
      </trkpt>
      <trkpt lat="43.41415" lon="5.42586">
        <ele>300.07</ele>
        <time>2020-06-14T09:36:04Z</time>
      </trkpt>
      <trkpt lat="43.41412" lon="5.4259">
        <ele>300.55</ele>
        <time>2020-06-14T09:36:15Z</time>
      </trkpt>
      <trkpt lat="43.414" lon="5.42586">
        <ele>303.91</ele>
        <time>2020-06-14T09:36:29Z</time>
      </trkpt>
      <trkpt lat="43.41398" lon="5.42585">
        <ele>304.39</ele>
        <time>2020-06-14T09:36:31Z</time>
      </trkpt>
      <trkpt lat="43.41385" lon="5.42577">
        <ele>304.88</ele>
        <time>2020-06-14T09:36:45Z</time>
      </trkpt>
      <trkpt lat="43.41372" lon="5.42571">
        <ele>305.36</ele>
        <time>2020-06-14T09:36:57Z</time>
      </trkpt>
      <trkpt lat="43.41363" lon="5.42561">
        <ele>305.84</ele>
        <time>2020-06-14T09:37:08Z</time>
      </trkpt>
      <trkpt lat="43.41362" lon="5.42559">
        <ele>305.84</ele>
        <time>2020-06-14T09:37:10Z</time>
      </trkpt>
      <trkpt lat="43.41354" lon="5.4255">
        <ele>304.88</ele>
        <time>2020-06-14T09:37:22Z</time>
      </trkpt>
      <trkpt lat="43.41352" lon="5.42547">
        <ele>304.88</ele>
        <time>2020-06-14T09:37:25Z</time>
      </trkpt>
      <trkpt lat="43.41353" lon="5.42546">
        <ele>303.91</ele>
        <time>2020-06-14T09:37:27Z</time>
      </trkpt>
      <trkpt lat="43.41346" lon="5.42534">
        <ele>301.03</ele>
        <time>2020-06-14T09:37:39Z</time>
      </trkpt>
      <trkpt lat="43.41336" lon="5.42521">
        <ele>301.51</ele>
        <time>2020-06-14T09:37:53Z</time>
      </trkpt>
      <trkpt lat="43.41324" lon="5.42508">
        <ele>300.55</ele>
        <time>2020-06-14T09:38:06Z</time>
      </trkpt>
      <trkpt lat="43.41313" lon="5.42498">
        <ele>300.07</ele>
        <time>2020-06-14T09:38:19Z</time>
      </trkpt>
      <trkpt lat="43.41301" lon="5.4249">
        <ele>299.59</ele>
        <time>2020-06-14T09:38:35Z</time>
      </trkpt>
      <trkpt lat="43.41293" lon="5.42483">
        <ele>300.07</ele>
        <time>2020-06-14T09:38:47Z</time>
      </trkpt>
      <trkpt lat="43.41279" lon="5.42481">
        <ele>302.95</ele>
        <time>2020-06-14T09:39:00Z</time>
      </trkpt>
      <trkpt lat="43.41277" lon="5.42481">
        <ele>303.43</ele>
        <time>2020-06-14T09:39:02Z</time>
      </trkpt>
      <trkpt lat="43.41271" lon="5.42481">
        <ele>303.91</ele>
        <time>2020-06-14T09:39:07Z</time>
      </trkpt>
      <trkpt lat="43.41267" lon="5.42481">
        <ele>303.91</ele>
        <time>2020-06-14T09:39:10Z</time>
      </trkpt>
      <trkpt lat="43.41257" lon="5.42487">
        <ele>306.32</ele>
        <time>2020-06-14T09:39:23Z</time>
      </trkpt>
      <trkpt lat="43.41245" lon="5.42499">
        <ele>309.2</ele>
        <time>2020-06-14T09:39:37Z</time>
      </trkpt>
      <trkpt lat="43.41244" lon="5.42502">
        <ele>309.2</ele>
        <time>2020-06-14T09:39:40Z</time>
      </trkpt>
      <trkpt lat="43.41234" lon="5.42512">
        <ele>310.16</ele>
        <time>2020-06-14T09:39:51Z</time>
      </trkpt>
      <trkpt lat="43.41233" lon="5.42516">
        <ele>310.64</ele>
        <time>2020-06-14T09:39:54Z</time>
      </trkpt>
      <trkpt lat="43.41225" lon="5.42526">
        <ele>313.53</ele>
        <time>2020-06-14T09:40:07Z</time>
      </trkpt>
      <trkpt lat="43.41224" lon="5.42526">
        <ele>313.53</ele>
        <time>2020-06-14T09:40:08Z</time>
      </trkpt>
      <trkpt lat="43.41215" lon="5.42543">
        <ele>314.97</ele>
        <time>2020-06-14T09:40:21Z</time>
      </trkpt>
      <trkpt lat="43.41215" lon="5.42544">
        <ele>314.49</ele>
        <time>2020-06-14T09:40:22Z</time>
      </trkpt>
      <trkpt lat="43.41206" lon="5.42551">
        <ele>315.93</ele>
        <time>2020-06-14T09:40:32Z</time>
      </trkpt>
      <trkpt lat="43.41196" lon="5.42561">
        <ele>317.85</ele>
        <time>2020-06-14T09:40:43Z</time>
      </trkpt>
      <trkpt lat="43.41188" lon="5.42571">
        <ele>316.41</ele>
        <time>2020-06-14T09:40:54Z</time>
      </trkpt>
      <trkpt lat="43.41185" lon="5.42573">
        <ele>315.45</ele>
        <time>2020-06-14T09:40:57Z</time>
      </trkpt>
      <trkpt lat="43.41183" lon="5.42577">
        <ele>314.97</ele>
        <time>2020-06-14T09:41:01Z</time>
      </trkpt>
      <trkpt lat="43.41173" lon="5.42585">
        <ele>315.93</ele>
        <time>2020-06-14T09:41:14Z</time>
      </trkpt>
      <trkpt lat="43.41164" lon="5.42591">
        <ele>315.45</ele>
        <time>2020-06-14T09:41:25Z</time>
      </trkpt>
      <trkpt lat="43.4115" lon="5.42593">
        <ele>315.45</ele>
        <time>2020-06-14T09:41:39Z</time>
      </trkpt>
      <trkpt lat="43.41138" lon="5.42596">
        <ele>314.97</ele>
        <time>2020-06-14T09:41:50Z</time>
      </trkpt>
      <trkpt lat="43.41125" lon="5.42601">
        <ele>313.05</ele>
        <time>2020-06-14T09:42:02Z</time>
      </trkpt>
      <trkpt lat="43.41123" lon="5.42601">
        <ele>312.57</ele>
        <time>2020-06-14T09:42:04Z</time>
      </trkpt>
      <trkpt lat="43.41112" lon="5.42614">
        <ele>311.6</ele>
        <time>2020-06-14T09:42:17Z</time>
      </trkpt>
      <trkpt lat="43.41111" lon="5.42624">
        <ele>310.64</ele>
        <time>2020-06-14T09:42:24Z</time>
      </trkpt>
      <trkpt lat="43.41106" lon="5.42633">
        <ele>312.09</ele>
        <time>2020-06-14T09:42:33Z</time>
      </trkpt>
      <trkpt lat="43.41101" lon="5.42649">
        <ele>313.05</ele>
        <time>2020-06-14T09:42:45Z</time>
      </trkpt>
      <trkpt lat="43.41101" lon="5.42657">
        <ele>314.01</ele>
        <time>2020-06-14T09:42:58Z</time>
      </trkpt>
      <trkpt lat="43.41103" lon="5.42663">
        <ele>311.6</ele>
        <time>2020-06-14T09:43:16Z</time>
      </trkpt>
      <trkpt lat="43.41103" lon="5.42661">
        <ele>309.2</ele>
        <time>2020-06-14T09:43:34Z</time>
      </trkpt>
      <trkpt lat="43.41104" lon="5.42667">
        <ele>309.68</ele>
        <time>2020-06-14T09:43:38Z</time>
      </trkpt>
      <trkpt lat="43.41104" lon="5.42683">
        <ele>308.72</ele>
        <time>2020-06-14T09:43:51Z</time>
      </trkpt>
      <trkpt lat="43.41102" lon="5.42694">
        <ele>308.72</ele>
        <time>2020-06-14T09:44:03Z</time>
      </trkpt>
      <trkpt lat="43.41103" lon="5.42711">
        <ele>306.32</ele>
        <time>2020-06-14T09:44:16Z</time>
      </trkpt>
      <trkpt lat="43.41103" lon="5.42713">
        <ele>306.32</ele>
        <time>2020-06-14T09:44:17Z</time>
      </trkpt>
      <trkpt lat="43.41102" lon="5.42725">
        <ele>305.84</ele>
        <time>2020-06-14T09:44:29Z</time>
      </trkpt>
      <trkpt lat="43.41102" lon="5.42729">
        <ele>306.32</ele>
        <time>2020-06-14T09:44:32Z</time>
      </trkpt>
      <trkpt lat="43.41103" lon="5.42746">
        <ele>308.72</ele>
        <time>2020-06-14T09:44:46Z</time>
      </trkpt>
      <trkpt lat="43.41104" lon="5.42755">
        <ele>311.12</ele>
        <time>2020-06-14T09:44:59Z</time>
      </trkpt>
      <trkpt lat="43.41104" lon="5.42771">
        <ele>311.12</ele>
        <time>2020-06-14T09:45:11Z</time>
      </trkpt>
      <trkpt lat="43.41103" lon="5.42788">
        <ele>313.53</ele>
        <time>2020-06-14T09:45:24Z</time>
      </trkpt>
      <trkpt lat="43.41103" lon="5.42799">
        <ele>314.49</ele>
        <time>2020-06-14T09:45:34Z</time>
      </trkpt>
      <trkpt lat="43.41102" lon="5.42814">
        <ele>316.89</ele>
        <time>2020-06-14T09:45:49Z</time>
      </trkpt>
      <trkpt lat="43.41099" lon="5.42827">
        <ele>316.89</ele>
        <time>2020-06-14T09:46:01Z</time>
      </trkpt>
      <trkpt lat="43.41099" lon="5.42829">
        <ele>317.37</ele>
        <time>2020-06-14T09:46:03Z</time>
      </trkpt>
      <trkpt lat="43.41094" lon="5.42843">
        <ele>317.37</ele>
        <time>2020-06-14T09:46:18Z</time>
      </trkpt>
      <trkpt lat="43.41088" lon="5.42853">
        <ele>319.3</ele>
        <time>2020-06-14T09:46:30Z</time>
      </trkpt>
      <trkpt lat="43.41083" lon="5.42866">
        <ele>320.74</ele>
        <time>2020-06-14T09:46:44Z</time>
      </trkpt>
      <trkpt lat="43.41078" lon="5.42879">
        <ele>322.18</ele>
        <time>2020-06-14T09:46:57Z</time>
      </trkpt>
      <trkpt lat="43.41071" lon="5.4289">
        <ele>325.06</ele>
        <time>2020-06-14T09:47:11Z</time>
      </trkpt>
      <trkpt lat="43.4107" lon="5.4289">
        <ele>325.06</ele>
        <time>2020-06-14T09:47:12Z</time>
      </trkpt>
      <trkpt lat="43.41064" lon="5.429">
        <ele>326.99</ele>
        <time>2020-06-14T09:47:24Z</time>
      </trkpt>
      <trkpt lat="43.41058" lon="5.42912">
        <ele>328.91</ele>
        <time>2020-06-14T09:47:36Z</time>
      </trkpt>
      <trkpt lat="43.41059" lon="5.42923">
        <ele>328.43</ele>
        <time>2020-06-14T09:47:51Z</time>
      </trkpt>
      <trkpt lat="43.41055" lon="5.42928">
        <ele>327.95</ele>
        <time>2020-06-14T09:48:01Z</time>
      </trkpt>
      <trkpt lat="43.41049" lon="5.42938">
        <ele>329.39</ele>
        <time>2020-06-14T09:48:16Z</time>
      </trkpt>
      <trkpt lat="43.41045" lon="5.42942">
        <ele>329.87</ele>
        <time>2020-06-14T09:48:23Z</time>
      </trkpt>
      <trkpt lat="43.41037" lon="5.42951">
        <ele>331.79</ele>
        <time>2020-06-14T09:48:37Z</time>
      </trkpt>
      <trkpt lat="43.41031" lon="5.42961">
        <ele>332.75</ele>
        <time>2020-06-14T09:48:50Z</time>
      </trkpt>
      <trkpt lat="43.41025" lon="5.4297">
        <ele>334.68</ele>
        <time>2020-06-14T09:49:01Z</time>
      </trkpt>
      <trkpt lat="43.41024" lon="5.42971">
        <ele>334.68</ele>
        <time>2020-06-14T09:49:02Z</time>
      </trkpt>
      <trkpt lat="43.41013" lon="5.42978">
        <ele>337.08</ele>
        <time>2020-06-14T09:49:15Z</time>
      </trkpt>
      <trkpt lat="43.41012" lon="5.42978">
        <ele>337.08</ele>
        <time>2020-06-14T09:49:16Z</time>
      </trkpt>
      <trkpt lat="43.41001" lon="5.42983">
        <ele>338.04</ele>
        <time>2020-06-14T09:49:30Z</time>
      </trkpt>
      <trkpt lat="43.40992" lon="5.42991">
        <ele>337.56</ele>
        <time>2020-06-14T09:49:40Z</time>
      </trkpt>
      <trkpt lat="43.40986" lon="5.43">
        <ele>338.52</ele>
        <time>2020-06-14T09:49:50Z</time>
      </trkpt>
      <trkpt lat="43.40979" lon="5.43017">
        <ele>339.96</ele>
        <time>2020-06-14T09:50:05Z</time>
      </trkpt>
      <trkpt lat="43.40974" lon="5.43031">
        <ele>339.96</ele>
        <time>2020-06-14T09:50:17Z</time>
      </trkpt>
      <trkpt lat="43.4097" lon="5.43045">
        <ele>340.44</ele>
        <time>2020-06-14T09:50:29Z</time>
      </trkpt>
      <trkpt lat="43.40969" lon="5.43062">
        <ele>342.37</ele>
        <time>2020-06-14T09:50:42Z</time>
      </trkpt>
      <trkpt lat="43.40971" lon="5.43079">
        <ele>344.77</ele>
        <time>2020-06-14T09:50:55Z</time>
      </trkpt>
      <trkpt lat="43.40972" lon="5.43093">
        <ele>344.77</ele>
        <time>2020-06-14T09:51:06Z</time>
      </trkpt>
      <trkpt lat="43.40966" lon="5.43101">
        <ele>345.73</ele>
        <time>2020-06-14T09:51:16Z</time>
      </trkpt>
      <trkpt lat="43.40961" lon="5.43106">
        <ele>347.65</ele>
        <time>2020-06-14T09:51:28Z</time>
      </trkpt>
      <trkpt lat="43.4096" lon="5.43103">
        <ele>349.1</ele>
        <time>2020-06-14T09:51:42Z</time>
      </trkpt>
      <trkpt lat="43.40953" lon="5.43103">
        <ele>351.98</ele>
        <time>2020-06-14T09:51:54Z</time>
      </trkpt>
      <trkpt lat="43.40944" lon="5.431">
        <ele>352.46</ele>
        <time>2020-06-14T09:52:08Z</time>
      </trkpt>
      <trkpt lat="43.40933" lon="5.43094">
        <ele>354.38</ele>
        <time>2020-06-14T09:52:21Z</time>
      </trkpt>
      <trkpt lat="43.40918" lon="5.43089">
        <ele>353.9</ele>
        <time>2020-06-14T09:52:36Z</time>
      </trkpt>
      <trkpt lat="43.40906" lon="5.43088">
        <ele>353.42</ele>
        <time>2020-06-14T09:52:48Z</time>
      </trkpt>
      <trkpt lat="43.40894" lon="5.43089">
        <ele>352.94</ele>
        <time>2020-06-14T09:53:00Z</time>
      </trkpt>
      <trkpt lat="43.40881" lon="5.4309">
        <ele>352.94</ele>
        <time>2020-06-14T09:53:14Z</time>
      </trkpt>
      <trkpt lat="43.40868" lon="5.43093">
        <ele>353.9</ele>
        <time>2020-06-14T09:53:27Z</time>
      </trkpt>
      <trkpt lat="43.40866" lon="5.43094">
        <ele>354.86</ele>
        <time>2020-06-14T09:53:30Z</time>
      </trkpt>
      <trkpt lat="43.40859" lon="5.43098">
        <ele>356.31</ele>
        <time>2020-06-14T09:53:38Z</time>
      </trkpt>
      <trkpt lat="43.40855" lon="5.43102">
        <ele>356.79</ele>
        <time>2020-06-14T09:53:42Z</time>
      </trkpt>
      <trkpt lat="43.40853" lon="5.43109">
        <ele>357.27</ele>
        <time>2020-06-14T09:53:47Z</time>
      </trkpt>
      <trkpt lat="43.40853" lon="5.43113">
        <ele>357.27</ele>
        <time>2020-06-14T09:53:50Z</time>
      </trkpt>
      <trkpt lat="43.40855" lon="5.4312">
        <ele>357.27</ele>
        <time>2020-06-14T09:53:54Z</time>
      </trkpt>
      <trkpt lat="43.40857" lon="5.43141">
        <ele>355.34</ele>
        <time>2020-06-14T09:54:08Z</time>
      </trkpt>
      <trkpt lat="43.40859" lon="5.43151">
        <ele>354.86</ele>
        <time>2020-06-14T09:54:19Z</time>
      </trkpt>
      <trkpt lat="43.4086" lon="5.43166">
        <ele>355.34</ele>
        <time>2020-06-14T09:54:32Z</time>
      </trkpt>
      <trkpt lat="43.40861" lon="5.43167">
        <ele>355.34</ele>
        <time>2020-06-14T09:54:33Z</time>
      </trkpt>
      <trkpt lat="43.40862" lon="5.43183">
        <ele>356.31</ele>
        <time>2020-06-14T09:54:46Z</time>
      </trkpt>
      <trkpt lat="43.40865" lon="5.43198">
        <ele>357.75</ele>
        <time>2020-06-14T09:54:59Z</time>
      </trkpt>
      <trkpt lat="43.40866" lon="5.43215">
        <ele>359.19</ele>
        <time>2020-06-14T09:55:14Z</time>
      </trkpt>
      <trkpt lat="43.40865" lon="5.43231">
        <ele>357.75</ele>
        <time>2020-06-14T09:55:29Z</time>
      </trkpt>
      <trkpt lat="43.40862" lon="5.43239">
        <ele>357.75</ele>
        <time>2020-06-14T09:55:38Z</time>
      </trkpt>
      <trkpt lat="43.40857" lon="5.43247">
        <ele>361.11</ele>
        <time>2020-06-14T09:55:47Z</time>
      </trkpt>
      <trkpt lat="43.40847" lon="5.4325">
        <ele>368.32</ele>
        <time>2020-06-14T09:56:01Z</time>
      </trkpt>
      <trkpt lat="43.40838" lon="5.43253">
        <ele>373.13</ele>
        <time>2020-06-14T09:56:13Z</time>
      </trkpt>
      <trkpt lat="43.40825" lon="5.43261">
        <ele>371.69</ele>
        <time>2020-06-14T09:56:26Z</time>
      </trkpt>
      <trkpt lat="43.40823" lon="5.43262">
        <ele>371.21</ele>
        <time>2020-06-14T09:56:28Z</time>
      </trkpt>
      <trkpt lat="43.40814" lon="5.43271">
        <ele>371.21</ele>
        <time>2020-06-14T09:56:41Z</time>
      </trkpt>
      <trkpt lat="43.40807" lon="5.43278">
        <ele>371.21</ele>
        <time>2020-06-14T09:56:52Z</time>
      </trkpt>
      <trkpt lat="43.40802" lon="5.4328">
        <ele>372.17</ele>
        <time>2020-06-14T09:56:59Z</time>
      </trkpt>
      <trkpt lat="43.40791" lon="5.4328">
        <ele>374.09</ele>
        <time>2020-06-14T09:57:13Z</time>
      </trkpt>
      <trkpt lat="43.40788" lon="5.43279">
        <ele>374.09</ele>
        <time>2020-06-14T09:57:17Z</time>
      </trkpt>
      <trkpt lat="43.40777" lon="5.4328">
        <ele>374.57</ele>
        <time>2020-06-14T09:57:30Z</time>
      </trkpt>
      <trkpt lat="43.40773" lon="5.43281">
        <ele>374.57</ele>
        <time>2020-06-14T09:57:36Z</time>
      </trkpt>
      <trkpt lat="43.40772" lon="5.43286">
        <ele>374.09</ele>
        <time>2020-06-14T09:57:47Z</time>
      </trkpt>
      <trkpt lat="43.40775" lon="5.43291">
        <ele>374.09</ele>
        <time>2020-06-14T09:58:15Z</time>
      </trkpt>
      <trkpt lat="43.40765" lon="5.43292">
        <ele>374.09</ele>
        <time>2020-06-14T09:58:29Z</time>
      </trkpt>
      <trkpt lat="43.40755" lon="5.43298">
        <ele>374.09</ele>
        <time>2020-06-14T09:58:41Z</time>
      </trkpt>
      <trkpt lat="43.40751" lon="5.43306">
        <ele>374.09</ele>
        <time>2020-06-14T09:58:50Z</time>
      </trkpt>
      <trkpt lat="43.40749" lon="5.43317">
        <ele>375.05</ele>
        <time>2020-06-14T09:58:59Z</time>
      </trkpt>
      <trkpt lat="43.40748" lon="5.43332">
        <ele>375.53</ele>
        <time>2020-06-14T09:59:12Z</time>
      </trkpt>
      <trkpt lat="43.40747" lon="5.43345">
        <ele>374.09</ele>
        <time>2020-06-14T09:59:22Z</time>
      </trkpt>
      <trkpt lat="43.40748" lon="5.43362">
        <ele>373.13</ele>
        <time>2020-06-14T09:59:35Z</time>
      </trkpt>
      <trkpt lat="43.40753" lon="5.43379">
        <ele>372.65</ele>
        <time>2020-06-14T09:59:49Z</time>
      </trkpt>
      <trkpt lat="43.40757" lon="5.43392">
        <ele>373.13</ele>
        <time>2020-06-14T10:00:02Z</time>
      </trkpt>
      <trkpt lat="43.4076" lon="5.43408">
        <ele>374.09</ele>
        <time>2020-06-14T10:00:15Z</time>
      </trkpt>
      <trkpt lat="43.40761" lon="5.4342">
        <ele>375.53</ele>
        <time>2020-06-14T10:00:25Z</time>
      </trkpt>
      <trkpt lat="43.40764" lon="5.43434">
        <ele>378.42</ele>
        <time>2020-06-14T10:00:40Z</time>
      </trkpt>
      <trkpt lat="43.40765" lon="5.43441">
        <ele>380.82</ele>
        <time>2020-06-14T10:00:57Z</time>
      </trkpt>
      <trkpt lat="43.40766" lon="5.43446">
        <ele>382.26</ele>
        <time>2020-06-14T10:01:15Z</time>
      </trkpt>
      <trkpt lat="43.40771" lon="5.43457">
        <ele>383.22</ele>
        <time>2020-06-14T10:01:30Z</time>
      </trkpt>
      <trkpt lat="43.4078" lon="5.4347">
        <ele>384.66</ele>
        <time>2020-06-14T10:01:44Z</time>
      </trkpt>
      <trkpt lat="43.4079" lon="5.43476">
        <ele>384.66</ele>
        <time>2020-06-14T10:01:55Z</time>
      </trkpt>
      <trkpt lat="43.40802" lon="5.43481">
        <ele>386.59</ele>
        <time>2020-06-14T10:02:10Z</time>
      </trkpt>
      <trkpt lat="43.40815" lon="5.43483">
        <ele>387.07</ele>
        <time>2020-06-14T10:02:22Z</time>
      </trkpt>
      <trkpt lat="43.40819" lon="5.43484">
        <ele>387.55</ele>
        <time>2020-06-14T10:02:28Z</time>
      </trkpt>
      <trkpt lat="43.40826" lon="5.43484">
        <ele>387.55</ele>
        <time>2020-06-14T10:02:35Z</time>
      </trkpt>
      <trkpt lat="43.40841" lon="5.43485">
        <ele>387.55</ele>
        <time>2020-06-14T10:02:50Z</time>
      </trkpt>
      <trkpt lat="43.40851" lon="5.43487">
        <ele>388.51</ele>
        <time>2020-06-14T10:03:02Z</time>
      </trkpt>
      <trkpt lat="43.40859" lon="5.43492">
        <ele>388.51</ele>
        <time>2020-06-14T10:03:13Z</time>
      </trkpt>
      <trkpt lat="43.40863" lon="5.43495">
        <ele>388.99</ele>
        <time>2020-06-14T10:03:18Z</time>
      </trkpt>
      <trkpt lat="43.40865" lon="5.43504">
        <ele>389.95</ele>
        <time>2020-06-14T10:03:26Z</time>
      </trkpt>
      <trkpt lat="43.40864" lon="5.4352">
        <ele>390.91</ele>
        <time>2020-06-14T10:03:40Z</time>
      </trkpt>
      <trkpt lat="43.40868" lon="5.43535">
        <ele>389.95</ele>
        <time>2020-06-14T10:03:53Z</time>
      </trkpt>
      <trkpt lat="43.40875" lon="5.43548">
        <ele>392.84</ele>
        <time>2020-06-14T10:04:08Z</time>
      </trkpt>
      <trkpt lat="43.40875" lon="5.43558">
        <ele>392.84</ele>
        <time>2020-06-14T10:04:18Z</time>
      </trkpt>
      <trkpt lat="43.40867" lon="5.43566">
        <ele>393.32</ele>
        <time>2020-06-14T10:04:32Z</time>
      </trkpt>
      <trkpt lat="43.40857" lon="5.43569">
        <ele>396.68</ele>
        <time>2020-06-14T10:04:46Z</time>
      </trkpt>
      <trkpt lat="43.40847" lon="5.43581">
        <ele>399.57</ele>
        <time>2020-06-14T10:05:01Z</time>
      </trkpt>
      <trkpt lat="43.40839" lon="5.43587">
        <ele>401.49</ele>
        <time>2020-06-14T10:05:13Z</time>
      </trkpt>
      <trkpt lat="43.40834" lon="5.43597">
        <ele>402.45</ele>
        <time>2020-06-14T10:05:23Z</time>
      </trkpt>
      <trkpt lat="43.40829" lon="5.4361">
        <ele>404.85</ele>
        <time>2020-06-14T10:05:35Z</time>
      </trkpt>
      <trkpt lat="43.4083" lon="5.43621">
        <ele>406.77</ele>
        <time>2020-06-14T10:05:44Z</time>
      </trkpt>
      <trkpt lat="43.40835" lon="5.43635">
        <ele>408.22</ele>
        <time>2020-06-14T10:05:56Z</time>
      </trkpt>
      <trkpt lat="43.4084" lon="5.4365">
        <ele>408.7</ele>
        <time>2020-06-14T10:06:11Z</time>
      </trkpt>
      <trkpt lat="43.4084" lon="5.43652">
        <ele>408.7</ele>
        <time>2020-06-14T10:06:12Z</time>
      </trkpt>
      <trkpt lat="43.40844" lon="5.43667">
        <ele>408.22</ele>
        <time>2020-06-14T10:06:25Z</time>
      </trkpt>
      <trkpt lat="43.40847" lon="5.43675">
        <ele>408.22</ele>
        <time>2020-06-14T10:06:33Z</time>
      </trkpt>
      <trkpt lat="43.40848" lon="5.43679">
        <ele>407.74</ele>
        <time>2020-06-14T10:06:35Z</time>
      </trkpt>
      <trkpt lat="43.40847" lon="5.43683">
        <ele>407.74</ele>
        <time>2020-06-14T10:06:38Z</time>
      </trkpt>
      <trkpt lat="43.40848" lon="5.43697">
        <ele>407.26</ele>
        <time>2020-06-14T10:06:52Z</time>
      </trkpt>
      <trkpt lat="43.40849" lon="5.43706">
        <ele>408.7</ele>
        <time>2020-06-14T10:07:05Z</time>
      </trkpt>
      <trkpt lat="43.40848" lon="5.43712">
        <ele>408.22</ele>
        <time>2020-06-14T10:07:19Z</time>
      </trkpt>
      <trkpt lat="43.4085" lon="5.43723">
        <ele>406.77</ele>
        <time>2020-06-14T10:07:33Z</time>
      </trkpt>
      <trkpt lat="43.40852" lon="5.43727">
        <ele>404.85</ele>
        <time>2020-06-14T10:07:52Z</time>
      </trkpt>
      <trkpt lat="43.40852" lon="5.43727">
        <ele>404.37</ele>
        <time>2020-06-14T10:07:54Z</time>
      </trkpt>
      <trkpt lat="43.40854" lon="5.43737">
        <ele>405.33</ele>
        <time>2020-06-14T10:08:06Z</time>
      </trkpt>
      <trkpt lat="43.40857" lon="5.4374">
        <ele>405.81</ele>
        <time>2020-06-14T10:08:16Z</time>
      </trkpt>
      <trkpt lat="43.40865" lon="5.43749">
        <ele>408.22</ele>
        <time>2020-06-14T10:08:31Z</time>
      </trkpt>
      <trkpt lat="43.4087" lon="5.43759">
        <ele>408.22</ele>
        <time>2020-06-14T10:08:44Z</time>
      </trkpt>
      <trkpt lat="43.40873" lon="5.43774">
        <ele>408.22</ele>
        <time>2020-06-14T10:08:59Z</time>
      </trkpt>
      <trkpt lat="43.40873" lon="5.43774">
        <ele>408.7</ele>
        <time>2020-06-14T10:09:02Z</time>
      </trkpt>
      <trkpt lat="43.40875" lon="5.43783">
        <ele>410.14</ele>
        <time>2020-06-14T10:09:17Z</time>
      </trkpt>
      <trkpt lat="43.4088" lon="5.43792">
        <ele>410.14</ele>
        <time>2020-06-14T10:09:30Z</time>
      </trkpt>
      <trkpt lat="43.40883" lon="5.43807">
        <ele>412.06</ele>
        <time>2020-06-14T10:09:46Z</time>
      </trkpt>
      <trkpt lat="43.40883" lon="5.43815">
        <ele>412.54</ele>
        <time>2020-06-14T10:09:55Z</time>
      </trkpt>
      <trkpt lat="43.40885" lon="5.43825">
        <ele>413.98</ele>
        <time>2020-06-14T10:10:09Z</time>
      </trkpt>
      <trkpt lat="43.40884" lon="5.43839">
        <ele>414.47</ele>
        <time>2020-06-14T10:10:22Z</time>
      </trkpt>
      <trkpt lat="43.40883" lon="5.43845">
        <ele>411.58</ele>
        <time>2020-06-14T10:10:36Z</time>
      </trkpt>
      <trkpt lat="43.40884" lon="5.43841">
        <ele>410.14</ele>
        <time>2020-06-14T10:10:49Z</time>
      </trkpt>
      <trkpt lat="43.40884" lon="5.43841">
        <ele>413.02</ele>
        <time>2020-06-14T10:11:13Z</time>
      </trkpt>
      <trkpt lat="43.40883" lon="5.43846">
        <ele>413.5</ele>
        <time>2020-06-14T10:11:16Z</time>
      </trkpt>
      <trkpt lat="43.40876" lon="5.43854">
        <ele>413.5</ele>
        <time>2020-06-14T10:11:26Z</time>
      </trkpt>
      <trkpt lat="43.40864" lon="5.43858">
        <ele>415.43</ele>
        <time>2020-06-14T10:11:39Z</time>
      </trkpt>
      <trkpt lat="43.40858" lon="5.43861">
        <ele>416.87</ele>
        <time>2020-06-14T10:11:46Z</time>
      </trkpt>
      <trkpt lat="43.40844" lon="5.43861">
        <ele>417.83</ele>
        <time>2020-06-14T10:12:02Z</time>
      </trkpt>
      <trkpt lat="43.40841" lon="5.43863">
        <ele>418.79</ele>
        <time>2020-06-14T10:12:06Z</time>
      </trkpt>
      <trkpt lat="43.40834" lon="5.43876">
        <ele>419.27</ele>
        <time>2020-06-14T10:12:20Z</time>
      </trkpt>
      <trkpt lat="43.4084" lon="5.43891">
        <ele>422.16</ele>
        <time>2020-06-14T10:12:33Z</time>
      </trkpt>
      <trkpt lat="43.40849" lon="5.43907">
        <ele>423.6</ele>
        <time>2020-06-14T10:12:46Z</time>
      </trkpt>
      <trkpt lat="43.40852" lon="5.43911">
        <ele>423.6</ele>
        <time>2020-06-14T10:12:51Z</time>
      </trkpt>
      <trkpt lat="43.4086" lon="5.43923">
        <ele>423.12</ele>
        <time>2020-06-14T10:13:04Z</time>
      </trkpt>
      <trkpt lat="43.40868" lon="5.43934">
        <ele>425.04</ele>
        <time>2020-06-14T10:13:17Z</time>
      </trkpt>
      <trkpt lat="43.40869" lon="5.43935">
        <ele>425.52</ele>
        <time>2020-06-14T10:13:19Z</time>
      </trkpt>
      <trkpt lat="43.40873" lon="5.43947">
        <ele>425.52</ele>
        <time>2020-06-14T10:13:30Z</time>
      </trkpt>
      <trkpt lat="43.40875" lon="5.43956">
        <ele>425.52</ele>
        <time>2020-06-14T10:13:41Z</time>
      </trkpt>
      <trkpt lat="43.40878" lon="5.43974">
        <ele>426.96</ele>
        <time>2020-06-14T10:13:53Z</time>
      </trkpt>
      <trkpt lat="43.40875" lon="5.43988">
        <ele>427.92</ele>
        <time>2020-06-14T10:14:07Z</time>
      </trkpt>
      <trkpt lat="43.40869" lon="5.44001">
        <ele>431.77</ele>
        <time>2020-06-14T10:14:21Z</time>
      </trkpt>
      <trkpt lat="43.40861" lon="5.44014">
        <ele>431.29</ele>
        <time>2020-06-14T10:14:33Z</time>
      </trkpt>
      <trkpt lat="43.40856" lon="5.4403">
        <ele>428.89</ele>
        <time>2020-06-14T10:14:47Z</time>
      </trkpt>
      <trkpt lat="43.40856" lon="5.44041">
        <ele>428.89</ele>
        <time>2020-06-14T10:14:56Z</time>
      </trkpt>
      <trkpt lat="43.4086" lon="5.44056">
        <ele>429.37</ele>
        <time>2020-06-14T10:15:11Z</time>
      </trkpt>
      <trkpt lat="43.40863" lon="5.44064">
        <ele>429.85</ele>
        <time>2020-06-14T10:15:25Z</time>
      </trkpt>
      <trkpt lat="43.40866" lon="5.44082">
        <ele>428.4</ele>
        <time>2020-06-14T10:15:46Z</time>
      </trkpt>
      <trkpt lat="43.40866" lon="5.44096">
        <ele>429.37</ele>
        <time>2020-06-14T10:16:01Z</time>
      </trkpt>
      <trkpt lat="43.40865" lon="5.44112">
        <ele>429.37</ele>
        <time>2020-06-14T10:16:15Z</time>
      </trkpt>
      <trkpt lat="43.40865" lon="5.4412">
        <ele>429.85</ele>
        <time>2020-06-14T10:16:22Z</time>
      </trkpt>
      <trkpt lat="43.4086" lon="5.44138">
        <ele>430.81</ele>
        <time>2020-06-14T10:16:38Z</time>
      </trkpt>
      <trkpt lat="43.40856" lon="5.44151">
        <ele>433.69</ele>
        <time>2020-06-14T10:16:51Z</time>
      </trkpt>
      <trkpt lat="43.40854" lon="5.44156">
        <ele>436.1</ele>
        <time>2020-06-14T10:17:06Z</time>
      </trkpt>
      <trkpt lat="43.40857" lon="5.44155">
        <ele>438.98</ele>
        <time>2020-06-14T10:17:33Z</time>
      </trkpt>
      <trkpt lat="43.40856" lon="5.44155">
        <ele>440.9</ele>
        <time>2020-06-14T10:18:03Z</time>
      </trkpt>
      <trkpt lat="43.40859" lon="5.44159">
        <ele>442.82</ele>
        <time>2020-06-14T10:18:25Z</time>
      </trkpt>
      <trkpt lat="43.40857" lon="5.44172">
        <ele>442.34</ele>
        <time>2020-06-14T10:18:40Z</time>
      </trkpt>
      <trkpt lat="43.40859" lon="5.44184">
        <ele>442.82</ele>
        <time>2020-06-14T10:18:50Z</time>
      </trkpt>
      <trkpt lat="43.40864" lon="5.44198">
        <ele>442.34</ele>
        <time>2020-06-14T10:19:04Z</time>
      </trkpt>
      <trkpt lat="43.40868" lon="5.4421">
        <ele>441.86</ele>
        <time>2020-06-14T10:19:18Z</time>
      </trkpt>
      <trkpt lat="43.4087" lon="5.44227">
        <ele>443.79</ele>
        <time>2020-06-14T10:19:34Z</time>
      </trkpt>
      <trkpt lat="43.40872" lon="5.4424">
        <ele>443.79</ele>
        <time>2020-06-14T10:19:48Z</time>
      </trkpt>
      <trkpt lat="43.40872" lon="5.44251">
        <ele>444.27</ele>
        <time>2020-06-14T10:20:00Z</time>
      </trkpt>
      <trkpt lat="43.40875" lon="5.44265">
        <ele>445.23</ele>
        <time>2020-06-14T10:20:15Z</time>
      </trkpt>
      <trkpt lat="43.40878" lon="5.44281">
        <ele>445.71</ele>
        <time>2020-06-14T10:20:28Z</time>
      </trkpt>
      <trkpt lat="43.40879" lon="5.44299">
        <ele>445.71</ele>
        <time>2020-06-14T10:20:41Z</time>
      </trkpt>
      <trkpt lat="43.40882" lon="5.44317">
        <ele>446.19</ele>
        <time>2020-06-14T10:20:54Z</time>
      </trkpt>
      <trkpt lat="43.40882" lon="5.44318">
        <ele>446.19</ele>
        <time>2020-06-14T10:20:55Z</time>
      </trkpt>
      <trkpt lat="43.40887" lon="5.44334">
        <ele>446.19</ele>
        <time>2020-06-14T10:21:08Z</time>
      </trkpt>
      <trkpt lat="43.40894" lon="5.44348">
        <ele>445.71</ele>
        <time>2020-06-14T10:21:22Z</time>
      </trkpt>
      <trkpt lat="43.40894" lon="5.44349">
        <ele>445.71</ele>
        <time>2020-06-14T10:21:23Z</time>
      </trkpt>
      <trkpt lat="43.40897" lon="5.44352">
        <ele>445.71</ele>
        <time>2020-06-14T10:21:27Z</time>
      </trkpt>
      <trkpt lat="43.40903" lon="5.44367">
        <ele>445.23</ele>
        <time>2020-06-14T10:21:42Z</time>
      </trkpt>
      <trkpt lat="43.40906" lon="5.44378">
        <ele>446.19</ele>
        <time>2020-06-14T10:21:53Z</time>
      </trkpt>
      <trkpt lat="43.40906" lon="5.44393">
        <ele>447.15</ele>
        <time>2020-06-14T10:22:07Z</time>
      </trkpt>
      <trkpt lat="43.40906" lon="5.44399">
        <ele>447.63</ele>
        <time>2020-06-14T10:22:12Z</time>
      </trkpt>
      <trkpt lat="43.40904" lon="5.44417">
        <ele>449.55</ele>
        <time>2020-06-14T10:22:27Z</time>
      </trkpt>
      <trkpt lat="43.40904" lon="5.44426">
        <ele>451.96</ele>
        <time>2020-06-14T10:22:40Z</time>
      </trkpt>
      <trkpt lat="43.40904" lon="5.44426">
        <ele>453.4</ele>
        <time>2020-06-14T10:23:06Z</time>
      </trkpt>
      <trkpt lat="43.40903" lon="5.44428">
        <ele>452.92</ele>
        <time>2020-06-14T10:23:21Z</time>
      </trkpt>
      <trkpt lat="43.40904" lon="5.44433">
        <ele>450.52</ele>
        <time>2020-06-14T10:23:34Z</time>
      </trkpt>
      <trkpt lat="43.40904" lon="5.44434">
        <ele>450.52</ele>
        <time>2020-06-14T10:23:38Z</time>
      </trkpt>
      <trkpt lat="43.40901" lon="5.44449">
        <ele>451</ele>
        <time>2020-06-14T10:23:51Z</time>
      </trkpt>
      <trkpt lat="43.40899" lon="5.44462">
        <ele>451.96</ele>
        <time>2020-06-14T10:24:03Z</time>
      </trkpt>
      <trkpt lat="43.40895" lon="5.4447">
        <ele>454.84</ele>
        <time>2020-06-14T10:24:14Z</time>
      </trkpt>
      <trkpt lat="43.40893" lon="5.44474">
        <ele>455.32</ele>
        <time>2020-06-14T10:24:19Z</time>
      </trkpt>
      <trkpt lat="43.40889" lon="5.44487">
        <ele>456.76</ele>
        <time>2020-06-14T10:24:31Z</time>
      </trkpt>
      <trkpt lat="43.40887" lon="5.44493">
        <ele>459.17</ele>
        <time>2020-06-14T10:24:46Z</time>
      </trkpt>
      <trkpt lat="43.40889" lon="5.44497">
        <ele>460.13</ele>
        <time>2020-06-14T10:24:58Z</time>
      </trkpt>
      <trkpt lat="43.40885" lon="5.44504">
        <ele>461.09</ele>
        <time>2020-06-14T10:25:15Z</time>
      </trkpt>
      <trkpt lat="43.40884" lon="5.44508">
        <ele>461.09</ele>
        <time>2020-06-14T10:25:20Z</time>
      </trkpt>
      <trkpt lat="43.40879" lon="5.4452">
        <ele>461.57</ele>
        <time>2020-06-14T10:25:32Z</time>
      </trkpt>
      <trkpt lat="43.40877" lon="5.44526">
        <ele>461.09</ele>
        <time>2020-06-14T10:25:37Z</time>
      </trkpt>
      <trkpt lat="43.40873" lon="5.4454">
        <ele>463.01</ele>
        <time>2020-06-14T10:25:50Z</time>
      </trkpt>
      <trkpt lat="43.40872" lon="5.44556">
        <ele>463.49</ele>
        <time>2020-06-14T10:26:04Z</time>
      </trkpt>
      <trkpt lat="43.40873" lon="5.44561">
        <ele>463.01</ele>
        <time>2020-06-14T10:26:08Z</time>
      </trkpt>
      <trkpt lat="43.40874" lon="5.44565">
        <ele>462.53</ele>
        <time>2020-06-14T10:26:24Z</time>
      </trkpt>
      <trkpt lat="43.40874" lon="5.4457">
        <ele>462.53</ele>
        <time>2020-06-14T10:26:49Z</time>
      </trkpt>
      <trkpt lat="43.40872" lon="5.44583">
        <ele>463.01</ele>
        <time>2020-06-14T10:27:03Z</time>
      </trkpt>
      <trkpt lat="43.40871" lon="5.44597">
        <ele>463.97</ele>
        <time>2020-06-14T10:27:15Z</time>
      </trkpt>
      <trkpt lat="43.40866" lon="5.44611">
        <ele>463.97</ele>
        <time>2020-06-14T10:27:28Z</time>
      </trkpt>
      <trkpt lat="43.40865" lon="5.44615">
        <ele>464.45</ele>
        <time>2020-06-14T10:27:32Z</time>
      </trkpt>
      <trkpt lat="43.40857" lon="5.44625">
        <ele>466.38</ele>
        <time>2020-06-14T10:27:45Z</time>
      </trkpt>
      <trkpt lat="43.40854" lon="5.44632">
        <ele>467.82</ele>
        <time>2020-06-14T10:27:53Z</time>
      </trkpt>
      <trkpt lat="43.40845" lon="5.44642">
        <ele>469.74</ele>
        <time>2020-06-14T10:28:07Z</time>
      </trkpt>
      <trkpt lat="43.40839" lon="5.44652">
        <ele>470.7</ele>
        <time>2020-06-14T10:28:19Z</time>
      </trkpt>
      <trkpt lat="43.40831" lon="5.44663">
        <ele>472.14</ele>
        <time>2020-06-14T10:28:32Z</time>
      </trkpt>
      <trkpt lat="43.40822" lon="5.44673">
        <ele>473.11</ele>
        <time>2020-06-14T10:28:46Z</time>
      </trkpt>
      <trkpt lat="43.40821" lon="5.44678">
        <ele>473.11</ele>
        <time>2020-06-14T10:29:01Z</time>
      </trkpt>
      <trkpt lat="43.40818" lon="5.44684">
        <ele>473.11</ele>
        <time>2020-06-14T10:29:19Z</time>
      </trkpt>
      <trkpt lat="43.40814" lon="5.44703">
        <ele>474.07</ele>
        <time>2020-06-14T10:29:35Z</time>
      </trkpt>
      <trkpt lat="43.40816" lon="5.44706">
        <ele>476.47</ele>
        <time>2020-06-14T10:29:49Z</time>
      </trkpt>
      <trkpt lat="43.40813" lon="5.44708">
        <ele>475.03</ele>
        <time>2020-06-14T10:30:05Z</time>
      </trkpt>
      <trkpt lat="43.40813" lon="5.4471">
        <ele>473.11</ele>
        <time>2020-06-14T10:30:24Z</time>
      </trkpt>
      <trkpt lat="43.40815" lon="5.44717">
        <ele>473.11</ele>
        <time>2020-06-14T10:30:29Z</time>
      </trkpt>
      <trkpt lat="43.40817" lon="5.44732">
        <ele>472.63</ele>
        <time>2020-06-14T10:30:42Z</time>
      </trkpt>
      <trkpt lat="43.40819" lon="5.44745">
        <ele>471.66</ele>
        <time>2020-06-14T10:30:53Z</time>
      </trkpt>
      <trkpt lat="43.4082" lon="5.44754">
        <ele>472.14</ele>
        <time>2020-06-14T10:31:04Z</time>
      </trkpt>
      <trkpt lat="43.40821" lon="5.44755">
        <ele>474.55</ele>
        <time>2020-06-14T10:31:32Z</time>
      </trkpt>
      <trkpt lat="43.4082" lon="5.44757">
        <ele>474.07</ele>
        <time>2020-06-14T10:31:40Z</time>
      </trkpt>
      <trkpt lat="43.40821" lon="5.4476">
        <ele>474.07</ele>
        <time>2020-06-14T10:31:42Z</time>
      </trkpt>
      <trkpt lat="43.40823" lon="5.44775">
        <ele>474.55</ele>
        <time>2020-06-14T10:31:54Z</time>
      </trkpt>
      <trkpt lat="43.40822" lon="5.44795">
        <ele>474.55</ele>
        <time>2020-06-14T10:32:08Z</time>
      </trkpt>
      <trkpt lat="43.40822" lon="5.448">
        <ele>475.03</ele>
        <time>2020-06-14T10:32:12Z</time>
      </trkpt>
      <trkpt lat="43.4082" lon="5.44816">
        <ele>475.03</ele>
        <time>2020-06-14T10:32:25Z</time>
      </trkpt>
      <trkpt lat="43.40816" lon="5.44831">
        <ele>475.99</ele>
        <time>2020-06-14T10:32:39Z</time>
      </trkpt>
      <trkpt lat="43.40815" lon="5.4484">
        <ele>476.95</ele>
        <time>2020-06-14T10:32:53Z</time>
      </trkpt>
      <trkpt lat="43.40812" lon="5.44851">
        <ele>477.43</ele>
        <time>2020-06-14T10:33:05Z</time>
      </trkpt>
      <trkpt lat="43.40811" lon="5.44853">
        <ele>477.43</ele>
        <time>2020-06-14T10:33:07Z</time>
      </trkpt>
      <trkpt lat="43.40809" lon="5.44866">
        <ele>478.39</ele>
        <time>2020-06-14T10:33:21Z</time>
      </trkpt>
      <trkpt lat="43.4081" lon="5.44874">
        <ele>478.87</ele>
        <time>2020-06-14T10:33:34Z</time>
      </trkpt>
      <trkpt lat="43.40811" lon="5.44876">
        <ele>479.35</ele>
        <time>2020-06-14T10:33:53Z</time>
      </trkpt>
      <trkpt lat="43.4081" lon="5.44875">
        <ele>479.35</ele>
        <time>2020-06-14T10:34:22Z</time>
      </trkpt>
      <trkpt lat="43.40816" lon="5.44874">
        <ele>479.35</ele>
        <time>2020-06-14T10:34:55Z</time>
      </trkpt>
      <trkpt lat="43.40815" lon="5.44875">
        <ele>479.84</ele>
        <time>2020-06-14T10:35:12Z</time>
      </trkpt>
      <trkpt lat="43.40814" lon="5.44877">
        <ele>482.72</ele>
        <time>2020-06-14T10:35:54Z</time>
      </trkpt>
      <trkpt lat="43.40807" lon="5.44886">
        <ele>483.2</ele>
        <time>2020-06-14T10:36:05Z</time>
      </trkpt>
      <trkpt lat="43.40805" lon="5.44888">
        <ele>484.16</ele>
        <time>2020-06-14T10:36:08Z</time>
      </trkpt>
      <trkpt lat="43.40802" lon="5.44903">
        <ele>486.56</ele>
        <time>2020-06-14T10:36:21Z</time>
      </trkpt>
      <trkpt lat="43.40799" lon="5.44916">
        <ele>487.53</ele>
        <time>2020-06-14T10:36:34Z</time>
      </trkpt>
      <trkpt lat="43.40797" lon="5.44929">
        <ele>489.45</ele>
        <time>2020-06-14T10:36:47Z</time>
      </trkpt>
      <trkpt lat="43.40798" lon="5.4494">
        <ele>489.93</ele>
        <time>2020-06-14T10:36:58Z</time>
      </trkpt>
      <trkpt lat="43.40796" lon="5.44951">
        <ele>491.37</ele>
        <time>2020-06-14T10:37:10Z</time>
      </trkpt>
      <trkpt lat="43.40795" lon="5.44966">
        <ele>493.29</ele>
        <time>2020-06-14T10:37:24Z</time>
      </trkpt>
      <trkpt lat="43.40794" lon="5.44977">
        <ele>495.22</ele>
        <time>2020-06-14T10:37:36Z</time>
      </trkpt>
      <trkpt lat="43.40794" lon="5.44978">
        <ele>496.18</ele>
        <time>2020-06-14T10:37:42Z</time>
      </trkpt>
      <trkpt lat="43.40794" lon="5.44982">
        <ele>496.18</ele>
        <time>2020-06-14T10:37:57Z</time>
      </trkpt>
      <trkpt lat="43.40791" lon="5.44986">
        <ele>497.14</ele>
        <time>2020-06-14T10:38:19Z</time>
      </trkpt>
      <trkpt lat="43.40786" lon="5.44996">
        <ele>497.62</ele>
        <time>2020-06-14T10:38:31Z</time>
      </trkpt>
      <trkpt lat="43.40782" lon="5.45006">
        <ele>498.58</ele>
        <time>2020-06-14T10:38:45Z</time>
      </trkpt>
      <trkpt lat="43.40789" lon="5.45015">
        <ele>500.02</ele>
        <time>2020-06-14T10:38:57Z</time>
      </trkpt>
      <trkpt lat="43.40789" lon="5.45017">
        <ele>500.5</ele>
        <time>2020-06-14T10:39:11Z</time>
      </trkpt>
      <trkpt lat="43.40787" lon="5.45016">
        <ele>500.5</ele>
        <time>2020-06-14T10:39:42Z</time>
      </trkpt>
      <trkpt lat="43.40786" lon="5.45011">
        <ele>499.54</ele>
        <time>2020-06-14T10:39:47Z</time>
      </trkpt>
      <trkpt lat="43.40785" lon="5.45007">
        <ele>498.58</ele>
        <time>2020-06-14T10:39:50Z</time>
      </trkpt>
      <trkpt lat="43.40774" lon="5.45015">
        <ele>497.14</ele>
        <time>2020-06-14T10:39:59Z</time>
      </trkpt>
      <trkpt lat="43.40763" lon="5.45028">
        <ele>499.06</ele>
        <time>2020-06-14T10:40:10Z</time>
      </trkpt>
      <trkpt lat="43.40757" lon="5.45033">
        <ele>500.5</ele>
        <time>2020-06-14T10:40:15Z</time>
      </trkpt>
      <trkpt lat="43.40747" lon="5.45045">
        <ele>503.39</ele>
        <time>2020-06-14T10:40:25Z</time>
      </trkpt>
      <trkpt lat="43.40738" lon="5.45059">
        <ele>504.35</ele>
        <time>2020-06-14T10:40:36Z</time>
      </trkpt>
      <trkpt lat="43.40737" lon="5.45061">
        <ele>502.91</ele>
        <time>2020-06-14T10:40:52Z</time>
      </trkpt>
      <trkpt lat="43.40734" lon="5.45061">
        <ele>502.91</ele>
        <time>2020-06-14T10:41:00Z</time>
      </trkpt>
      <trkpt lat="43.40734" lon="5.45065">
        <ele>501.95</ele>
        <time>2020-06-14T10:41:15Z</time>
      </trkpt>
      <trkpt lat="43.40734" lon="5.45064">
        <ele>501.95</ele>
        <time>2020-06-14T10:41:40Z</time>
      </trkpt>
      <trkpt lat="43.40736" lon="5.45066">
        <ele>502.43</ele>
        <time>2020-06-14T10:42:00Z</time>
      </trkpt>
      <trkpt lat="43.40734" lon="5.45064">
        <ele>502.91</ele>
        <time>2020-06-14T10:42:24Z</time>
      </trkpt>
      <trkpt lat="43.40733" lon="5.45063">
        <ele>501.46</ele>
        <time>2020-06-14T10:42:38Z</time>
      </trkpt>
      <trkpt lat="43.40733" lon="5.45063">
        <ele>501.46</ele>
        <time>2020-06-14T10:42:59Z</time>
      </trkpt>
      <trkpt lat="43.40731" lon="5.45061">
        <ele>502.43</ele>
        <time>2020-06-14T10:43:29Z</time>
      </trkpt>
      <trkpt lat="43.40732" lon="5.45062">
        <ele>502.43</ele>
        <time>2020-06-14T10:43:51Z</time>
      </trkpt>
      <trkpt lat="43.40732" lon="5.45063">
        <ele>502.43</ele>
        <time>2020-06-14T10:44:20Z</time>
      </trkpt>
      <trkpt lat="43.40734" lon="5.45065">
        <ele>503.39</ele>
        <time>2020-06-14T10:44:41Z</time>
      </trkpt>
      <trkpt lat="43.40735" lon="5.45064">
        <ele>502.91</ele>
        <time>2020-06-14T10:44:57Z</time>
      </trkpt>
      <trkpt lat="43.40733" lon="5.45064">
        <ele>504.35</ele>
        <time>2020-06-14T10:45:15Z</time>
      </trkpt>
      <trkpt lat="43.40733" lon="5.45064">
        <ele>504.83</ele>
        <time>2020-06-14T10:45:43Z</time>
      </trkpt>
      <trkpt lat="43.40734" lon="5.45066">
        <ele>504.35</ele>
        <time>2020-06-14T10:46:10Z</time>
      </trkpt>
      <trkpt lat="43.40733" lon="5.45064">
        <ele>504.35</ele>
        <time>2020-06-14T10:46:39Z</time>
      </trkpt>
      <trkpt lat="43.40734" lon="5.45064">
        <ele>503.87</ele>
        <time>2020-06-14T10:47:07Z</time>
      </trkpt>
      <trkpt lat="43.40733" lon="5.45064">
        <ele>503.87</ele>
        <time>2020-06-14T10:47:27Z</time>
      </trkpt>
      <trkpt lat="43.40733" lon="5.45064">
        <ele>503.39</ele>
        <time>2020-06-14T10:47:48Z</time>
      </trkpt>
      <trkpt lat="43.40734" lon="5.45065">
        <ele>504.35</ele>
        <time>2020-06-14T10:48:09Z</time>
      </trkpt>
      <trkpt lat="43.40734" lon="5.45063">
        <ele>503.87</ele>
        <time>2020-06-14T10:48:30Z</time>
      </trkpt>
      <trkpt lat="43.40732" lon="5.45062">
        <ele>504.35</ele>
        <time>2020-06-14T10:48:55Z</time>
      </trkpt>
      <trkpt lat="43.40733" lon="5.45065">
        <ele>503.39</ele>
        <time>2020-06-14T10:49:18Z</time>
      </trkpt>
      <trkpt lat="43.40734" lon="5.45065">
        <ele>501.95</ele>
        <time>2020-06-14T10:49:54Z</time>
      </trkpt>
      <trkpt lat="43.40733" lon="5.45064">
        <ele>502.43</ele>
        <time>2020-06-14T10:50:12Z</time>
      </trkpt>
      <trkpt lat="43.40733" lon="5.45065">
        <ele>501.95</ele>
        <time>2020-06-14T10:50:36Z</time>
      </trkpt>
      <trkpt lat="43.40731" lon="5.45064">
        <ele>502.91</ele>
        <time>2020-06-14T10:51:03Z</time>
      </trkpt>
      <trkpt lat="43.40726" lon="5.4507">
        <ele>504.83</ele>
        <time>2020-06-14T10:51:11Z</time>
      </trkpt>
      <trkpt lat="43.40716" lon="5.45076">
        <ele>505.79</ele>
        <time>2020-06-14T10:51:23Z</time>
      </trkpt>
      <trkpt lat="43.40708" lon="5.45083">
        <ele>507.71</ele>
        <time>2020-06-14T10:51:34Z</time>
      </trkpt>
      <trkpt lat="43.40698" lon="5.45091">
        <ele>507.71</ele>
        <time>2020-06-14T10:51:47Z</time>
      </trkpt>
      <trkpt lat="43.40693" lon="5.45097">
        <ele>508.19</ele>
        <time>2020-06-14T10:51:58Z</time>
      </trkpt>
      <trkpt lat="43.40693" lon="5.45097">
        <ele>508.19</ele>
        <time>2020-06-14T10:52:10Z</time>
      </trkpt>
      <trkpt lat="43.40693" lon="5.451">
        <ele>507.23</ele>
        <time>2020-06-14T10:52:24Z</time>
      </trkpt>
      <trkpt lat="43.4069" lon="5.45101">
        <ele>508.19</ele>
        <time>2020-06-14T10:52:27Z</time>
      </trkpt>
      <trkpt lat="43.40688" lon="5.45103">
        <ele>508.67</ele>
        <time>2020-06-14T10:52:30Z</time>
      </trkpt>
      <trkpt lat="43.40677" lon="5.45109">
        <ele>509.16</ele>
        <time>2020-06-14T10:52:43Z</time>
      </trkpt>
      <trkpt lat="43.40671" lon="5.45113">
        <ele>510.12</ele>
        <time>2020-06-14T10:52:50Z</time>
      </trkpt>
      <trkpt lat="43.40669" lon="5.45113">
        <ele>510.12</ele>
        <time>2020-06-14T10:52:53Z</time>
      </trkpt>
      <trkpt lat="43.40667" lon="5.45119">
        <ele>509.64</ele>
        <time>2020-06-14T10:53:07Z</time>
      </trkpt>
      <trkpt lat="43.40666" lon="5.45118">
        <ele>509.16</ele>
        <time>2020-06-14T10:53:12Z</time>
      </trkpt>
      <trkpt lat="43.40663" lon="5.45118">
        <ele>509.16</ele>
        <time>2020-06-14T10:53:15Z</time>
      </trkpt>
      <trkpt lat="43.40653" lon="5.45122">
        <ele>510.12</ele>
        <time>2020-06-14T10:53:27Z</time>
      </trkpt>
      <trkpt lat="43.40645" lon="5.45124">
        <ele>511.56</ele>
        <time>2020-06-14T10:53:36Z</time>
      </trkpt>
      <trkpt lat="43.40635" lon="5.45128">
        <ele>512.52</ele>
        <time>2020-06-14T10:53:49Z</time>
      </trkpt>
      <trkpt lat="43.40635" lon="5.45129">
        <ele>511.08</ele>
        <time>2020-06-14T10:54:11Z</time>
      </trkpt>
      <trkpt lat="43.40635" lon="5.4513">
        <ele>511.56</ele>
        <time>2020-06-14T10:54:27Z</time>
      </trkpt>
      <trkpt lat="43.40635" lon="5.45131">
        <ele>511.56</ele>
        <time>2020-06-14T10:54:28Z</time>
      </trkpt>
      <trkpt lat="43.40634" lon="5.45133">
        <ele>511.08</ele>
        <time>2020-06-14T10:54:30Z</time>
      </trkpt>
      <trkpt lat="43.40632" lon="5.45142">
        <ele>511.56</ele>
        <time>2020-06-14T10:54:38Z</time>
      </trkpt>
      <trkpt lat="43.40631" lon="5.45147">
        <ele>512.04</ele>
        <time>2020-06-14T10:54:42Z</time>
      </trkpt>
      <trkpt lat="43.4063" lon="5.45164">
        <ele>512.04</ele>
        <time>2020-06-14T10:54:56Z</time>
      </trkpt>
      <trkpt lat="43.40631" lon="5.45176">
        <ele>513</ele>
        <time>2020-06-14T10:55:07Z</time>
      </trkpt>
      <trkpt lat="43.40631" lon="5.45187">
        <ele>513.48</ele>
        <time>2020-06-14T10:55:16Z</time>
      </trkpt>
      <trkpt lat="43.40629" lon="5.45197">
        <ele>514.92</ele>
        <time>2020-06-14T10:55:26Z</time>
      </trkpt>
      <trkpt lat="43.40626" lon="5.45212">
        <ele>515.88</ele>
        <time>2020-06-14T10:55:38Z</time>
      </trkpt>
      <trkpt lat="43.40622" lon="5.45225">
        <ele>516.85</ele>
        <time>2020-06-14T10:55:50Z</time>
      </trkpt>
      <trkpt lat="43.40619" lon="5.45233">
        <ele>517.81</ele>
        <time>2020-06-14T10:56:01Z</time>
      </trkpt>
      <trkpt lat="43.40616" lon="5.45235">
        <ele>518.77</ele>
        <time>2020-06-14T10:56:11Z</time>
      </trkpt>
      <trkpt lat="43.40614" lon="5.45241">
        <ele>518.77</ele>
        <time>2020-06-14T10:56:28Z</time>
      </trkpt>
      <trkpt lat="43.40609" lon="5.45254">
        <ele>519.25</ele>
        <time>2020-06-14T10:56:41Z</time>
      </trkpt>
      <trkpt lat="43.40606" lon="5.45268">
        <ele>518.29</ele>
        <time>2020-06-14T10:56:52Z</time>
      </trkpt>
      <trkpt lat="43.40602" lon="5.45282">
        <ele>518.77</ele>
        <time>2020-06-14T10:57:04Z</time>
      </trkpt>
      <trkpt lat="43.40601" lon="5.45288">
        <ele>519.73</ele>
        <time>2020-06-14T10:57:09Z</time>
      </trkpt>
      <trkpt lat="43.40601" lon="5.45301">
        <ele>520.69</ele>
        <time>2020-06-14T10:57:21Z</time>
      </trkpt>
      <trkpt lat="43.40604" lon="5.45307">
        <ele>521.65</ele>
        <time>2020-06-14T10:57:32Z</time>
      </trkpt>
      <trkpt lat="43.40605" lon="5.4531">
        <ele>521.65</ele>
        <time>2020-06-14T10:57:42Z</time>
      </trkpt>
      <trkpt lat="43.40611" lon="5.45319">
        <ele>521.65</ele>
        <time>2020-06-14T10:57:53Z</time>
      </trkpt>
      <trkpt lat="43.40611" lon="5.45319">
        <ele>521.65</ele>
        <time>2020-06-14T10:58:06Z</time>
      </trkpt>
      <trkpt lat="43.40614" lon="5.45321">
        <ele>521.65</ele>
        <time>2020-06-14T10:58:09Z</time>
      </trkpt>
      <trkpt lat="43.40615" lon="5.45324">
        <ele>521.17</ele>
        <time>2020-06-14T10:58:11Z</time>
      </trkpt>
      <trkpt lat="43.40622" lon="5.45334">
        <ele>521.65</ele>
        <time>2020-06-14T10:58:22Z</time>
      </trkpt>
      <trkpt lat="43.40628" lon="5.45341">
        <ele>522.13</ele>
        <time>2020-06-14T10:58:35Z</time>
      </trkpt>
      <trkpt lat="43.40628" lon="5.45341">
        <ele>522.13</ele>
        <time>2020-06-14T10:58:36Z</time>
      </trkpt>
      <trkpt lat="43.40635" lon="5.45354">
        <ele>522.61</ele>
        <time>2020-06-14T10:58:51Z</time>
      </trkpt>
      <trkpt lat="43.40641" lon="5.45367">
        <ele>524.54</ele>
        <time>2020-06-14T10:59:05Z</time>
      </trkpt>
      <trkpt lat="43.40645" lon="5.45379">
        <ele>525.5</ele>
        <time>2020-06-14T10:59:17Z</time>
      </trkpt>
      <trkpt lat="43.40649" lon="5.45393">
        <ele>526.46</ele>
        <time>2020-06-14T10:59:29Z</time>
      </trkpt>
      <trkpt lat="43.40651" lon="5.45398">
        <ele>526.94</ele>
        <time>2020-06-14T10:59:34Z</time>
      </trkpt>
      <trkpt lat="43.40653" lon="5.45403">
        <ele>526.94</ele>
        <time>2020-06-14T10:59:38Z</time>
      </trkpt>
      <trkpt lat="43.40658" lon="5.45417">
        <ele>528.38</ele>
        <time>2020-06-14T10:59:51Z</time>
      </trkpt>
      <trkpt lat="43.40661" lon="5.45431">
        <ele>529.34</ele>
        <time>2020-06-14T11:00:04Z</time>
      </trkpt>
      <trkpt lat="43.40664" lon="5.45443">
        <ele>529.82</ele>
        <time>2020-06-14T11:00:16Z</time>
      </trkpt>
      <trkpt lat="43.40666" lon="5.45455">
        <ele>529.34</ele>
        <time>2020-06-14T11:00:28Z</time>
      </trkpt>
      <trkpt lat="43.40667" lon="5.45471">
        <ele>531.27</ele>
        <time>2020-06-14T11:00:42Z</time>
      </trkpt>
      <trkpt lat="43.40672" lon="5.45486">
        <ele>531.75</ele>
        <time>2020-06-14T11:00:55Z</time>
      </trkpt>
      <trkpt lat="43.40675" lon="5.45499">
        <ele>532.71</ele>
        <time>2020-06-14T11:01:08Z</time>
      </trkpt>
      <trkpt lat="43.40676" lon="5.45514">
        <ele>533.19</ele>
        <time>2020-06-14T11:01:21Z</time>
      </trkpt>
      <trkpt lat="43.40675" lon="5.45528">
        <ele>534.15</ele>
        <time>2020-06-14T11:01:35Z</time>
      </trkpt>
      <trkpt lat="43.40673" lon="5.45543">
        <ele>533.67</ele>
        <time>2020-06-14T11:01:49Z</time>
      </trkpt>
      <trkpt lat="43.40675" lon="5.45546">
        <ele>533.67</ele>
        <time>2020-06-14T11:02:03Z</time>
      </trkpt>
      <trkpt lat="43.40674" lon="5.45545">
        <ele>534.15</ele>
        <time>2020-06-14T11:02:29Z</time>
      </trkpt>
      <trkpt lat="43.40673" lon="5.45549">
        <ele>534.15</ele>
        <time>2020-06-14T11:02:32Z</time>
      </trkpt>
      <trkpt lat="43.40668" lon="5.45561">
        <ele>535.59</ele>
        <time>2020-06-14T11:02:44Z</time>
      </trkpt>
      <trkpt lat="43.40662" lon="5.45572">
        <ele>537.03</ele>
        <time>2020-06-14T11:02:56Z</time>
      </trkpt>
      <trkpt lat="43.40662" lon="5.45575">
        <ele>536.55</ele>
        <time>2020-06-14T11:03:09Z</time>
      </trkpt>
      <trkpt lat="43.40661" lon="5.45579">
        <ele>536.55</ele>
        <time>2020-06-14T11:03:17Z</time>
      </trkpt>
      <trkpt lat="43.40652" lon="5.45587">
        <ele>537.99</ele>
        <time>2020-06-14T11:03:29Z</time>
      </trkpt>
      <trkpt lat="43.40643" lon="5.45594">
        <ele>539.92</ele>
        <time>2020-06-14T11:03:41Z</time>
      </trkpt>
      <trkpt lat="43.40641" lon="5.45597">
        <ele>540.4</ele>
        <time>2020-06-14T11:03:45Z</time>
      </trkpt>
      <trkpt lat="43.4063" lon="5.45603">
        <ele>540.88</ele>
        <time>2020-06-14T11:03:58Z</time>
      </trkpt>
      <trkpt lat="43.4062" lon="5.45607">
        <ele>541.36</ele>
        <time>2020-06-14T11:04:11Z</time>
      </trkpt>
      <trkpt lat="43.40609" lon="5.4561">
        <ele>543.28</ele>
        <time>2020-06-14T11:04:24Z</time>
      </trkpt>
      <trkpt lat="43.40601" lon="5.45616">
        <ele>543.76</ele>
        <time>2020-06-14T11:04:36Z</time>
      </trkpt>
      <trkpt lat="43.40597" lon="5.45629">
        <ele>544.24</ele>
        <time>2020-06-14T11:04:50Z</time>
      </trkpt>
      <trkpt lat="43.40597" lon="5.45646">
        <ele>543.76</ele>
        <time>2020-06-14T11:05:07Z</time>
      </trkpt>
      <trkpt lat="43.40597" lon="5.45658">
        <ele>545.69</ele>
        <time>2020-06-14T11:05:19Z</time>
      </trkpt>
      <trkpt lat="43.40599" lon="5.45673">
        <ele>546.65</ele>
        <time>2020-06-14T11:05:32Z</time>
      </trkpt>
      <trkpt lat="43.406" lon="5.4569">
        <ele>547.13</ele>
        <time>2020-06-14T11:05:45Z</time>
      </trkpt>
      <trkpt lat="43.40599" lon="5.45693">
        <ele>549.05</ele>
        <time>2020-06-14T11:06:04Z</time>
      </trkpt>
      <trkpt lat="43.40599" lon="5.45694">
        <ele>548.57</ele>
        <time>2020-06-14T11:06:11Z</time>
      </trkpt>
      <trkpt lat="43.40598" lon="5.45697">
        <ele>549.05</ele>
        <time>2020-06-14T11:06:15Z</time>
      </trkpt>
      <trkpt lat="43.40596" lon="5.45712">
        <ele>550.97</ele>
        <time>2020-06-14T11:06:28Z</time>
      </trkpt>
      <trkpt lat="43.40593" lon="5.45726">
        <ele>551.45</ele>
        <time>2020-06-14T11:06:41Z</time>
      </trkpt>
      <trkpt lat="43.40593" lon="5.4573">
        <ele>551.93</ele>
        <time>2020-06-14T11:06:44Z</time>
      </trkpt>
      <trkpt lat="43.40592" lon="5.45736">
        <ele>551.45</ele>
        <time>2020-06-14T11:06:49Z</time>
      </trkpt>
      <trkpt lat="43.40591" lon="5.45741">
        <ele>552.41</ele>
        <time>2020-06-14T11:06:53Z</time>
      </trkpt>
      <trkpt lat="43.40589" lon="5.45758">
        <ele>553.38</ele>
        <time>2020-06-14T11:07:06Z</time>
      </trkpt>
      <trkpt lat="43.40589" lon="5.45762">
        <ele>554.34</ele>
        <time>2020-06-14T11:07:10Z</time>
      </trkpt>
      <trkpt lat="43.40582" lon="5.45774">
        <ele>553.86</ele>
        <time>2020-06-14T11:07:23Z</time>
      </trkpt>
      <trkpt lat="43.40581" lon="5.45775">
        <ele>553.86</ele>
        <time>2020-06-14T11:07:24Z</time>
      </trkpt>
      <trkpt lat="43.40573" lon="5.45784">
        <ele>554.82</ele>
        <time>2020-06-14T11:07:36Z</time>
      </trkpt>
      <trkpt lat="43.40568" lon="5.45792">
        <ele>555.3</ele>
        <time>2020-06-14T11:07:48Z</time>
      </trkpt>
      <trkpt lat="43.40566" lon="5.45797">
        <ele>554.82</ele>
        <time>2020-06-14T11:07:53Z</time>
      </trkpt>
      <trkpt lat="43.40567" lon="5.45804">
        <ele>554.34</ele>
        <time>2020-06-14T11:07:58Z</time>
      </trkpt>
      <trkpt lat="43.40569" lon="5.45808">
        <ele>555.3</ele>
        <time>2020-06-14T11:08:13Z</time>
      </trkpt>
      <trkpt lat="43.40569" lon="5.45813">
        <ele>554.82</ele>
        <time>2020-06-14T11:08:27Z</time>
      </trkpt>
      <trkpt lat="43.4057" lon="5.45814">
        <ele>554.82</ele>
        <time>2020-06-14T11:08:32Z</time>
      </trkpt>
      <trkpt lat="43.40574" lon="5.45826">
        <ele>554.82</ele>
        <time>2020-06-14T11:08:43Z</time>
      </trkpt>
      <trkpt lat="43.40574" lon="5.45824">
        <ele>554.82</ele>
        <time>2020-06-14T11:09:07Z</time>
      </trkpt>
      <trkpt lat="43.40576" lon="5.45825">
        <ele>556.74</ele>
        <time>2020-06-14T11:09:24Z</time>
      </trkpt>
      <trkpt lat="43.40576" lon="5.45828">
        <ele>556.26</ele>
        <time>2020-06-14T11:09:31Z</time>
      </trkpt>
      <trkpt lat="43.40574" lon="5.4584">
        <ele>556.74</ele>
        <time>2020-06-14T11:09:41Z</time>
      </trkpt>
      <trkpt lat="43.40573" lon="5.45844">
        <ele>556.74</ele>
        <time>2020-06-14T11:09:44Z</time>
      </trkpt>
      <trkpt lat="43.40567" lon="5.45854">
        <ele>558.66</ele>
        <time>2020-06-14T11:09:56Z</time>
      </trkpt>
      <trkpt lat="43.40562" lon="5.45861">
        <ele>559.62</ele>
        <time>2020-06-14T11:10:07Z</time>
      </trkpt>
      <trkpt lat="43.40553" lon="5.45868">
        <ele>560.59</ele>
        <time>2020-06-14T11:10:20Z</time>
      </trkpt>
      <trkpt lat="43.40543" lon="5.45874">
        <ele>561.55</ele>
        <time>2020-06-14T11:10:33Z</time>
      </trkpt>
      <trkpt lat="43.40541" lon="5.45876">
        <ele>562.03</ele>
        <time>2020-06-14T11:10:35Z</time>
      </trkpt>
      <trkpt lat="43.40536" lon="5.45879">
        <ele>562.51</ele>
        <time>2020-06-14T11:10:41Z</time>
      </trkpt>
      <trkpt lat="43.40534" lon="5.4589">
        <ele>562.51</ele>
        <time>2020-06-14T11:10:51Z</time>
      </trkpt>
      <trkpt lat="43.40536" lon="5.459">
        <ele>562.99</ele>
        <time>2020-06-14T11:11:02Z</time>
      </trkpt>
      <trkpt lat="43.40537" lon="5.45901">
        <ele>562.51</ele>
        <time>2020-06-14T11:11:25Z</time>
      </trkpt>
      <trkpt lat="43.40537" lon="5.45902">
        <ele>561.55</ele>
        <time>2020-06-14T11:11:55Z</time>
      </trkpt>
      <trkpt lat="43.4054" lon="5.45916">
        <ele>562.03</ele>
        <time>2020-06-14T11:12:07Z</time>
      </trkpt>
      <trkpt lat="43.4054" lon="5.45922">
        <ele>562.03</ele>
        <time>2020-06-14T11:12:12Z</time>
      </trkpt>
      <trkpt lat="43.4054" lon="5.45932">
        <ele>562.51</ele>
        <time>2020-06-14T11:12:22Z</time>
      </trkpt>
      <trkpt lat="43.40538" lon="5.45938">
        <ele>562.51</ele>
        <time>2020-06-14T11:12:28Z</time>
      </trkpt>
      <trkpt lat="43.40537" lon="5.45943">
        <ele>563.95</ele>
        <time>2020-06-14T11:12:33Z</time>
      </trkpt>
      <trkpt lat="43.40539" lon="5.45951">
        <ele>564.43</ele>
        <time>2020-06-14T11:12:41Z</time>
      </trkpt>
      <trkpt lat="43.40545" lon="5.45952">
        <ele>566.35</ele>
        <time>2020-06-14T11:12:49Z</time>
      </trkpt>
      <trkpt lat="43.40552" lon="5.45938">
        <ele>567.8</ele>
        <time>2020-06-14T11:13:02Z</time>
      </trkpt>
      <trkpt lat="43.40553" lon="5.45924">
        <ele>569.24</ele>
        <time>2020-06-14T11:13:14Z</time>
      </trkpt>
      <trkpt lat="43.40553" lon="5.4592">
        <ele>568.76</ele>
        <time>2020-06-14T11:13:18Z</time>
      </trkpt>
      <trkpt lat="43.40554" lon="5.45906">
        <ele>568.76</ele>
        <time>2020-06-14T11:13:31Z</time>
      </trkpt>
      <trkpt lat="43.4056" lon="5.45897">
        <ele>569.72</ele>
        <time>2020-06-14T11:13:44Z</time>
      </trkpt>
      <trkpt lat="43.40563" lon="5.45895">
        <ele>570.68</ele>
        <time>2020-06-14T11:13:48Z</time>
      </trkpt>
      <trkpt lat="43.40565" lon="5.45891">
        <ele>571.64</ele>
        <time>2020-06-14T11:14:03Z</time>
      </trkpt>
      <trkpt lat="43.40567" lon="5.45892">
        <ele>569.72</ele>
        <time>2020-06-14T11:14:27Z</time>
      </trkpt>
      <trkpt lat="43.40567" lon="5.45891">
        <ele>572.12</ele>
        <time>2020-06-14T11:14:51Z</time>
      </trkpt>
      <trkpt lat="43.40571" lon="5.45887">
        <ele>571.64</ele>
        <time>2020-06-14T11:15:04Z</time>
      </trkpt>
      <trkpt lat="43.40574" lon="5.45887">
        <ele>572.12</ele>
        <time>2020-06-14T11:15:07Z</time>
      </trkpt>
      <trkpt lat="43.4058" lon="5.45879">
        <ele>573.08</ele>
        <time>2020-06-14T11:15:18Z</time>
      </trkpt>
      <trkpt lat="43.40586" lon="5.45868">
        <ele>574.04</ele>
        <time>2020-06-14T11:15:29Z</time>
      </trkpt>
      <trkpt lat="43.40594" lon="5.45858">
        <ele>575.01</ele>
        <time>2020-06-14T11:15:41Z</time>
      </trkpt>
      <trkpt lat="43.40601" lon="5.45844">
        <ele>575.01</ele>
        <time>2020-06-14T11:15:54Z</time>
      </trkpt>
      <trkpt lat="43.40603" lon="5.4583">
        <ele>575.01</ele>
        <time>2020-06-14T11:16:05Z</time>
      </trkpt>
      <trkpt lat="43.40607" lon="5.45818">
        <ele>574.04</ele>
        <time>2020-06-14T11:16:17Z</time>
      </trkpt>
      <trkpt lat="43.40608" lon="5.45816">
        <ele>573.56</ele>
        <time>2020-06-14T11:16:20Z</time>
      </trkpt>
      <trkpt lat="43.40614" lon="5.45806">
        <ele>576.45</ele>
        <time>2020-06-14T11:16:34Z</time>
      </trkpt>
      <trkpt lat="43.40622" lon="5.45796">
        <ele>577.89</ele>
        <time>2020-06-14T11:16:49Z</time>
      </trkpt>
      <trkpt lat="43.40624" lon="5.45794">
        <ele>578.37</ele>
        <time>2020-06-14T11:16:52Z</time>
      </trkpt>
      <trkpt lat="43.40627" lon="5.45791">
        <ele>579.33</ele>
        <time>2020-06-14T11:16:59Z</time>
      </trkpt>
      <trkpt lat="43.4063" lon="5.45786">
        <ele>579.81</ele>
        <time>2020-06-14T11:17:04Z</time>
      </trkpt>
      <trkpt lat="43.40634" lon="5.45779">
        <ele>580.29</ele>
        <time>2020-06-14T11:17:12Z</time>
      </trkpt>
      <trkpt lat="43.40638" lon="5.45767">
        <ele>581.25</ele>
        <time>2020-06-14T11:17:24Z</time>
      </trkpt>
      <trkpt lat="43.4064" lon="5.45751">
        <ele>582.22</ele>
        <time>2020-06-14T11:17:37Z</time>
      </trkpt>
      <trkpt lat="43.40641" lon="5.45744">
        <ele>581.73</ele>
        <time>2020-06-14T11:17:42Z</time>
      </trkpt>
      <trkpt lat="43.40641" lon="5.45739">
        <ele>581.25</ele>
        <time>2020-06-14T11:17:46Z</time>
      </trkpt>
      <trkpt lat="43.40643" lon="5.45736">
        <ele>581.25</ele>
        <time>2020-06-14T11:17:50Z</time>
      </trkpt>
      <trkpt lat="43.40644" lon="5.45732">
        <ele>582.7</ele>
        <time>2020-06-14T11:18:00Z</time>
      </trkpt>
      <trkpt lat="43.40646" lon="5.4573">
        <ele>582.7</ele>
        <time>2020-06-14T11:18:03Z</time>
      </trkpt>
      <trkpt lat="43.40651" lon="5.45716">
        <ele>583.66</ele>
        <time>2020-06-14T11:18:16Z</time>
      </trkpt>
      <trkpt lat="43.40656" lon="5.45702">
        <ele>583.18</ele>
        <time>2020-06-14T11:18:28Z</time>
      </trkpt>
      <trkpt lat="43.40664" lon="5.4569">
        <ele>583.66</ele>
        <time>2020-06-14T11:18:41Z</time>
      </trkpt>
      <trkpt lat="43.40669" lon="5.45685">
        <ele>583.18</ele>
        <time>2020-06-14T11:18:47Z</time>
      </trkpt>
      <trkpt lat="43.40678" lon="5.45678">
        <ele>584.62</ele>
        <time>2020-06-14T11:18:59Z</time>
      </trkpt>
      <trkpt lat="43.40684" lon="5.45672">
        <ele>585.58</ele>
        <time>2020-06-14T11:19:08Z</time>
      </trkpt>
      <trkpt lat="43.40686" lon="5.45669">
        <ele>586.06</ele>
        <time>2020-06-14T11:19:12Z</time>
      </trkpt>
      <trkpt lat="43.40695" lon="5.4566">
        <ele>587.02</ele>
        <time>2020-06-14T11:19:26Z</time>
      </trkpt>
      <trkpt lat="43.407" lon="5.45655">
        <ele>587.98</ele>
        <time>2020-06-14T11:19:34Z</time>
      </trkpt>
      <trkpt lat="43.40712" lon="5.45646">
        <ele>587.98</ele>
        <time>2020-06-14T11:19:48Z</time>
      </trkpt>
      <trkpt lat="43.4072" lon="5.45636">
        <ele>588.46</ele>
        <time>2020-06-14T11:20:00Z</time>
      </trkpt>
      <trkpt lat="43.40729" lon="5.45627">
        <ele>589.43</ele>
        <time>2020-06-14T11:20:12Z</time>
      </trkpt>
      <trkpt lat="43.40736" lon="5.45614">
        <ele>590.39</ele>
        <time>2020-06-14T11:20:25Z</time>
      </trkpt>
      <trkpt lat="43.40743" lon="5.45598">
        <ele>589.91</ele>
        <time>2020-06-14T11:20:40Z</time>
      </trkpt>
      <trkpt lat="43.40753" lon="5.45587">
        <ele>587.5</ele>
        <time>2020-06-14T11:20:54Z</time>
      </trkpt>
      <trkpt lat="43.4076" lon="5.45578">
        <ele>587.98</ele>
        <time>2020-06-14T11:21:05Z</time>
      </trkpt>
      <trkpt lat="43.40769" lon="5.4557">
        <ele>587.5</ele>
        <time>2020-06-14T11:21:18Z</time>
      </trkpt>
      <trkpt lat="43.40774" lon="5.45566">
        <ele>587.98</ele>
        <time>2020-06-14T11:21:30Z</time>
      </trkpt>
      <trkpt lat="43.40774" lon="5.45567">
        <ele>587.02</ele>
        <time>2020-06-14T11:21:55Z</time>
      </trkpt>
      <trkpt lat="43.40774" lon="5.45566">
        <ele>587.98</ele>
        <time>2020-06-14T11:22:12Z</time>
      </trkpt>
      <trkpt lat="43.40775" lon="5.45566">
        <ele>587.5</ele>
        <time>2020-06-14T11:22:34Z</time>
      </trkpt>
      <trkpt lat="43.40774" lon="5.45565">
        <ele>587.98</ele>
        <time>2020-06-14T11:22:58Z</time>
      </trkpt>
      <trkpt lat="43.40774" lon="5.45567">
        <ele>588.46</ele>
        <time>2020-06-14T11:23:14Z</time>
      </trkpt>
      <trkpt lat="43.40774" lon="5.45567">
        <ele>588.46</ele>
        <time>2020-06-14T11:23:20Z</time>
      </trkpt>
      <trkpt lat="43.40778" lon="5.45571">
        <ele>587.5</ele>
        <time>2020-06-14T11:23:35Z</time>
      </trkpt>
      <trkpt lat="43.40786" lon="5.4558">
        <ele>587.98</ele>
        <time>2020-06-14T11:23:47Z</time>
      </trkpt>
      <trkpt lat="43.40792" lon="5.45585">
        <ele>588.46</ele>
        <time>2020-06-14T11:23:57Z</time>
      </trkpt>
      <trkpt lat="43.40807" lon="5.45596">
        <ele>589.43</ele>
        <time>2020-06-14T11:24:10Z</time>
      </trkpt>
      <trkpt lat="43.40811" lon="5.45597">
        <ele>590.39</ele>
        <time>2020-06-14T11:24:16Z</time>
      </trkpt>
      <trkpt lat="43.40817" lon="5.45602">
        <ele>591.35</ele>
        <time>2020-06-14T11:24:27Z</time>
      </trkpt>
      <trkpt lat="43.40819" lon="5.456">
        <ele>590.87</ele>
        <time>2020-06-14T11:24:40Z</time>
      </trkpt>
      <trkpt lat="43.40819" lon="5.45601">
        <ele>590.39</ele>
        <time>2020-06-14T11:25:01Z</time>
      </trkpt>
      <trkpt lat="43.4082" lon="5.45601">
        <ele>590.39</ele>
        <time>2020-06-14T11:25:20Z</time>
      </trkpt>
      <trkpt lat="43.40819" lon="5.456">
        <ele>591.35</ele>
        <time>2020-06-14T11:25:38Z</time>
      </trkpt>
      <trkpt lat="43.40825" lon="5.45607">
        <ele>591.35</ele>
        <time>2020-06-14T11:25:54Z</time>
      </trkpt>
      <trkpt lat="43.40832" lon="5.45614">
        <ele>592.79</ele>
        <time>2020-06-14T11:26:08Z</time>
      </trkpt>
      <trkpt lat="43.4084" lon="5.45624">
        <ele>593.75</ele>
        <time>2020-06-14T11:26:22Z</time>
      </trkpt>
      <trkpt lat="43.40847" lon="5.45631">
        <ele>592.79</ele>
        <time>2020-06-14T11:26:33Z</time>
      </trkpt>
      <trkpt lat="43.4085" lon="5.45638">
        <ele>593.27</ele>
        <time>2020-06-14T11:26:40Z</time>
      </trkpt>
      <trkpt lat="43.40858" lon="5.45652">
        <ele>591.35</ele>
        <time>2020-06-14T11:26:54Z</time>
      </trkpt>
      <trkpt lat="43.40862" lon="5.45657">
        <ele>590.87</ele>
        <time>2020-06-14T11:27:06Z</time>
      </trkpt>
      <trkpt lat="43.40863" lon="5.45657">
        <ele>591.35</ele>
        <time>2020-06-14T11:27:34Z</time>
      </trkpt>
      <trkpt lat="43.40861" lon="5.45658">
        <ele>590.87</ele>
        <time>2020-06-14T11:27:49Z</time>
      </trkpt>
      <trkpt lat="43.40861" lon="5.45661">
        <ele>592.31</ele>
        <time>2020-06-14T11:28:09Z</time>
      </trkpt>
      <trkpt lat="43.4086" lon="5.45666">
        <ele>592.31</ele>
        <time>2020-06-14T11:28:16Z</time>
      </trkpt>
      <trkpt lat="43.40861" lon="5.45676">
        <ele>592.79</ele>
        <time>2020-06-14T11:28:29Z</time>
      </trkpt>
      <trkpt lat="43.40862" lon="5.45675">
        <ele>592.79</ele>
        <time>2020-06-14T11:28:43Z</time>
      </trkpt>
      <trkpt lat="43.40862" lon="5.45675">
        <ele>592.31</ele>
        <time>2020-06-14T11:28:57Z</time>
      </trkpt>
      <trkpt lat="43.40861" lon="5.45674">
        <ele>590.87</ele>
        <time>2020-06-14T11:29:27Z</time>
      </trkpt>
      <trkpt lat="43.4086" lon="5.45675">
        <ele>589.91</ele>
        <time>2020-06-14T11:29:46Z</time>
      </trkpt>
      <trkpt lat="43.40859" lon="5.4568">
        <ele>589.43</ele>
        <time>2020-06-14T11:30:01Z</time>
      </trkpt>
      <trkpt lat="43.40859" lon="5.45681">
        <ele>589.43</ele>
        <time>2020-06-14T11:30:02Z</time>
      </trkpt>
      <trkpt lat="43.40862" lon="5.45685">
        <ele>588.95</ele>
        <time>2020-06-14T11:30:18Z</time>
      </trkpt>
      <trkpt lat="43.4086" lon="5.45698">
        <ele>587.5</ele>
        <time>2020-06-14T11:30:30Z</time>
      </trkpt>
      <trkpt lat="43.40859" lon="5.45702">
        <ele>587.02</ele>
        <time>2020-06-14T11:30:34Z</time>
      </trkpt>
      <trkpt lat="43.40858" lon="5.45707">
        <ele>586.06</ele>
        <time>2020-06-14T11:30:38Z</time>
      </trkpt>
      <trkpt lat="43.40856" lon="5.45715">
        <ele>585.1</ele>
        <time>2020-06-14T11:30:45Z</time>
      </trkpt>
      <trkpt lat="43.40854" lon="5.45726">
        <ele>585.58</ele>
        <time>2020-06-14T11:30:53Z</time>
      </trkpt>
      <trkpt lat="43.4085" lon="5.4573">
        <ele>586.54</ele>
        <time>2020-06-14T11:31:05Z</time>
      </trkpt>
      <trkpt lat="43.40849" lon="5.45731">
        <ele>586.54</ele>
        <time>2020-06-14T11:31:06Z</time>
      </trkpt>
      <trkpt lat="43.40842" lon="5.45739">
        <ele>589.91</ele>
        <time>2020-06-14T11:31:17Z</time>
      </trkpt>
      <trkpt lat="43.40836" lon="5.45747">
        <ele>591.35</ele>
        <time>2020-06-14T11:31:30Z</time>
      </trkpt>
      <trkpt lat="43.40828" lon="5.45757">
        <ele>593.27</ele>
        <time>2020-06-14T11:31:52Z</time>
      </trkpt>
      <trkpt lat="43.40821" lon="5.45761">
        <ele>595.67</ele>
        <time>2020-06-14T11:32:03Z</time>
      </trkpt>
      <trkpt lat="43.40822" lon="5.45763">
        <ele>594.71</ele>
        <time>2020-06-14T11:32:23Z</time>
      </trkpt>
      <trkpt lat="43.40819" lon="5.45769">
        <ele>595.19</ele>
        <time>2020-06-14T11:32:34Z</time>
      </trkpt>
      <trkpt lat="43.40813" lon="5.45778">
        <ele>596.15</ele>
        <time>2020-06-14T11:32:44Z</time>
      </trkpt>
      <trkpt lat="43.4081" lon="5.45786">
        <ele>596.15</ele>
        <time>2020-06-14T11:32:52Z</time>
      </trkpt>
      <trkpt lat="43.40808" lon="5.4579">
        <ele>596.64</ele>
        <time>2020-06-14T11:32:55Z</time>
      </trkpt>
      <trkpt lat="43.40799" lon="5.45801">
        <ele>597.12</ele>
        <time>2020-06-14T11:33:08Z</time>
      </trkpt>
      <trkpt lat="43.40795" lon="5.4581">
        <ele>596.64</ele>
        <time>2020-06-14T11:33:19Z</time>
      </trkpt>
      <trkpt lat="43.40795" lon="5.45818">
        <ele>596.15</ele>
        <time>2020-06-14T11:33:39Z</time>
      </trkpt>
      <trkpt lat="43.40795" lon="5.45821">
        <ele>596.64</ele>
        <time>2020-06-14T11:33:54Z</time>
      </trkpt>
      <trkpt lat="43.40794" lon="5.45824">
        <ele>594.71</ele>
        <time>2020-06-14T11:34:11Z</time>
      </trkpt>
      <trkpt lat="43.40794" lon="5.45827">
        <ele>594.71</ele>
        <time>2020-06-14T11:34:14Z</time>
      </trkpt>
      <trkpt lat="43.40793" lon="5.45829">
        <ele>594.71</ele>
        <time>2020-06-14T11:34:17Z</time>
      </trkpt>
      <trkpt lat="43.40792" lon="5.45832">
        <ele>594.71</ele>
        <time>2020-06-14T11:34:19Z</time>
      </trkpt>
      <trkpt lat="43.40791" lon="5.45834">
        <ele>595.19</ele>
        <time>2020-06-14T11:34:21Z</time>
      </trkpt>
      <trkpt lat="43.40791" lon="5.45836">
        <ele>595.67</ele>
        <time>2020-06-14T11:34:23Z</time>
      </trkpt>
      <trkpt lat="43.40787" lon="5.45847">
        <ele>598.56</ele>
        <time>2020-06-14T11:34:33Z</time>
      </trkpt>
      <trkpt lat="43.40784" lon="5.45863">
        <ele>601.92</ele>
        <time>2020-06-14T11:34:46Z</time>
      </trkpt>
      <trkpt lat="43.40783" lon="5.45874">
        <ele>605.29</ele>
        <time>2020-06-14T11:34:57Z</time>
      </trkpt>
      <trkpt lat="43.40783" lon="5.45885">
        <ele>607.21</ele>
        <time>2020-06-14T11:35:08Z</time>
      </trkpt>
      <trkpt lat="43.40781" lon="5.45891">
        <ele>607.69</ele>
        <time>2020-06-14T11:35:13Z</time>
      </trkpt>
      <trkpt lat="43.40776" lon="5.45909">
        <ele>606.25</ele>
        <time>2020-06-14T11:35:25Z</time>
      </trkpt>
      <trkpt lat="43.40774" lon="5.45913">
        <ele>605.77</ele>
        <time>2020-06-14T11:35:28Z</time>
      </trkpt>
      <trkpt lat="43.40764" lon="5.45922">
        <ele>606.25</ele>
        <time>2020-06-14T11:35:41Z</time>
      </trkpt>
      <trkpt lat="43.40762" lon="5.45929">
        <ele>605.29</ele>
        <time>2020-06-14T11:35:53Z</time>
      </trkpt>
      <trkpt lat="43.40757" lon="5.45931">
        <ele>603.36</ele>
        <time>2020-06-14T11:36:11Z</time>
      </trkpt>
      <trkpt lat="43.40746" lon="5.45937">
        <ele>605.29</ele>
        <time>2020-06-14T11:36:26Z</time>
      </trkpt>
      <trkpt lat="43.40735" lon="5.45941">
        <ele>606.25</ele>
        <time>2020-06-14T11:36:39Z</time>
      </trkpt>
      <trkpt lat="43.40726" lon="5.45947">
        <ele>609.13</ele>
        <time>2020-06-14T11:36:51Z</time>
      </trkpt>
      <trkpt lat="43.40719" lon="5.45954">
        <ele>612.02</ele>
        <time>2020-06-14T11:37:04Z</time>
      </trkpt>
      <trkpt lat="43.40718" lon="5.45957">
        <ele>611.54</ele>
        <time>2020-06-14T11:37:07Z</time>
      </trkpt>
      <trkpt lat="43.40709" lon="5.45971">
        <ele>612.02</ele>
        <time>2020-06-14T11:37:20Z</time>
      </trkpt>
      <trkpt lat="43.40703" lon="5.45984">
        <ele>612.98</ele>
        <time>2020-06-14T11:37:33Z</time>
      </trkpt>
      <trkpt lat="43.40695" lon="5.45997">
        <ele>613.46</ele>
        <time>2020-06-14T11:37:47Z</time>
      </trkpt>
      <trkpt lat="43.40687" lon="5.46003">
        <ele>613.94</ele>
        <time>2020-06-14T11:37:58Z</time>
      </trkpt>
      <trkpt lat="43.40683" lon="5.46007">
        <ele>611.54</ele>
        <time>2020-06-14T11:38:14Z</time>
      </trkpt>
      <trkpt lat="43.40683" lon="5.4601">
        <ele>610.57</ele>
        <time>2020-06-14T11:38:29Z</time>
      </trkpt>
      <trkpt lat="43.40681" lon="5.46009">
        <ele>611.54</ele>
        <time>2020-06-14T11:38:41Z</time>
      </trkpt>
      <trkpt lat="43.40675" lon="5.46011">
        <ele>611.54</ele>
        <time>2020-06-14T11:38:49Z</time>
      </trkpt>
      <trkpt lat="43.40673" lon="5.46014">
        <ele>611.54</ele>
        <time>2020-06-14T11:38:51Z</time>
      </trkpt>
      <trkpt lat="43.4066" lon="5.46029">
        <ele>610.57</ele>
        <time>2020-06-14T11:39:09Z</time>
      </trkpt>
      <trkpt lat="43.40654" lon="5.46036">
        <ele>610.57</ele>
        <time>2020-06-14T11:39:17Z</time>
      </trkpt>
      <trkpt lat="43.40651" lon="5.46037">
        <ele>610.57</ele>
        <time>2020-06-14T11:39:20Z</time>
      </trkpt>
      <trkpt lat="43.40639" lon="5.46048">
        <ele>610.57</ele>
        <time>2020-06-14T11:39:34Z</time>
      </trkpt>
      <trkpt lat="43.40632" lon="5.46055">
        <ele>612.02</ele>
        <time>2020-06-14T11:39:45Z</time>
      </trkpt>
      <trkpt lat="43.4063" lon="5.46057">
        <ele>613.46</ele>
        <time>2020-06-14T11:39:58Z</time>
      </trkpt>
      <trkpt lat="43.40633" lon="5.46062">
        <ele>612.98</ele>
        <time>2020-06-14T11:40:14Z</time>
      </trkpt>
      <trkpt lat="43.40633" lon="5.46062">
        <ele>612.5</ele>
        <time>2020-06-14T11:40:39Z</time>
      </trkpt>
      <trkpt lat="43.40633" lon="5.4606">
        <ele>610.57</ele>
        <time>2020-06-14T11:41:12Z</time>
      </trkpt>
      <trkpt lat="43.40629" lon="5.46058">
        <ele>612.02</ele>
        <time>2020-06-14T11:41:24Z</time>
      </trkpt>
      <trkpt lat="43.40627" lon="5.46058">
        <ele>615.38</ele>
        <time>2020-06-14T11:41:38Z</time>
      </trkpt>
      <trkpt lat="43.40626" lon="5.46055">
        <ele>616.82</ele>
        <time>2020-06-14T11:41:49Z</time>
      </trkpt>
      <trkpt lat="43.40623" lon="5.46053">
        <ele>619.23</ele>
        <time>2020-06-14T11:42:04Z</time>
      </trkpt>
      <trkpt lat="43.40618" lon="5.46054">
        <ele>622.11</ele>
        <time>2020-06-14T11:42:20Z</time>
      </trkpt>
      <trkpt lat="43.40614" lon="5.46052">
        <ele>624.99</ele>
        <time>2020-06-14T11:42:34Z</time>
      </trkpt>
      <trkpt lat="43.4061" lon="5.46054">
        <ele>625.96</ele>
        <time>2020-06-14T11:42:49Z</time>
      </trkpt>
      <trkpt lat="43.40602" lon="5.46056">
        <ele>626.44</ele>
        <time>2020-06-14T11:43:04Z</time>
      </trkpt>
      <trkpt lat="43.406" lon="5.46055">
        <ele>626.92</ele>
        <time>2020-06-14T11:43:22Z</time>
      </trkpt>
      <trkpt lat="43.40597" lon="5.46054">
        <ele>626.92</ele>
        <time>2020-06-14T11:43:43Z</time>
      </trkpt>
      <trkpt lat="43.40597" lon="5.46055">
        <ele>624.99</ele>
        <time>2020-06-14T11:44:20Z</time>
      </trkpt>
      <trkpt lat="43.40598" lon="5.46058">
        <ele>623.55</ele>
        <time>2020-06-14T11:44:49Z</time>
      </trkpt>
      <trkpt lat="43.40598" lon="5.46057">
        <ele>622.59</ele>
        <time>2020-06-14T11:45:11Z</time>
      </trkpt>
      <trkpt lat="43.40599" lon="5.46058">
        <ele>621.15</ele>
        <time>2020-06-14T11:45:41Z</time>
      </trkpt>
      <trkpt lat="43.40596" lon="5.46063">
        <ele>621.63</ele>
        <time>2020-06-14T11:45:57Z</time>
      </trkpt>
      <trkpt lat="43.4059" lon="5.4607">
        <ele>624.51</ele>
        <time>2020-06-14T11:46:11Z</time>
      </trkpt>
      <trkpt lat="43.40586" lon="5.46075">
        <ele>627.4</ele>
        <time>2020-06-14T11:46:28Z</time>
      </trkpt>
      <trkpt lat="43.40583" lon="5.46082">
        <ele>629.32</ele>
        <time>2020-06-14T11:46:43Z</time>
      </trkpt>
      <trkpt lat="43.40582" lon="5.46087">
        <ele>629.32</ele>
        <time>2020-06-14T11:46:53Z</time>
      </trkpt>
      <trkpt lat="43.40581" lon="5.46091">
        <ele>628.84</ele>
        <time>2020-06-14T11:47:07Z</time>
      </trkpt>
      <trkpt lat="43.4058" lon="5.46093">
        <ele>628.36</ele>
        <time>2020-06-14T11:47:22Z</time>
      </trkpt>
      <trkpt lat="43.4058" lon="5.46097">
        <ele>623.55</ele>
        <time>2020-06-14T11:47:51Z</time>
      </trkpt>
      <trkpt lat="43.4058" lon="5.46096">
        <ele>623.55</ele>
        <time>2020-06-14T11:48:14Z</time>
      </trkpt>
      <trkpt lat="43.40581" lon="5.46097">
        <ele>621.63</ele>
        <time>2020-06-14T11:48:37Z</time>
      </trkpt>
      <trkpt lat="43.40577" lon="5.46099">
        <ele>624.51</ele>
        <time>2020-06-14T11:48:51Z</time>
      </trkpt>
      <trkpt lat="43.40576" lon="5.46104">
        <ele>626.92</ele>
        <time>2020-06-14T11:49:06Z</time>
      </trkpt>
      <trkpt lat="43.40576" lon="5.46108">
        <ele>627.88</ele>
        <time>2020-06-14T11:49:22Z</time>
      </trkpt>
      <trkpt lat="43.40576" lon="5.46107">
        <ele>629.8</ele>
        <time>2020-06-14T11:49:39Z</time>
      </trkpt>
      <trkpt lat="43.40573" lon="5.46107">
        <ele>632.2</ele>
        <time>2020-06-14T11:50:01Z</time>
      </trkpt>
      <trkpt lat="43.40573" lon="5.46109">
        <ele>633.65</ele>
        <time>2020-06-14T11:50:16Z</time>
      </trkpt>
      <trkpt lat="43.40573" lon="5.46113">
        <ele>632.2</ele>
        <time>2020-06-14T11:50:29Z</time>
      </trkpt>
      <trkpt lat="43.4057" lon="5.46119">
        <ele>634.61</ele>
        <time>2020-06-14T11:50:41Z</time>
      </trkpt>
      <trkpt lat="43.40568" lon="5.46124">
        <ele>637.49</ele>
        <time>2020-06-14T11:50:56Z</time>
      </trkpt>
      <trkpt lat="43.40568" lon="5.4613">
        <ele>641.34</ele>
        <time>2020-06-14T11:51:06Z</time>
      </trkpt>
      <trkpt lat="43.40565" lon="5.46136">
        <ele>642.3</ele>
        <time>2020-06-14T11:51:23Z</time>
      </trkpt>
      <trkpt lat="43.40563" lon="5.46138">
        <ele>644.7</ele>
        <time>2020-06-14T11:51:40Z</time>
      </trkpt>
      <trkpt lat="43.40561" lon="5.46141">
        <ele>645.18</ele>
        <time>2020-06-14T11:51:55Z</time>
      </trkpt>
      <trkpt lat="43.40561" lon="5.46142">
        <ele>645.18</ele>
        <time>2020-06-14T11:52:10Z</time>
      </trkpt>
      <trkpt lat="43.40561" lon="5.46145">
        <ele>644.7</ele>
        <time>2020-06-14T11:52:38Z</time>
      </trkpt>
      <trkpt lat="43.40558" lon="5.46151">
        <ele>647.1</ele>
        <time>2020-06-14T11:52:51Z</time>
      </trkpt>
      <trkpt lat="43.40557" lon="5.46153">
        <ele>648.07</ele>
        <time>2020-06-14T11:53:16Z</time>
      </trkpt>
      <trkpt lat="43.40554" lon="5.46156">
        <ele>650.95</ele>
        <time>2020-06-14T11:53:27Z</time>
      </trkpt>
      <trkpt lat="43.40553" lon="5.46162">
        <ele>651.43</ele>
        <time>2020-06-14T11:53:38Z</time>
      </trkpt>
      <trkpt lat="43.40554" lon="5.46172">
        <ele>651.91</ele>
        <time>2020-06-14T11:53:51Z</time>
      </trkpt>
      <trkpt lat="43.40552" lon="5.4618">
        <ele>653.83</ele>
        <time>2020-06-14T11:54:05Z</time>
      </trkpt>
      <trkpt lat="43.40553" lon="5.46183">
        <ele>652.87</ele>
        <time>2020-06-14T11:54:20Z</time>
      </trkpt>
      <trkpt lat="43.40551" lon="5.46185">
        <ele>652.39</ele>
        <time>2020-06-14T11:54:32Z</time>
      </trkpt>
      <trkpt lat="43.40552" lon="5.46188">
        <ele>649.99</ele>
        <time>2020-06-14T11:54:40Z</time>
      </trkpt>
      <trkpt lat="43.40552" lon="5.46192">
        <ele>649.03</ele>
        <time>2020-06-14T11:54:43Z</time>
      </trkpt>
      <trkpt lat="43.40553" lon="5.46195">
        <ele>652.39</ele>
        <time>2020-06-14T11:54:54Z</time>
      </trkpt>
      <trkpt lat="43.40555" lon="5.46198">
        <ele>652.87</ele>
        <time>2020-06-14T11:55:17Z</time>
      </trkpt>
      <trkpt lat="43.40556" lon="5.46198">
        <ele>652.39</ele>
        <time>2020-06-14T11:55:46Z</time>
      </trkpt>
      <trkpt lat="43.40557" lon="5.46199">
        <ele>651.91</ele>
        <time>2020-06-14T11:55:53Z</time>
      </trkpt>
      <trkpt lat="43.40558" lon="5.46203">
        <ele>652.39</ele>
        <time>2020-06-14T11:56:06Z</time>
      </trkpt>
      <trkpt lat="43.40555" lon="5.46206">
        <ele>653.83</ele>
        <time>2020-06-14T11:56:20Z</time>
      </trkpt>
      <trkpt lat="43.40554" lon="5.46214">
        <ele>653.83</ele>
        <time>2020-06-14T11:56:38Z</time>
      </trkpt>
      <trkpt lat="43.40552" lon="5.46215">
        <ele>654.8</ele>
        <time>2020-06-14T11:56:46Z</time>
      </trkpt>
      <trkpt lat="43.40552" lon="5.46217">
        <ele>655.28</ele>
        <time>2020-06-14T11:56:59Z</time>
      </trkpt>
      <trkpt lat="43.40555" lon="5.46221">
        <ele>655.28</ele>
        <time>2020-06-14T11:57:12Z</time>
      </trkpt>
      <trkpt lat="43.40552" lon="5.46222">
        <ele>654.31</ele>
        <time>2020-06-14T11:57:25Z</time>
      </trkpt>
      <trkpt lat="43.40552" lon="5.46222">
        <ele>654.31</ele>
        <time>2020-06-14T11:57:26Z</time>
      </trkpt>
      <trkpt lat="43.40549" lon="5.46231">
        <ele>656.72</ele>
        <time>2020-06-14T11:57:39Z</time>
      </trkpt>
      <trkpt lat="43.40547" lon="5.46236">
        <ele>657.2</ele>
        <time>2020-06-14T11:57:54Z</time>
      </trkpt>
      <trkpt lat="43.40548" lon="5.46237">
        <ele>657.68</ele>
        <time>2020-06-14T11:58:12Z</time>
      </trkpt>
      <trkpt lat="43.40547" lon="5.46237">
        <ele>656.72</ele>
        <time>2020-06-14T11:58:35Z</time>
      </trkpt>
      <trkpt lat="43.40548" lon="5.46241">
        <ele>656.72</ele>
        <time>2020-06-14T11:59:02Z</time>
      </trkpt>
      <trkpt lat="43.40545" lon="5.46246">
        <ele>659.12</ele>
        <time>2020-06-14T11:59:16Z</time>
      </trkpt>
      <trkpt lat="43.40542" lon="5.46248">
        <ele>662.49</ele>
        <time>2020-06-14T11:59:32Z</time>
      </trkpt>
      <trkpt lat="43.4054" lon="5.46249">
        <ele>665.37</ele>
        <time>2020-06-14T11:59:49Z</time>
      </trkpt>
      <trkpt lat="43.40538" lon="5.46252">
        <ele>668.25</ele>
        <time>2020-06-14T12:00:03Z</time>
      </trkpt>
      <trkpt lat="43.40535" lon="5.46256">
        <ele>669.22</ele>
        <time>2020-06-14T12:00:22Z</time>
      </trkpt>
      <trkpt lat="43.40532" lon="5.46258">
        <ele>672.58</ele>
        <time>2020-06-14T12:00:37Z</time>
      </trkpt>
      <trkpt lat="43.40531" lon="5.46255">
        <ele>673.06</ele>
        <time>2020-06-14T12:00:49Z</time>
      </trkpt>
      <trkpt lat="43.40528" lon="5.46254">
        <ele>674.02</ele>
        <time>2020-06-14T12:01:03Z</time>
      </trkpt>
      <trkpt lat="43.40527" lon="5.46252">
        <ele>674.02</ele>
        <time>2020-06-14T12:01:23Z</time>
      </trkpt>
      <trkpt lat="43.40527" lon="5.46251">
        <ele>672.58</ele>
        <time>2020-06-14T12:01:37Z</time>
      </trkpt>
      <trkpt lat="43.40526" lon="5.46249">
        <ele>672.58</ele>
        <time>2020-06-14T12:01:53Z</time>
      </trkpt>
      <trkpt lat="43.40528" lon="5.46249">
        <ele>672.58</ele>
        <time>2020-06-14T12:02:14Z</time>
      </trkpt>
      <trkpt lat="43.40528" lon="5.46248">
        <ele>672.58</ele>
        <time>2020-06-14T12:02:20Z</time>
      </trkpt>
      <trkpt lat="43.40527" lon="5.46242">
        <ele>673.54</ele>
        <time>2020-06-14T12:02:25Z</time>
      </trkpt>
      <trkpt lat="43.40526" lon="5.46236">
        <ele>674.98</ele>
        <time>2020-06-14T12:02:29Z</time>
      </trkpt>
      <trkpt lat="43.40523" lon="5.46229">
        <ele>679.79</ele>
        <time>2020-06-14T12:02:45Z</time>
      </trkpt>
      <trkpt lat="43.40519" lon="5.46222">
        <ele>680.75</ele>
        <time>2020-06-14T12:02:53Z</time>
      </trkpt>
      <trkpt lat="43.40516" lon="5.46216">
        <ele>682.19</ele>
        <time>2020-06-14T12:03:03Z</time>
      </trkpt>
      <trkpt lat="43.40517" lon="5.46213">
        <ele>678.35</ele>
        <time>2020-06-14T12:03:28Z</time>
      </trkpt>
      <trkpt lat="43.40517" lon="5.46213">
        <ele>676.91</ele>
        <time>2020-06-14T12:03:45Z</time>
      </trkpt>
      <trkpt lat="43.40518" lon="5.46212">
        <ele>674.98</ele>
        <time>2020-06-14T12:04:04Z</time>
      </trkpt>
      <trkpt lat="43.40518" lon="5.46212">
        <ele>673.54</ele>
        <time>2020-06-14T12:04:22Z</time>
      </trkpt>
      <trkpt lat="43.40517" lon="5.46212">
        <ele>676.42</ele>
        <time>2020-06-14T12:04:46Z</time>
      </trkpt>
      <trkpt lat="43.40517" lon="5.46211">
        <ele>678.35</ele>
        <time>2020-06-14T12:05:14Z</time>
      </trkpt>
      <trkpt lat="43.40518" lon="5.46212">
        <ele>676.91</ele>
        <time>2020-06-14T12:05:26Z</time>
      </trkpt>
      <trkpt lat="43.40513" lon="5.46229">
        <ele>694.69</ele>
        <time>2020-06-14T12:49:16Z</time>
      </trkpt>
      <trkpt lat="43.40517" lon="5.4621">
        <ele>675.94</ele>
        <time>2020-06-14T12:49:51Z</time>
      </trkpt>
      <trkpt lat="43.40519" lon="5.46208">
        <ele>675.46</ele>
        <time>2020-06-14T12:50:24Z</time>
      </trkpt>
      <trkpt lat="43.40517" lon="5.4621">
        <ele>675.46</ele>
        <time>2020-06-14T12:50:44Z</time>
      </trkpt>
      <trkpt lat="43.40516" lon="5.4621">
        <ele>674.98</ele>
        <time>2020-06-14T12:51:00Z</time>
      </trkpt>
      <trkpt lat="43.40517" lon="5.46209">
        <ele>677.39</ele>
        <time>2020-06-14T12:51:22Z</time>
      </trkpt>
      <trkpt lat="43.40519" lon="5.46213">
        <ele>677.87</ele>
        <time>2020-06-14T12:51:49Z</time>
      </trkpt>
      <trkpt lat="43.40519" lon="5.46213">
        <ele>678.83</ele>
        <time>2020-06-14T12:52:02Z</time>
      </trkpt>
      <trkpt lat="43.40518" lon="5.46214">
        <ele>678.83</ele>
        <time>2020-06-14T12:52:19Z</time>
      </trkpt>
      <trkpt lat="43.40518" lon="5.46215">
        <ele>677.39</ele>
        <time>2020-06-14T12:52:43Z</time>
      </trkpt>
      <trkpt lat="43.40517" lon="5.46215">
        <ele>677.39</ele>
        <time>2020-06-14T12:53:02Z</time>
      </trkpt>
      <trkpt lat="43.40518" lon="5.46214">
        <ele>678.35</ele>
        <time>2020-06-14T12:53:26Z</time>
      </trkpt>
      <trkpt lat="43.40517" lon="5.46217">
        <ele>678.35</ele>
        <time>2020-06-14T12:53:41Z</time>
      </trkpt>
      <trkpt lat="43.40517" lon="5.46223">
        <ele>678.35</ele>
        <time>2020-06-14T12:53:55Z</time>
      </trkpt>
      <trkpt lat="43.40517" lon="5.46223">
        <ele>675.94</ele>
        <time>2020-06-14T12:54:08Z</time>
      </trkpt>
      <trkpt lat="43.40519" lon="5.46233">
        <ele>675.46</ele>
        <time>2020-06-14T12:54:21Z</time>
      </trkpt>
      <trkpt lat="43.40522" lon="5.46237">
        <ele>676.42</ele>
        <time>2020-06-14T12:54:35Z</time>
      </trkpt>
      <trkpt lat="43.40522" lon="5.46239">
        <ele>675.94</ele>
        <time>2020-06-14T12:54:48Z</time>
      </trkpt>
      <trkpt lat="43.40525" lon="5.46246">
        <ele>674.98</ele>
        <time>2020-06-14T12:54:57Z</time>
      </trkpt>
      <trkpt lat="43.40525" lon="5.4625">
        <ele>674.98</ele>
        <time>2020-06-14T12:55:02Z</time>
      </trkpt>
      <trkpt lat="43.40521" lon="5.46254">
        <ele>674.02</ele>
        <time>2020-06-14T12:55:12Z</time>
      </trkpt>
      <trkpt lat="43.40521" lon="5.46265">
        <ele>674.98</ele>
        <time>2020-06-14T12:55:24Z</time>
      </trkpt>
      <trkpt lat="43.4052" lon="5.46269">
        <ele>674.98</ele>
        <time>2020-06-14T12:55:31Z</time>
      </trkpt>
      <trkpt lat="43.40519" lon="5.46274">
        <ele>675.46</ele>
        <time>2020-06-14T12:55:39Z</time>
      </trkpt>
      <trkpt lat="43.4052" lon="5.46282">
        <ele>675.94</ele>
        <time>2020-06-14T12:55:47Z</time>
      </trkpt>
      <trkpt lat="43.40515" lon="5.46288">
        <ele>676.42</ele>
        <time>2020-06-14T12:55:59Z</time>
      </trkpt>
      <trkpt lat="43.40516" lon="5.46291">
        <ele>676.42</ele>
        <time>2020-06-14T12:56:03Z</time>
      </trkpt>
      <trkpt lat="43.40519" lon="5.46302">
        <ele>676.91</ele>
        <time>2020-06-14T12:56:13Z</time>
      </trkpt>
      <trkpt lat="43.40519" lon="5.46308">
        <ele>676.91</ele>
        <time>2020-06-14T12:56:26Z</time>
      </trkpt>
      <trkpt lat="43.40518" lon="5.46313">
        <ele>677.39</ele>
        <time>2020-06-14T12:56:40Z</time>
      </trkpt>
      <trkpt lat="43.40516" lon="5.46319">
        <ele>678.35</ele>
        <time>2020-06-14T12:56:53Z</time>
      </trkpt>
      <trkpt lat="43.40518" lon="5.46328">
        <ele>674.98</ele>
        <time>2020-06-14T12:57:06Z</time>
      </trkpt>
      <trkpt lat="43.40519" lon="5.46333">
        <ele>673.54</ele>
        <time>2020-06-14T12:57:17Z</time>
      </trkpt>
      <trkpt lat="43.40518" lon="5.46336">
        <ele>670.66</ele>
        <time>2020-06-14T12:57:28Z</time>
      </trkpt>
      <trkpt lat="43.40519" lon="5.46343">
        <ele>667.77</ele>
        <time>2020-06-14T12:57:43Z</time>
      </trkpt>
      <trkpt lat="43.40521" lon="5.46347">
        <ele>667.29</ele>
        <time>2020-06-14T12:57:54Z</time>
      </trkpt>
      <trkpt lat="43.40522" lon="5.46356">
        <ele>667.77</ele>
        <time>2020-06-14T12:58:05Z</time>
      </trkpt>
      <trkpt lat="43.40523" lon="5.4636">
        <ele>668.25</ele>
        <time>2020-06-14T12:58:08Z</time>
      </trkpt>
      <trkpt lat="43.40524" lon="5.46362">
        <ele>668.25</ele>
        <time>2020-06-14T12:58:10Z</time>
      </trkpt>
      <trkpt lat="43.40525" lon="5.46367">
        <ele>668.73</ele>
        <time>2020-06-14T12:58:14Z</time>
      </trkpt>
      <trkpt lat="43.40525" lon="5.46379">
        <ele>668.73</ele>
        <time>2020-06-14T12:58:25Z</time>
      </trkpt>
      <trkpt lat="43.40525" lon="5.4638">
        <ele>668.73</ele>
        <time>2020-06-14T12:58:28Z</time>
      </trkpt>
      <trkpt lat="43.40526" lon="5.46387">
        <ele>670.66</ele>
        <time>2020-06-14T12:58:40Z</time>
      </trkpt>
      <trkpt lat="43.40528" lon="5.46394">
        <ele>672.58</ele>
        <time>2020-06-14T12:58:53Z</time>
      </trkpt>
      <trkpt lat="43.40528" lon="5.46395">
        <ele>672.58</ele>
        <time>2020-06-14T12:58:55Z</time>
      </trkpt>
      <trkpt lat="43.40531" lon="5.46403">
        <ele>672.58</ele>
        <time>2020-06-14T12:59:08Z</time>
      </trkpt>
      <trkpt lat="43.40535" lon="5.46406">
        <ele>673.06</ele>
        <time>2020-06-14T12:59:23Z</time>
      </trkpt>
      <trkpt lat="43.40536" lon="5.46409">
        <ele>672.58</ele>
        <time>2020-06-14T12:59:35Z</time>
      </trkpt>
      <trkpt lat="43.40535" lon="5.46414">
        <ele>672.1</ele>
        <time>2020-06-14T12:59:46Z</time>
      </trkpt>
      <trkpt lat="43.40536" lon="5.46416">
        <ele>672.1</ele>
        <time>2020-06-14T12:59:54Z</time>
      </trkpt>
      <trkpt lat="43.4053" lon="5.46423">
        <ele>671.14</ele>
        <time>2020-06-14T13:00:05Z</time>
      </trkpt>
      <trkpt lat="43.40529" lon="5.46426">
        <ele>670.66</ele>
        <time>2020-06-14T13:00:19Z</time>
      </trkpt>
      <trkpt lat="43.40528" lon="5.4643">
        <ele>668.73</ele>
        <time>2020-06-14T13:00:32Z</time>
      </trkpt>
      <trkpt lat="43.40526" lon="5.46435">
        <ele>666.33</ele>
        <time>2020-06-14T13:00:45Z</time>
      </trkpt>
      <trkpt lat="43.40525" lon="5.46434">
        <ele>665.37</ele>
        <time>2020-06-14T13:00:53Z</time>
      </trkpt>
      <trkpt lat="43.40525" lon="5.46433">
        <ele>665.85</ele>
        <time>2020-06-14T13:01:07Z</time>
      </trkpt>
      <trkpt lat="43.40522" lon="5.46435">
        <ele>665.85</ele>
        <time>2020-06-14T13:01:13Z</time>
      </trkpt>
      <trkpt lat="43.40517" lon="5.46444">
        <ele>665.37</ele>
        <time>2020-06-14T13:01:25Z</time>
      </trkpt>
      <trkpt lat="43.40515" lon="5.46451">
        <ele>667.29</ele>
        <time>2020-06-14T13:01:35Z</time>
      </trkpt>
      <trkpt lat="43.40513" lon="5.4646">
        <ele>669.22</ele>
        <time>2020-06-14T13:01:49Z</time>
      </trkpt>
      <trkpt lat="43.40515" lon="5.46471">
        <ele>669.22</ele>
        <time>2020-06-14T13:02:02Z</time>
      </trkpt>
      <trkpt lat="43.40519" lon="5.46479">
        <ele>669.7</ele>
        <time>2020-06-14T13:02:13Z</time>
      </trkpt>
      <trkpt lat="43.40522" lon="5.46481">
        <ele>670.66</ele>
        <time>2020-06-14T13:02:27Z</time>
      </trkpt>
      <trkpt lat="43.40522" lon="5.4648">
        <ele>670.18</ele>
        <time>2020-06-14T13:02:47Z</time>
      </trkpt>
      <trkpt lat="43.40521" lon="5.46481">
        <ele>669.7</ele>
        <time>2020-06-14T13:03:13Z</time>
      </trkpt>
      <trkpt lat="43.40521" lon="5.46485">
        <ele>669.7</ele>
        <time>2020-06-14T13:03:31Z</time>
      </trkpt>
      <trkpt lat="43.40522" lon="5.46491">
        <ele>669.22</ele>
        <time>2020-06-14T13:03:41Z</time>
      </trkpt>
      <trkpt lat="43.40521" lon="5.465">
        <ele>668.73</ele>
        <time>2020-06-14T13:03:54Z</time>
      </trkpt>
      <trkpt lat="43.40523" lon="5.46508">
        <ele>667.29</ele>
        <time>2020-06-14T13:04:05Z</time>
      </trkpt>
      <trkpt lat="43.40524" lon="5.46514">
        <ele>664.89</ele>
        <time>2020-06-14T13:04:17Z</time>
      </trkpt>
      <trkpt lat="43.40528" lon="5.46523">
        <ele>662.97</ele>
        <time>2020-06-14T13:04:28Z</time>
      </trkpt>
      <trkpt lat="43.4053" lon="5.46523">
        <ele>663.93</ele>
        <time>2020-06-14T13:04:43Z</time>
      </trkpt>
      <trkpt lat="43.40528" lon="5.46522">
        <ele>665.37</ele>
        <time>2020-06-14T13:04:58Z</time>
      </trkpt>
      <trkpt lat="43.40529" lon="5.46522">
        <ele>662.49</ele>
        <time>2020-06-14T13:05:20Z</time>
      </trkpt>
      <trkpt lat="43.40526" lon="5.46522">
        <ele>662.97</ele>
        <time>2020-06-14T13:05:45Z</time>
      </trkpt>
      <trkpt lat="43.40528" lon="5.46524">
        <ele>658.64</ele>
        <time>2020-06-14T13:06:10Z</time>
      </trkpt>
      <trkpt lat="43.40528" lon="5.46522">
        <ele>660.56</ele>
        <time>2020-06-14T13:06:40Z</time>
      </trkpt>
      <trkpt lat="43.40527" lon="5.46522">
        <ele>661.04</ele>
        <time>2020-06-14T13:07:00Z</time>
      </trkpt>
      <trkpt lat="43.40526" lon="5.46528">
        <ele>660.56</ele>
        <time>2020-06-14T13:07:03Z</time>
      </trkpt>
      <trkpt lat="43.4053" lon="5.46538">
        <ele>657.68</ele>
        <time>2020-06-14T13:07:15Z</time>
      </trkpt>
      <trkpt lat="43.40532" lon="5.46544">
        <ele>656.72</ele>
        <time>2020-06-14T13:07:27Z</time>
      </trkpt>
      <trkpt lat="43.40535" lon="5.46552">
        <ele>657.2</ele>
        <time>2020-06-14T13:07:38Z</time>
      </trkpt>
      <trkpt lat="43.40536" lon="5.46559">
        <ele>659.12</ele>
        <time>2020-06-14T13:07:50Z</time>
      </trkpt>
      <trkpt lat="43.40534" lon="5.46567">
        <ele>659.6</ele>
        <time>2020-06-14T13:07:56Z</time>
      </trkpt>
      <trkpt lat="43.40536" lon="5.46571">
        <ele>661.52</ele>
        <time>2020-06-14T13:08:07Z</time>
      </trkpt>
      <trkpt lat="43.4054" lon="5.46581">
        <ele>660.56</ele>
        <time>2020-06-14T13:08:18Z</time>
      </trkpt>
      <trkpt lat="43.40543" lon="5.46592">
        <ele>659.12</ele>
        <time>2020-06-14T13:08:29Z</time>
      </trkpt>
      <trkpt lat="43.40545" lon="5.46601">
        <ele>658.16</ele>
        <time>2020-06-14T13:08:41Z</time>
      </trkpt>
      <trkpt lat="43.40546" lon="5.46607">
        <ele>657.68</ele>
        <time>2020-06-14T13:08:57Z</time>
      </trkpt>
      <trkpt lat="43.40547" lon="5.46608">
        <ele>656.72</ele>
        <time>2020-06-14T13:09:14Z</time>
      </trkpt>
      <trkpt lat="43.40548" lon="5.46617">
        <ele>655.28</ele>
        <time>2020-06-14T13:09:27Z</time>
      </trkpt>
      <trkpt lat="43.40547" lon="5.4663">
        <ele>652.87</ele>
        <time>2020-06-14T13:09:41Z</time>
      </trkpt>
      <trkpt lat="43.40548" lon="5.46636">
        <ele>653.35</ele>
        <time>2020-06-14T13:09:52Z</time>
      </trkpt>
      <trkpt lat="43.4055" lon="5.46643">
        <ele>652.87</ele>
        <time>2020-06-14T13:10:06Z</time>
      </trkpt>
      <trkpt lat="43.40549" lon="5.46646">
        <ele>651.43</ele>
        <time>2020-06-14T13:10:12Z</time>
      </trkpt>
      <trkpt lat="43.40546" lon="5.46654">
        <ele>648.07</ele>
        <time>2020-06-14T13:10:22Z</time>
      </trkpt>
      <trkpt lat="43.40545" lon="5.46665">
        <ele>647.1</ele>
        <time>2020-06-14T13:10:34Z</time>
      </trkpt>
      <trkpt lat="43.40545" lon="5.46666">
        <ele>647.1</ele>
        <time>2020-06-14T13:10:40Z</time>
      </trkpt>
      <trkpt lat="43.40542" lon="5.46679">
        <ele>645.66</ele>
        <time>2020-06-14T13:10:51Z</time>
      </trkpt>
      <trkpt lat="43.40546" lon="5.46697">
        <ele>644.22</ele>
        <time>2020-06-14T13:11:05Z</time>
      </trkpt>
      <trkpt lat="43.40553" lon="5.4671">
        <ele>642.78</ele>
        <time>2020-06-14T13:11:19Z</time>
      </trkpt>
      <trkpt lat="43.40556" lon="5.46716">
        <ele>642.78</ele>
        <time>2020-06-14T13:11:26Z</time>
      </trkpt>
      <trkpt lat="43.40561" lon="5.4673">
        <ele>642.3</ele>
        <time>2020-06-14T13:11:40Z</time>
      </trkpt>
      <trkpt lat="43.40563" lon="5.46745">
        <ele>641.82</ele>
        <time>2020-06-14T13:11:53Z</time>
      </trkpt>
      <trkpt lat="43.40566" lon="5.46757">
        <ele>638.93</ele>
        <time>2020-06-14T13:12:05Z</time>
      </trkpt>
      <trkpt lat="43.40571" lon="5.46769">
        <ele>637.01</ele>
        <time>2020-06-14T13:12:16Z</time>
      </trkpt>
      <trkpt lat="43.40573" lon="5.46774">
        <ele>636.53</ele>
        <time>2020-06-14T13:12:22Z</time>
      </trkpt>
      <trkpt lat="43.40581" lon="5.46784">
        <ele>635.09</ele>
        <time>2020-06-14T13:12:34Z</time>
      </trkpt>
      <trkpt lat="43.40583" lon="5.46786">
        <ele>634.61</ele>
        <time>2020-06-14T13:12:37Z</time>
      </trkpt>
      <trkpt lat="43.40596" lon="5.46793">
        <ele>633.17</ele>
        <time>2020-06-14T13:12:50Z</time>
      </trkpt>
      <trkpt lat="43.40606" lon="5.46804">
        <ele>631.72</ele>
        <time>2020-06-14T13:13:03Z</time>
      </trkpt>
      <trkpt lat="43.40609" lon="5.46808">
        <ele>631.72</ele>
        <time>2020-06-14T13:13:07Z</time>
      </trkpt>
      <trkpt lat="43.4062" lon="5.46821">
        <ele>632.2</ele>
        <time>2020-06-14T13:13:21Z</time>
      </trkpt>
      <trkpt lat="43.40624" lon="5.46829">
        <ele>632.68</ele>
        <time>2020-06-14T13:13:32Z</time>
      </trkpt>
      <trkpt lat="43.40623" lon="5.46832">
        <ele>633.65</ele>
        <time>2020-06-14T13:13:35Z</time>
      </trkpt>
      <trkpt lat="43.40617" lon="5.46835">
        <ele>632.68</ele>
        <time>2020-06-14T13:13:50Z</time>
      </trkpt>
      <trkpt lat="43.40616" lon="5.46836">
        <ele>633.17</ele>
        <time>2020-06-14T13:14:02Z</time>
      </trkpt>
      <trkpt lat="43.40607" lon="5.46837">
        <ele>633.65</ele>
        <time>2020-06-14T13:14:13Z</time>
      </trkpt>
      <trkpt lat="43.40596" lon="5.46837">
        <ele>632.68</ele>
        <time>2020-06-14T13:14:27Z</time>
      </trkpt>
      <trkpt lat="43.40586" lon="5.46837">
        <ele>632.2</ele>
        <time>2020-06-14T13:14:38Z</time>
      </trkpt>
      <trkpt lat="43.40575" lon="5.46838">
        <ele>631.24</ele>
        <time>2020-06-14T13:14:53Z</time>
      </trkpt>
      <trkpt lat="43.40573" lon="5.46837">
        <ele>630.76</ele>
        <time>2020-06-14T13:14:56Z</time>
      </trkpt>
      <trkpt lat="43.40571" lon="5.46839">
        <ele>630.28</ele>
        <time>2020-06-14T13:15:10Z</time>
      </trkpt>
      <trkpt lat="43.40569" lon="5.46834">
        <ele>630.28</ele>
        <time>2020-06-14T13:15:22Z</time>
      </trkpt>
      <trkpt lat="43.40566" lon="5.46836">
        <ele>629.32</ele>
        <time>2020-06-14T13:15:27Z</time>
      </trkpt>
      <trkpt lat="43.40567" lon="5.46841">
        <ele>626.44</ele>
        <time>2020-06-14T13:15:41Z</time>
      </trkpt>
      <trkpt lat="43.40565" lon="5.46839">
        <ele>623.07</ele>
        <time>2020-06-14T13:16:01Z</time>
      </trkpt>
      <trkpt lat="43.40565" lon="5.46839">
        <ele>625.47</ele>
        <time>2020-06-14T13:16:19Z</time>
      </trkpt>
      <trkpt lat="43.40563" lon="5.46842">
        <ele>627.4</ele>
        <time>2020-06-14T13:16:33Z</time>
      </trkpt>
      <trkpt lat="43.40564" lon="5.46843">
        <ele>628.36</ele>
        <time>2020-06-14T13:16:52Z</time>
      </trkpt>
      <trkpt lat="43.40565" lon="5.46844">
        <ele>628.84</ele>
        <time>2020-06-14T13:17:12Z</time>
      </trkpt>
      <trkpt lat="43.40564" lon="5.46848">
        <ele>633.17</ele>
        <time>2020-06-14T13:17:41Z</time>
      </trkpt>
      <trkpt lat="43.40567" lon="5.46846">
        <ele>633.17</ele>
        <time>2020-06-14T13:18:02Z</time>
      </trkpt>
      <trkpt lat="43.40566" lon="5.46844">
        <ele>632.2</ele>
        <time>2020-06-14T13:18:22Z</time>
      </trkpt>
      <trkpt lat="43.40563" lon="5.46847">
        <ele>630.76</ele>
        <time>2020-06-14T13:18:36Z</time>
      </trkpt>
      <trkpt lat="43.40559" lon="5.46849">
        <ele>631.24</ele>
        <time>2020-06-14T13:18:49Z</time>
      </trkpt>
      <trkpt lat="43.40559" lon="5.46856">
        <ele>630.76</ele>
        <time>2020-06-14T13:19:07Z</time>
      </trkpt>
      <trkpt lat="43.40559" lon="5.46861">
        <ele>631.24</ele>
        <time>2020-06-14T13:19:24Z</time>
      </trkpt>
      <trkpt lat="43.40559" lon="5.46867">
        <ele>627.88</ele>
        <time>2020-06-14T13:19:49Z</time>
      </trkpt>
      <trkpt lat="43.40559" lon="5.46861">
        <ele>625.47</ele>
        <time>2020-06-14T13:20:24Z</time>
      </trkpt>
      <trkpt lat="43.4056" lon="5.46867">
        <ele>626.92</ele>
        <time>2020-06-14T13:20:41Z</time>
      </trkpt>
      <trkpt lat="43.4056" lon="5.46868">
        <ele>630.28</ele>
        <time>2020-06-14T13:21:03Z</time>
      </trkpt>
      <trkpt lat="43.40563" lon="5.4687">
        <ele>628.36</ele>
        <time>2020-06-14T13:21:29Z</time>
      </trkpt>
      <trkpt lat="43.40561" lon="5.46872">
        <ele>631.24</ele>
        <time>2020-06-14T13:21:53Z</time>
      </trkpt>
      <trkpt lat="43.40565" lon="5.46876">
        <ele>631.24</ele>
        <time>2020-06-14T13:22:15Z</time>
      </trkpt>
      <trkpt lat="43.40567" lon="5.46878">
        <ele>628.84</ele>
        <time>2020-06-14T13:22:30Z</time>
      </trkpt>
      <trkpt lat="43.4057" lon="5.46883">
        <ele>627.4</ele>
        <time>2020-06-14T13:22:49Z</time>
      </trkpt>
      <trkpt lat="43.4057" lon="5.46883">
        <ele>628.84</ele>
        <time>2020-06-14T13:23:11Z</time>
      </trkpt>
      <trkpt lat="43.40572" lon="5.46881">
        <ele>626.92</ele>
        <time>2020-06-14T13:23:35Z</time>
      </trkpt>
      <trkpt lat="43.40572" lon="5.46885">
        <ele>623.07</ele>
        <time>2020-06-14T13:23:48Z</time>
      </trkpt>
      <trkpt lat="43.40573" lon="5.46888">
        <ele>621.63</ele>
        <time>2020-06-14T13:24:00Z</time>
      </trkpt>
      <trkpt lat="43.40575" lon="5.46887">
        <ele>623.55</ele>
        <time>2020-06-14T13:24:15Z</time>
      </trkpt>
      <trkpt lat="43.40577" lon="5.46886">
        <ele>623.55</ele>
        <time>2020-06-14T13:24:30Z</time>
      </trkpt>
      <trkpt lat="43.40578" lon="5.46891">
        <ele>622.11</ele>
        <time>2020-06-14T13:24:45Z</time>
      </trkpt>
      <trkpt lat="43.40579" lon="5.46895">
        <ele>622.59</ele>
        <time>2020-06-14T13:24:57Z</time>
      </trkpt>
      <trkpt lat="43.40581" lon="5.46898">
        <ele>619.71</ele>
        <time>2020-06-14T13:25:09Z</time>
      </trkpt>
      <trkpt lat="43.40583" lon="5.46902">
        <ele>617.3</ele>
        <time>2020-06-14T13:25:23Z</time>
      </trkpt>
      <trkpt lat="43.40586" lon="5.46906">
        <ele>613.46</ele>
        <time>2020-06-14T13:25:36Z</time>
      </trkpt>
      <trkpt lat="43.40589" lon="5.4691">
        <ele>612.5</ele>
        <time>2020-06-14T13:25:51Z</time>
      </trkpt>
      <trkpt lat="43.40588" lon="5.46913">
        <ele>612.98</ele>
        <time>2020-06-14T13:26:14Z</time>
      </trkpt>
      <trkpt lat="43.40592" lon="5.4692">
        <ele>611.54</ele>
        <time>2020-06-14T13:26:30Z</time>
      </trkpt>
      <trkpt lat="43.40595" lon="5.46922">
        <ele>608.65</ele>
        <time>2020-06-14T13:26:44Z</time>
      </trkpt>
      <trkpt lat="43.40597" lon="5.46919">
        <ele>610.57</ele>
        <time>2020-06-14T13:26:59Z</time>
      </trkpt>
      <trkpt lat="43.40598" lon="5.4692">
        <ele>609.13</ele>
        <time>2020-06-14T13:27:23Z</time>
      </trkpt>
      <trkpt lat="43.40602" lon="5.46922">
        <ele>607.21</ele>
        <time>2020-06-14T13:27:36Z</time>
      </trkpt>
      <trkpt lat="43.40605" lon="5.46925">
        <ele>608.65</ele>
        <time>2020-06-14T13:27:54Z</time>
      </trkpt>
      <trkpt lat="43.40604" lon="5.46928">
        <ele>607.21</ele>
        <time>2020-06-14T13:28:11Z</time>
      </trkpt>
      <trkpt lat="43.40607" lon="5.46927">
        <ele>605.29</ele>
        <time>2020-06-14T13:28:40Z</time>
      </trkpt>
      <trkpt lat="43.40608" lon="5.46929">
        <ele>602.4</ele>
        <time>2020-06-14T13:28:56Z</time>
      </trkpt>
      <trkpt lat="43.40611" lon="5.46933">
        <ele>599.52</ele>
        <time>2020-06-14T13:29:09Z</time>
      </trkpt>
      <trkpt lat="43.40614" lon="5.46944">
        <ele>597.12</ele>
        <time>2020-06-14T13:29:24Z</time>
      </trkpt>
      <trkpt lat="43.40621" lon="5.46962">
        <ele>591.83</ele>
        <time>2020-06-14T13:29:40Z</time>
      </trkpt>
      <trkpt lat="43.40626" lon="5.46974">
        <ele>588.95</ele>
        <time>2020-06-14T13:29:55Z</time>
      </trkpt>
      <trkpt lat="43.40627" lon="5.46985">
        <ele>588.46</ele>
        <time>2020-06-14T13:30:05Z</time>
      </trkpt>
      <trkpt lat="43.40631" lon="5.46996">
        <ele>590.39</ele>
        <time>2020-06-14T13:30:15Z</time>
      </trkpt>
      <trkpt lat="43.40631" lon="5.47">
        <ele>590.87</ele>
        <time>2020-06-14T13:30:19Z</time>
      </trkpt>
      <trkpt lat="43.40633" lon="5.47011">
        <ele>589.43</ele>
        <time>2020-06-14T13:30:27Z</time>
      </trkpt>
      <trkpt lat="43.40635" lon="5.47023">
        <ele>588.46</ele>
        <time>2020-06-14T13:30:41Z</time>
      </trkpt>
      <trkpt lat="43.40636" lon="5.47032">
        <ele>586.54</ele>
        <time>2020-06-14T13:30:55Z</time>
      </trkpt>
      <trkpt lat="43.40637" lon="5.47039">
        <ele>583.18</ele>
        <time>2020-06-14T13:31:11Z</time>
      </trkpt>
      <trkpt lat="43.40636" lon="5.47043">
        <ele>583.18</ele>
        <time>2020-06-14T13:31:29Z</time>
      </trkpt>
      <trkpt lat="43.40639" lon="5.47043">
        <ele>583.18</ele>
        <time>2020-06-14T13:31:41Z</time>
      </trkpt>
      <trkpt lat="43.40638" lon="5.4704">
        <ele>585.58</ele>
        <time>2020-06-14T13:32:01Z</time>
      </trkpt>
      <trkpt lat="43.40639" lon="5.47039">
        <ele>586.06</ele>
        <time>2020-06-14T13:32:28Z</time>
      </trkpt>
      <trkpt lat="43.4064" lon="5.47039">
        <ele>586.54</ele>
        <time>2020-06-14T13:32:43Z</time>
      </trkpt>
      <trkpt lat="43.40641" lon="5.47041">
        <ele>586.54</ele>
        <time>2020-06-14T13:33:15Z</time>
      </trkpt>
      <trkpt lat="43.40639" lon="5.47043">
        <ele>581.73</ele>
        <time>2020-06-14T13:33:38Z</time>
      </trkpt>
      <trkpt lat="43.40635" lon="5.47049">
        <ele>577.89</ele>
        <time>2020-06-14T13:33:50Z</time>
      </trkpt>
      <trkpt lat="43.40635" lon="5.47051">
        <ele>575.01</ele>
        <time>2020-06-14T13:34:07Z</time>
      </trkpt>
      <trkpt lat="43.40633" lon="5.47059">
        <ele>573.56</ele>
        <time>2020-06-14T13:34:20Z</time>
      </trkpt>
      <trkpt lat="43.4063" lon="5.47063">
        <ele>571.16</ele>
        <time>2020-06-14T13:34:33Z</time>
      </trkpt>
      <trkpt lat="43.40631" lon="5.47066">
        <ele>569.72</ele>
        <time>2020-06-14T13:34:46Z</time>
      </trkpt>
      <trkpt lat="43.4063" lon="5.47074">
        <ele>568.28</ele>
        <time>2020-06-14T13:34:59Z</time>
      </trkpt>
      <trkpt lat="43.40632" lon="5.4708">
        <ele>569.24</ele>
        <time>2020-06-14T13:35:11Z</time>
      </trkpt>
      <trkpt lat="43.40633" lon="5.47088">
        <ele>566.83</ele>
        <time>2020-06-14T13:35:22Z</time>
      </trkpt>
      <trkpt lat="43.40636" lon="5.47088">
        <ele>563.47</ele>
        <time>2020-06-14T13:35:51Z</time>
      </trkpt>
      <trkpt lat="43.40637" lon="5.47087">
        <ele>566.83</ele>
        <time>2020-06-14T13:36:09Z</time>
      </trkpt>
      <trkpt lat="43.40634" lon="5.47091">
        <ele>565.39</ele>
        <time>2020-06-14T13:36:20Z</time>
      </trkpt>
      <trkpt lat="43.40634" lon="5.47096">
        <ele>565.39</ele>
        <time>2020-06-14T13:36:34Z</time>
      </trkpt>
      <trkpt lat="43.40633" lon="5.47099">
        <ele>564.91</ele>
        <time>2020-06-14T13:36:48Z</time>
      </trkpt>
      <trkpt lat="43.40633" lon="5.47105">
        <ele>564.91</ele>
        <time>2020-06-14T13:36:59Z</time>
      </trkpt>
      <trkpt lat="43.40634" lon="5.47111">
        <ele>567.32</ele>
        <time>2020-06-14T13:37:11Z</time>
      </trkpt>
      <trkpt lat="43.40631" lon="5.47117">
        <ele>566.83</ele>
        <time>2020-06-14T13:37:26Z</time>
      </trkpt>
      <trkpt lat="43.40632" lon="5.4712">
        <ele>566.35</ele>
        <time>2020-06-14T13:37:29Z</time>
      </trkpt>
      <trkpt lat="43.40632" lon="5.47129">
        <ele>564.43</ele>
        <time>2020-06-14T13:37:43Z</time>
      </trkpt>
      <trkpt lat="43.40632" lon="5.47138">
        <ele>562.99</ele>
        <time>2020-06-14T13:37:52Z</time>
      </trkpt>
      <trkpt lat="43.4063" lon="5.4715">
        <ele>560.59</ele>
        <time>2020-06-14T13:38:06Z</time>
      </trkpt>
      <trkpt lat="43.4063" lon="5.47151">
        <ele>560.11</ele>
        <time>2020-06-14T13:38:10Z</time>
      </trkpt>
      <trkpt lat="43.40626" lon="5.47155">
        <ele>559.14</ele>
        <time>2020-06-14T13:38:15Z</time>
      </trkpt>
      <trkpt lat="43.40622" lon="5.4716">
        <ele>558.66</ele>
        <time>2020-06-14T13:38:21Z</time>
      </trkpt>
      <trkpt lat="43.40619" lon="5.47165">
        <ele>558.66</ele>
        <time>2020-06-14T13:38:25Z</time>
      </trkpt>
      <trkpt lat="43.40614" lon="5.47178">
        <ele>558.18</ele>
        <time>2020-06-14T13:38:37Z</time>
      </trkpt>
      <trkpt lat="43.40611" lon="5.4719">
        <ele>556.26</ele>
        <time>2020-06-14T13:38:49Z</time>
      </trkpt>
      <trkpt lat="43.40605" lon="5.47208">
        <ele>556.26</ele>
        <time>2020-06-14T13:39:03Z</time>
      </trkpt>
      <trkpt lat="43.40601" lon="5.47222">
        <ele>553.38</ele>
        <time>2020-06-14T13:39:19Z</time>
      </trkpt>
      <trkpt lat="43.40591" lon="5.47231">
        <ele>552.41</ele>
        <time>2020-06-14T13:39:31Z</time>
      </trkpt>
      <trkpt lat="43.40588" lon="5.47234">
        <ele>552.9</ele>
        <time>2020-06-14T13:39:36Z</time>
      </trkpt>
      <trkpt lat="43.40578" lon="5.47245">
        <ele>554.34</ele>
        <time>2020-06-14T13:39:49Z</time>
      </trkpt>
      <trkpt lat="43.40574" lon="5.47247">
        <ele>554.82</ele>
        <time>2020-06-14T13:39:53Z</time>
      </trkpt>
      <trkpt lat="43.40568" lon="5.47257">
        <ele>555.3</ele>
        <time>2020-06-14T13:40:03Z</time>
      </trkpt>
      <trkpt lat="43.40574" lon="5.47269">
        <ele>555.3</ele>
        <time>2020-06-14T13:40:15Z</time>
      </trkpt>
      <trkpt lat="43.40578" lon="5.47274">
        <ele>554.34</ele>
        <time>2020-06-14T13:40:29Z</time>
      </trkpt>
      <trkpt lat="43.40582" lon="5.47278">
        <ele>553.38</ele>
        <time>2020-06-14T13:40:45Z</time>
      </trkpt>
      <trkpt lat="43.40588" lon="5.47283">
        <ele>550.97</ele>
        <time>2020-06-14T13:40:57Z</time>
      </trkpt>
      <trkpt lat="43.40594" lon="5.47279">
        <ele>549.05</ele>
        <time>2020-06-14T13:41:11Z</time>
      </trkpt>
      <trkpt lat="43.40598" lon="5.47276">
        <ele>546.17</ele>
        <time>2020-06-14T13:41:21Z</time>
      </trkpt>
      <trkpt lat="43.40602" lon="5.47274">
        <ele>544.24</ele>
        <time>2020-06-14T13:41:29Z</time>
      </trkpt>
      <trkpt lat="43.40604" lon="5.47274">
        <ele>544.24</ele>
        <time>2020-06-14T13:41:32Z</time>
      </trkpt>
      <trkpt lat="43.40605" lon="5.4727">
        <ele>543.28</ele>
        <time>2020-06-14T13:41:40Z</time>
      </trkpt>
      <trkpt lat="43.40611" lon="5.47271">
        <ele>538.48</ele>
        <time>2020-06-14T13:41:50Z</time>
      </trkpt>
      <trkpt lat="43.40615" lon="5.47268">
        <ele>535.11</ele>
        <time>2020-06-14T13:42:01Z</time>
      </trkpt>
      <trkpt lat="43.40619" lon="5.47264">
        <ele>532.71</ele>
        <time>2020-06-14T13:42:15Z</time>
      </trkpt>
      <trkpt lat="43.40624" lon="5.47263">
        <ele>529.34</ele>
        <time>2020-06-14T13:42:27Z</time>
      </trkpt>
      <trkpt lat="43.40631" lon="5.47259">
        <ele>528.86</ele>
        <time>2020-06-14T13:42:38Z</time>
      </trkpt>
      <trkpt lat="43.40641" lon="5.47249">
        <ele>525.02</ele>
        <time>2020-06-14T13:42:52Z</time>
      </trkpt>
      <trkpt lat="43.40644" lon="5.47248">
        <ele>522.61</ele>
        <time>2020-06-14T13:43:02Z</time>
      </trkpt>
      <trkpt lat="43.40648" lon="5.47247">
        <ele>520.69</ele>
        <time>2020-06-14T13:43:15Z</time>
      </trkpt>
      <trkpt lat="43.40654" lon="5.47246">
        <ele>520.69</ele>
        <time>2020-06-14T13:43:27Z</time>
      </trkpt>
      <trkpt lat="43.40656" lon="5.47243">
        <ele>521.65</ele>
        <time>2020-06-14T13:43:43Z</time>
      </trkpt>
      <trkpt lat="43.40657" lon="5.47245">
        <ele>520.69</ele>
        <time>2020-06-14T13:43:55Z</time>
      </trkpt>
      <trkpt lat="43.40657" lon="5.47253">
        <ele>521.65</ele>
        <time>2020-06-14T13:44:06Z</time>
      </trkpt>
      <trkpt lat="43.40658" lon="5.47257">
        <ele>522.61</ele>
        <time>2020-06-14T13:44:17Z</time>
      </trkpt>
      <trkpt lat="43.40662" lon="5.47264">
        <ele>521.65</ele>
        <time>2020-06-14T13:44:29Z</time>
      </trkpt>
      <trkpt lat="43.40663" lon="5.47269">
        <ele>521.17</ele>
        <time>2020-06-14T13:44:56Z</time>
      </trkpt>
      <trkpt lat="43.40663" lon="5.47268">
        <ele>517.81</ele>
        <time>2020-06-14T13:45:13Z</time>
      </trkpt>
      <trkpt lat="43.40664" lon="5.47266">
        <ele>517.33</ele>
        <time>2020-06-14T13:45:33Z</time>
      </trkpt>
      <trkpt lat="43.40667" lon="5.47271">
        <ele>516.85</ele>
        <time>2020-06-14T13:45:45Z</time>
      </trkpt>
      <trkpt lat="43.40671" lon="5.47276">
        <ele>517.81</ele>
        <time>2020-06-14T13:45:56Z</time>
      </trkpt>
      <trkpt lat="43.40675" lon="5.47278">
        <ele>517.81</ele>
        <time>2020-06-14T13:46:09Z</time>
      </trkpt>
      <trkpt lat="43.40683" lon="5.47285">
        <ele>518.77</ele>
        <time>2020-06-14T13:46:22Z</time>
      </trkpt>
      <trkpt lat="43.40688" lon="5.47289">
        <ele>520.69</ele>
        <time>2020-06-14T13:46:37Z</time>
      </trkpt>
      <trkpt lat="43.40691" lon="5.47288">
        <ele>518.29</ele>
        <time>2020-06-14T13:46:48Z</time>
      </trkpt>
      <trkpt lat="43.40696" lon="5.47291">
        <ele>516.37</ele>
        <time>2020-06-14T13:47:00Z</time>
      </trkpt>
      <trkpt lat="43.40703" lon="5.47294">
        <ele>515.88</ele>
        <time>2020-06-14T13:47:12Z</time>
      </trkpt>
      <trkpt lat="43.4071" lon="5.47295">
        <ele>513.48</ele>
        <time>2020-06-14T13:47:25Z</time>
      </trkpt>
      <trkpt lat="43.40714" lon="5.47295">
        <ele>512.04</ele>
        <time>2020-06-14T13:47:37Z</time>
      </trkpt>
      <trkpt lat="43.40716" lon="5.47296">
        <ele>510.12</ele>
        <time>2020-06-14T13:47:48Z</time>
      </trkpt>
      <trkpt lat="43.40722" lon="5.47302">
        <ele>507.23</ele>
        <time>2020-06-14T13:47:59Z</time>
      </trkpt>
      <trkpt lat="43.40727" lon="5.47304">
        <ele>503.39</ele>
        <time>2020-06-14T13:48:13Z</time>
      </trkpt>
      <trkpt lat="43.40728" lon="5.47303">
        <ele>500.98</ele>
        <time>2020-06-14T13:48:23Z</time>
      </trkpt>
      <trkpt lat="43.40733" lon="5.4731">
        <ele>496.18</ele>
        <time>2020-06-14T13:48:36Z</time>
      </trkpt>
      <trkpt lat="43.40737" lon="5.47314">
        <ele>494.74</ele>
        <time>2020-06-14T13:48:47Z</time>
      </trkpt>
      <trkpt lat="43.40742" lon="5.47316">
        <ele>491.37</ele>
        <time>2020-06-14T13:48:59Z</time>
      </trkpt>
      <trkpt lat="43.40745" lon="5.47319">
        <ele>488.49</ele>
        <time>2020-06-14T13:49:07Z</time>
      </trkpt>
      <trkpt lat="43.40749" lon="5.47322">
        <ele>486.56</ele>
        <time>2020-06-14T13:49:18Z</time>
      </trkpt>
      <trkpt lat="43.40754" lon="5.47323">
        <ele>486.08</ele>
        <time>2020-06-14T13:49:28Z</time>
      </trkpt>
      <trkpt lat="43.4076" lon="5.47329">
        <ele>486.08</ele>
        <time>2020-06-14T13:49:40Z</time>
      </trkpt>
      <trkpt lat="43.40767" lon="5.47331">
        <ele>484.64</ele>
        <time>2020-06-14T13:49:49Z</time>
      </trkpt>
      <trkpt lat="43.40772" lon="5.47333">
        <ele>483.68</ele>
        <time>2020-06-14T13:49:55Z</time>
      </trkpt>
      <trkpt lat="43.40782" lon="5.47329">
        <ele>479.35</ele>
        <time>2020-06-14T13:50:09Z</time>
      </trkpt>
      <trkpt lat="43.40789" lon="5.47328">
        <ele>474.07</ele>
        <time>2020-06-14T13:50:21Z</time>
      </trkpt>
      <trkpt lat="43.40797" lon="5.47325">
        <ele>469.74</ele>
        <time>2020-06-14T13:50:34Z</time>
      </trkpt>
      <trkpt lat="43.40803" lon="5.47326">
        <ele>473.11</ele>
        <time>2020-06-14T13:50:52Z</time>
      </trkpt>
      <trkpt lat="43.40808" lon="5.47328">
        <ele>470.22</ele>
        <time>2020-06-14T13:51:03Z</time>
      </trkpt>
      <trkpt lat="43.40809" lon="5.47328">
        <ele>469.74</ele>
        <time>2020-06-14T13:51:15Z</time>
      </trkpt>
      <trkpt lat="43.40811" lon="5.47325">
        <ele>470.22</ele>
        <time>2020-06-14T13:51:19Z</time>
      </trkpt>
      <trkpt lat="43.40819" lon="5.47321">
        <ele>471.18</ele>
        <time>2020-06-14T13:51:30Z</time>
      </trkpt>
      <trkpt lat="43.40824" lon="5.47323">
        <ele>469.74</ele>
        <time>2020-06-14T13:51:39Z</time>
      </trkpt>
      <trkpt lat="43.40828" lon="5.47323">
        <ele>468.3</ele>
        <time>2020-06-14T13:51:48Z</time>
      </trkpt>
      <trkpt lat="43.40832" lon="5.47325">
        <ele>471.66</ele>
        <time>2020-06-14T13:51:59Z</time>
      </trkpt>
      <trkpt lat="43.40838" lon="5.47327">
        <ele>472.63</ele>
        <time>2020-06-14T13:52:07Z</time>
      </trkpt>
      <trkpt lat="43.40848" lon="5.47326">
        <ele>471.66</ele>
        <time>2020-06-14T13:52:18Z</time>
      </trkpt>
      <trkpt lat="43.40855" lon="5.47329">
        <ele>469.74</ele>
        <time>2020-06-14T13:52:29Z</time>
      </trkpt>
      <trkpt lat="43.40859" lon="5.47331">
        <ele>465.42</ele>
        <time>2020-06-14T13:52:42Z</time>
      </trkpt>
      <trkpt lat="43.40866" lon="5.47335">
        <ele>465.42</ele>
        <time>2020-06-14T13:52:52Z</time>
      </trkpt>
      <trkpt lat="43.4087" lon="5.47337">
        <ele>465.9</ele>
        <time>2020-06-14T13:53:04Z</time>
      </trkpt>
      <trkpt lat="43.40875" lon="5.47343">
        <ele>463.97</ele>
        <time>2020-06-14T13:53:16Z</time>
      </trkpt>
      <trkpt lat="43.40884" lon="5.47346">
        <ele>462.05</ele>
        <time>2020-06-14T13:53:27Z</time>
      </trkpt>
      <trkpt lat="43.40891" lon="5.47353">
        <ele>463.01</ele>
        <time>2020-06-14T13:53:39Z</time>
      </trkpt>
      <trkpt lat="43.40899" lon="5.47351">
        <ele>461.09</ele>
        <time>2020-06-14T13:53:50Z</time>
      </trkpt>
      <trkpt lat="43.40901" lon="5.47349">
        <ele>459.65</ele>
        <time>2020-06-14T13:54:02Z</time>
      </trkpt>
      <trkpt lat="43.40906" lon="5.4735">
        <ele>457.24</ele>
        <time>2020-06-14T13:54:15Z</time>
      </trkpt>
      <trkpt lat="43.40911" lon="5.47349">
        <ele>452.44</ele>
        <time>2020-06-14T13:54:31Z</time>
      </trkpt>
      <trkpt lat="43.40915" lon="5.47354">
        <ele>453.4</ele>
        <time>2020-06-14T13:54:39Z</time>
      </trkpt>
      <trkpt lat="43.40917" lon="5.47356">
        <ele>452.92</ele>
        <time>2020-06-14T13:54:42Z</time>
      </trkpt>
      <trkpt lat="43.40919" lon="5.4736">
        <ele>453.88</ele>
        <time>2020-06-14T13:54:46Z</time>
      </trkpt>
      <trkpt lat="43.40929" lon="5.47365">
        <ele>458.21</ele>
        <time>2020-06-14T13:54:58Z</time>
      </trkpt>
      <trkpt lat="43.40938" lon="5.47366">
        <ele>460.13</ele>
        <time>2020-06-14T13:55:08Z</time>
      </trkpt>
      <trkpt lat="43.40945" lon="5.47365">
        <ele>460.13</ele>
        <time>2020-06-14T13:55:21Z</time>
      </trkpt>
      <trkpt lat="43.40954" lon="5.4736">
        <ele>458.69</ele>
        <time>2020-06-14T13:55:50Z</time>
      </trkpt>
      <trkpt lat="43.40952" lon="5.47362">
        <ele>452.92</ele>
        <time>2020-06-14T13:56:05Z</time>
      </trkpt>
      <trkpt lat="43.40953" lon="5.47359">
        <ele>452.44</ele>
        <time>2020-06-14T13:56:16Z</time>
      </trkpt>
      <trkpt lat="43.40952" lon="5.47363">
        <ele>450.52</ele>
        <time>2020-06-14T13:56:38Z</time>
      </trkpt>
      <trkpt lat="43.40956" lon="5.47361">
        <ele>447.15</ele>
        <time>2020-06-14T13:56:54Z</time>
      </trkpt>
      <trkpt lat="43.40961" lon="5.47361">
        <ele>445.23</ele>
        <time>2020-06-14T13:57:09Z</time>
      </trkpt>
      <trkpt lat="43.40968" lon="5.47366">
        <ele>444.75</ele>
        <time>2020-06-14T13:57:21Z</time>
      </trkpt>
      <trkpt lat="43.40973" lon="5.47369">
        <ele>446.67</ele>
        <time>2020-06-14T13:57:32Z</time>
      </trkpt>
      <trkpt lat="43.40974" lon="5.47366">
        <ele>448.59</ele>
        <time>2020-06-14T13:57:48Z</time>
      </trkpt>
      <trkpt lat="43.40976" lon="5.47366">
        <ele>447.63</ele>
        <time>2020-06-14T13:58:02Z</time>
      </trkpt>
      <trkpt lat="43.40984" lon="5.47367">
        <ele>443.79</ele>
        <time>2020-06-14T13:58:19Z</time>
      </trkpt>
      <trkpt lat="43.40988" lon="5.4737">
        <ele>442.34</ele>
        <time>2020-06-14T13:58:31Z</time>
      </trkpt>
      <trkpt lat="43.4099" lon="5.47373">
        <ele>442.82</ele>
        <time>2020-06-14T13:58:47Z</time>
      </trkpt>
      <trkpt lat="43.40992" lon="5.47371">
        <ele>445.71</ele>
        <time>2020-06-14T13:59:13Z</time>
      </trkpt>
      <trkpt lat="43.40999" lon="5.4737">
        <ele>446.67</ele>
        <time>2020-06-14T13:59:20Z</time>
      </trkpt>
      <trkpt lat="43.41007" lon="5.47372">
        <ele>446.67</ele>
        <time>2020-06-14T13:59:30Z</time>
      </trkpt>
      <trkpt lat="43.41015" lon="5.47372">
        <ele>445.71</ele>
        <time>2020-06-14T13:59:41Z</time>
      </trkpt>
      <trkpt lat="43.41015" lon="5.47372">
        <ele>445.71</ele>
        <time>2020-06-14T13:59:43Z</time>
      </trkpt>
      <trkpt lat="43.41018" lon="5.47373">
        <ele>445.71</ele>
        <time>2020-06-14T13:59:55Z</time>
      </trkpt>
      <trkpt lat="43.41025" lon="5.47372">
        <ele>444.75</ele>
        <time>2020-06-14T14:00:11Z</time>
      </trkpt>
      <trkpt lat="43.41032" lon="5.47373">
        <ele>445.23</ele>
        <time>2020-06-14T14:00:23Z</time>
      </trkpt>
      <trkpt lat="43.41039" lon="5.47372">
        <ele>443.79</ele>
        <time>2020-06-14T14:00:33Z</time>
      </trkpt>
      <trkpt lat="43.41043" lon="5.47373">
        <ele>442.34</ele>
        <time>2020-06-14T14:00:41Z</time>
      </trkpt>
      <trkpt lat="43.41049" lon="5.47372">
        <ele>439.94</ele>
        <time>2020-06-14T14:00:52Z</time>
      </trkpt>
      <trkpt lat="43.41052" lon="5.47371">
        <ele>439.94</ele>
        <time>2020-06-14T14:00:56Z</time>
      </trkpt>
      <trkpt lat="43.41054" lon="5.4737">
        <ele>439.94</ele>
        <time>2020-06-14T14:00:58Z</time>
      </trkpt>
      <trkpt lat="43.41059" lon="5.47371">
        <ele>439.46</ele>
        <time>2020-06-14T14:01:04Z</time>
      </trkpt>
      <trkpt lat="43.41069" lon="5.47372">
        <ele>438.98</ele>
        <time>2020-06-14T14:01:15Z</time>
      </trkpt>
      <trkpt lat="43.41081" lon="5.47368">
        <ele>436.58</ele>
        <time>2020-06-14T14:01:25Z</time>
      </trkpt>
      <trkpt lat="43.41091" lon="5.47372">
        <ele>436.1</ele>
        <time>2020-06-14T14:01:38Z</time>
      </trkpt>
      <trkpt lat="43.41098" lon="5.4738">
        <ele>435.13</ele>
        <time>2020-06-14T14:01:49Z</time>
      </trkpt>
      <trkpt lat="43.41098" lon="5.47381">
        <ele>435.13</ele>
        <time>2020-06-14T14:01:50Z</time>
      </trkpt>
      <trkpt lat="43.41107" lon="5.47387">
        <ele>434.65</ele>
        <time>2020-06-14T14:02:02Z</time>
      </trkpt>
      <trkpt lat="43.41117" lon="5.4739">
        <ele>435.13</ele>
        <time>2020-06-14T14:02:13Z</time>
      </trkpt>
      <trkpt lat="43.41126" lon="5.47398">
        <ele>431.77</ele>
        <time>2020-06-14T14:02:25Z</time>
      </trkpt>
      <trkpt lat="43.41133" lon="5.47404">
        <ele>432.25</ele>
        <time>2020-06-14T14:02:37Z</time>
      </trkpt>
      <trkpt lat="43.41139" lon="5.47412">
        <ele>436.1</ele>
        <time>2020-06-14T14:02:49Z</time>
      </trkpt>
      <trkpt lat="43.41148" lon="5.4742">
        <ele>437.54</ele>
        <time>2020-06-14T14:03:01Z</time>
      </trkpt>
      <trkpt lat="43.4115" lon="5.47418">
        <ele>436.58</ele>
        <time>2020-06-14T14:03:09Z</time>
      </trkpt>
      <trkpt lat="43.41158" lon="5.47426">
        <ele>433.21</ele>
        <time>2020-06-14T14:03:20Z</time>
      </trkpt>
      <trkpt lat="43.41158" lon="5.47421">
        <ele>435.61</ele>
        <time>2020-06-14T14:03:38Z</time>
      </trkpt>
      <trkpt lat="43.4116" lon="5.47427">
        <ele>436.1</ele>
        <time>2020-06-14T14:03:55Z</time>
      </trkpt>
      <trkpt lat="43.41161" lon="5.47428">
        <ele>436.58</ele>
        <time>2020-06-14T14:03:56Z</time>
      </trkpt>
      <trkpt lat="43.41166" lon="5.47437">
        <ele>437.54</ele>
        <time>2020-06-14T14:04:10Z</time>
      </trkpt>
      <trkpt lat="43.41172" lon="5.47448">
        <ele>436.58</ele>
        <time>2020-06-14T14:04:25Z</time>
      </trkpt>
      <trkpt lat="43.41174" lon="5.47451">
        <ele>436.1</ele>
        <time>2020-06-14T14:04:27Z</time>
      </trkpt>
      <trkpt lat="43.4118" lon="5.47462">
        <ele>437.06</ele>
        <time>2020-06-14T14:04:39Z</time>
      </trkpt>
      <trkpt lat="43.41182" lon="5.47468">
        <ele>438.02</ele>
        <time>2020-06-14T14:04:55Z</time>
      </trkpt>
      <trkpt lat="43.41185" lon="5.47473">
        <ele>437.54</ele>
        <time>2020-06-14T14:05:01Z</time>
      </trkpt>
      <trkpt lat="43.41192" lon="5.47487">
        <ele>433.21</ele>
        <time>2020-06-14T14:05:14Z</time>
      </trkpt>
      <trkpt lat="43.41197" lon="5.47501">
        <ele>432.25</ele>
        <time>2020-06-14T14:05:26Z</time>
      </trkpt>
      <trkpt lat="43.41209" lon="5.47515">
        <ele>431.77</ele>
        <time>2020-06-14T14:05:38Z</time>
      </trkpt>
      <trkpt lat="43.41219" lon="5.47524">
        <ele>429.85</ele>
        <time>2020-06-14T14:05:47Z</time>
      </trkpt>
      <trkpt lat="43.41227" lon="5.47528">
        <ele>428.4</ele>
        <time>2020-06-14T14:05:55Z</time>
      </trkpt>
      <trkpt lat="43.41234" lon="5.47531">
        <ele>426.96</ele>
        <time>2020-06-14T14:06:04Z</time>
      </trkpt>
      <trkpt lat="43.41245" lon="5.4753">
        <ele>427.92</ele>
        <time>2020-06-14T14:06:15Z</time>
      </trkpt>
      <trkpt lat="43.41253" lon="5.47534">
        <ele>432.25</ele>
        <time>2020-06-14T14:06:28Z</time>
      </trkpt>
      <trkpt lat="43.41259" lon="5.47534">
        <ele>435.13</ele>
        <time>2020-06-14T14:06:37Z</time>
      </trkpt>
      <trkpt lat="43.4127" lon="5.47533">
        <ele>437.06</ele>
        <time>2020-06-14T14:06:47Z</time>
      </trkpt>
      <trkpt lat="43.41284" lon="5.47531">
        <ele>437.06</ele>
        <time>2020-06-14T14:07:00Z</time>
      </trkpt>
      <trkpt lat="43.41296" lon="5.47534">
        <ele>438.98</ele>
        <time>2020-06-14T14:07:13Z</time>
      </trkpt>
      <trkpt lat="43.4131" lon="5.47524">
        <ele>438.5</ele>
        <time>2020-06-14T14:07:25Z</time>
      </trkpt>
      <trkpt lat="43.41316" lon="5.47527">
        <ele>435.61</ele>
        <time>2020-06-14T14:07:37Z</time>
      </trkpt>
      <trkpt lat="43.41321" lon="5.47529">
        <ele>434.17</ele>
        <time>2020-06-14T14:07:48Z</time>
      </trkpt>
      <trkpt lat="43.41329" lon="5.47537">
        <ele>431.29</ele>
        <time>2020-06-14T14:08:00Z</time>
      </trkpt>
      <trkpt lat="43.41337" lon="5.47541">
        <ele>433.21</ele>
        <time>2020-06-14T14:08:14Z</time>
      </trkpt>
      <trkpt lat="43.41346" lon="5.47538">
        <ele>430.81</ele>
        <time>2020-06-14T14:08:42Z</time>
      </trkpt>
      <trkpt lat="43.41349" lon="5.47543">
        <ele>428.89</ele>
        <time>2020-06-14T14:09:00Z</time>
      </trkpt>
      <trkpt lat="43.41356" lon="5.47548">
        <ele>426.96</ele>
        <time>2020-06-14T14:09:12Z</time>
      </trkpt>
      <trkpt lat="43.41365" lon="5.47553">
        <ele>427.92</ele>
        <time>2020-06-14T14:09:23Z</time>
      </trkpt>
      <trkpt lat="43.41376" lon="5.47556">
        <ele>430.81</ele>
        <time>2020-06-14T14:09:38Z</time>
      </trkpt>
      <trkpt lat="43.41378" lon="5.4756">
        <ele>432.73</ele>
        <time>2020-06-14T14:09:47Z</time>
      </trkpt>
      <trkpt lat="43.41379" lon="5.4757">
        <ele>436.1</ele>
        <time>2020-06-14T14:09:58Z</time>
      </trkpt>
      <trkpt lat="43.41381" lon="5.47581">
        <ele>441.38</ele>
        <time>2020-06-14T14:10:11Z</time>
      </trkpt>
      <trkpt lat="43.41382" lon="5.47594">
        <ele>444.27</ele>
        <time>2020-06-14T14:10:24Z</time>
      </trkpt>
      <trkpt lat="43.41382" lon="5.47599">
        <ele>445.71</ele>
        <time>2020-06-14T14:10:29Z</time>
      </trkpt>
      <trkpt lat="43.41383" lon="5.47606">
        <ele>447.15</ele>
        <time>2020-06-14T14:10:33Z</time>
      </trkpt>
      <trkpt lat="43.41384" lon="5.47621">
        <ele>450.03</ele>
        <time>2020-06-14T14:10:44Z</time>
      </trkpt>
      <trkpt lat="43.41384" lon="5.47629">
        <ele>451</ele>
        <time>2020-06-14T14:10:52Z</time>
      </trkpt>
      <trkpt lat="43.41385" lon="5.47634">
        <ele>451</ele>
        <time>2020-06-14T14:10:55Z</time>
      </trkpt>
      <trkpt lat="43.41385" lon="5.47642">
        <ele>451</ele>
        <time>2020-06-14T14:11:00Z</time>
      </trkpt>
      <trkpt lat="43.41387" lon="5.4766">
        <ele>451.96</ele>
        <time>2020-06-14T14:11:12Z</time>
      </trkpt>
      <trkpt lat="43.41388" lon="5.47673">
        <ele>444.75</ele>
        <time>2020-06-14T14:11:24Z</time>
      </trkpt>
      <trkpt lat="43.41388" lon="5.47675">
        <ele>444.27</ele>
        <time>2020-06-14T14:11:26Z</time>
      </trkpt>
      <trkpt lat="43.41386" lon="5.47679">
        <ele>443.79</ele>
        <time>2020-06-14T14:11:30Z</time>
      </trkpt>
      <trkpt lat="43.41383" lon="5.47686">
        <ele>444.75</ele>
        <time>2020-06-14T14:11:39Z</time>
      </trkpt>
      <trkpt lat="43.41374" lon="5.47683">
        <ele>442.34</ele>
        <time>2020-06-14T14:11:49Z</time>
      </trkpt>
      <trkpt lat="43.41372" lon="5.4769">
        <ele>439.94</ele>
        <time>2020-06-14T14:12:00Z</time>
      </trkpt>
      <trkpt lat="43.41368" lon="5.47692">
        <ele>438.02</ele>
        <time>2020-06-14T14:12:36Z</time>
      </trkpt>
      <trkpt lat="43.41373" lon="5.47701">
        <ele>432.25</ele>
        <time>2020-06-14T14:12:47Z</time>
      </trkpt>
      <trkpt lat="43.41374" lon="5.477">
        <ele>430.33</ele>
        <time>2020-06-14T14:12:49Z</time>
      </trkpt>
      <trkpt lat="43.41378" lon="5.47699">
        <ele>428.89</ele>
        <time>2020-06-14T14:12:52Z</time>
      </trkpt>
      <trkpt lat="43.41379" lon="5.47699">
        <ele>427.92</ele>
        <time>2020-06-14T14:12:54Z</time>
      </trkpt>
      <trkpt lat="43.41382" lon="5.47701">
        <ele>427.44</ele>
        <time>2020-06-14T14:12:56Z</time>
      </trkpt>
      <trkpt lat="43.41393" lon="5.47691">
        <ele>429.85</ele>
        <time>2020-06-14T14:13:09Z</time>
      </trkpt>
      <trkpt lat="43.41393" lon="5.47693">
        <ele>426.48</ele>
        <time>2020-06-14T14:13:21Z</time>
      </trkpt>
      <trkpt lat="43.41397" lon="5.47698">
        <ele>428.4</ele>
        <time>2020-06-14T14:13:32Z</time>
      </trkpt>
      <trkpt lat="43.414" lon="5.47699">
        <ele>429.37</ele>
        <time>2020-06-14T14:13:35Z</time>
      </trkpt>
      <trkpt lat="43.41409" lon="5.47702">
        <ele>429.85</ele>
        <time>2020-06-14T14:13:49Z</time>
      </trkpt>
      <trkpt lat="43.41411" lon="5.47702">
        <ele>429.85</ele>
        <time>2020-06-14T14:13:52Z</time>
      </trkpt>
      <trkpt lat="43.41413" lon="5.47704">
        <ele>431.29</ele>
        <time>2020-06-14T14:13:56Z</time>
      </trkpt>
      <trkpt lat="43.41423" lon="5.47699">
        <ele>431.77</ele>
        <time>2020-06-14T14:14:11Z</time>
      </trkpt>
      <trkpt lat="43.41422" lon="5.47697">
        <ele>431.77</ele>
        <time>2020-06-14T14:14:14Z</time>
      </trkpt>
      <trkpt lat="43.41423" lon="5.47691">
        <ele>431.29</ele>
        <time>2020-06-14T14:14:24Z</time>
      </trkpt>
      <trkpt lat="43.41424" lon="5.4769">
        <ele>431.29</ele>
        <time>2020-06-14T14:14:26Z</time>
      </trkpt>
      <trkpt lat="43.41428" lon="5.47686">
        <ele>431.77</ele>
        <time>2020-06-14T14:14:31Z</time>
      </trkpt>
      <trkpt lat="43.41431" lon="5.47677">
        <ele>431.77</ele>
        <time>2020-06-14T14:14:37Z</time>
      </trkpt>
      <trkpt lat="43.41434" lon="5.47661">
        <ele>431.29</ele>
        <time>2020-06-14T14:14:50Z</time>
      </trkpt>
      <trkpt lat="43.41436" lon="5.47644">
        <ele>432.25</ele>
        <time>2020-06-14T14:15:02Z</time>
      </trkpt>
      <trkpt lat="43.41436" lon="5.47638">
        <ele>432.73</ele>
        <time>2020-06-14T14:15:06Z</time>
      </trkpt>
      <trkpt lat="43.41436" lon="5.47636">
        <ele>432.25</ele>
        <time>2020-06-14T14:15:08Z</time>
      </trkpt>
      <trkpt lat="43.41436" lon="5.47628">
        <ele>431.29</ele>
        <time>2020-06-14T14:15:13Z</time>
      </trkpt>
      <trkpt lat="43.41437" lon="5.47625">
        <ele>430.81</ele>
        <time>2020-06-14T14:15:15Z</time>
      </trkpt>
      <trkpt lat="43.41436" lon="5.47622">
        <ele>429.85</ele>
        <time>2020-06-14T14:15:17Z</time>
      </trkpt>
      <trkpt lat="43.41437" lon="5.47615">
        <ele>429.85</ele>
        <time>2020-06-14T14:15:22Z</time>
      </trkpt>
      <trkpt lat="43.41438" lon="5.47609">
        <ele>429.85</ele>
        <time>2020-06-14T14:15:26Z</time>
      </trkpt>
      <trkpt lat="43.41439" lon="5.47595">
        <ele>429.85</ele>
        <time>2020-06-14T14:15:35Z</time>
      </trkpt>
      <trkpt lat="43.41439" lon="5.47579">
        <ele>429.85</ele>
        <time>2020-06-14T14:15:46Z</time>
      </trkpt>
      <trkpt lat="43.41441" lon="5.47575">
        <ele>429.37</ele>
        <time>2020-06-14T14:15:51Z</time>
      </trkpt>
      <trkpt lat="43.41451" lon="5.47571">
        <ele>428.89</ele>
        <time>2020-06-14T14:16:05Z</time>
      </trkpt>
      <trkpt lat="43.41462" lon="5.47567">
        <ele>428.89</ele>
        <time>2020-06-14T14:16:15Z</time>
      </trkpt>
      <trkpt lat="43.4147" lon="5.47561">
        <ele>430.33</ele>
        <time>2020-06-14T14:16:27Z</time>
      </trkpt>
      <trkpt lat="43.41477" lon="5.47557">
        <ele>428.89</ele>
        <time>2020-06-14T14:16:35Z</time>
      </trkpt>
      <trkpt lat="43.41479" lon="5.47553">
        <ele>427.44</ele>
        <time>2020-06-14T14:16:59Z</time>
      </trkpt>
      <trkpt lat="43.41486" lon="5.4755">
        <ele>425.04</ele>
        <time>2020-06-14T14:17:17Z</time>
      </trkpt>
      <trkpt lat="43.41488" lon="5.47548">
        <ele>425.52</ele>
        <time>2020-06-14T14:17:21Z</time>
      </trkpt>
      <trkpt lat="43.41498" lon="5.4754">
        <ele>423.12</ele>
        <time>2020-06-14T14:17:34Z</time>
      </trkpt>
      <trkpt lat="43.41505" lon="5.47539">
        <ele>423.6</ele>
        <time>2020-06-14T14:17:42Z</time>
      </trkpt>
      <trkpt lat="43.41517" lon="5.47532">
        <ele>423.12</ele>
        <time>2020-06-14T14:17:56Z</time>
      </trkpt>
      <trkpt lat="43.41525" lon="5.47527">
        <ele>425.04</ele>
        <time>2020-06-14T14:18:06Z</time>
      </trkpt>
      <trkpt lat="43.4153" lon="5.47521">
        <ele>425.04</ele>
        <time>2020-06-14T14:18:12Z</time>
      </trkpt>
      <trkpt lat="43.4154" lon="5.47506">
        <ele>425.52</ele>
        <time>2020-06-14T14:18:25Z</time>
      </trkpt>
      <trkpt lat="43.41546" lon="5.47496">
        <ele>425.04</ele>
        <time>2020-06-14T14:18:34Z</time>
      </trkpt>
      <trkpt lat="43.4155" lon="5.47492">
        <ele>424.08</ele>
        <time>2020-06-14T14:18:38Z</time>
      </trkpt>
      <trkpt lat="43.41551" lon="5.47487">
        <ele>424.08</ele>
        <time>2020-06-14T14:18:42Z</time>
      </trkpt>
      <trkpt lat="43.41551" lon="5.4749">
        <ele>423.12</ele>
        <time>2020-06-14T14:18:54Z</time>
      </trkpt>
      <trkpt lat="43.41553" lon="5.47483">
        <ele>423.12</ele>
        <time>2020-06-14T14:19:01Z</time>
      </trkpt>
      <trkpt lat="43.41559" lon="5.47473">
        <ele>422.16</ele>
        <time>2020-06-14T14:19:11Z</time>
      </trkpt>
      <trkpt lat="43.41563" lon="5.47461">
        <ele>421.19</ele>
        <time>2020-06-14T14:19:21Z</time>
      </trkpt>
      <trkpt lat="43.41567" lon="5.47448">
        <ele>420.71</ele>
        <time>2020-06-14T14:19:32Z</time>
      </trkpt>
      <trkpt lat="43.4157" lon="5.47437">
        <ele>421.19</ele>
        <time>2020-06-14T14:19:42Z</time>
      </trkpt>
      <trkpt lat="43.4157" lon="5.47436">
        <ele>421.68</ele>
        <time>2020-06-14T14:19:43Z</time>
      </trkpt>
      <trkpt lat="43.4158" lon="5.47421">
        <ele>424.08</ele>
        <time>2020-06-14T14:19:56Z</time>
      </trkpt>
      <trkpt lat="43.41587" lon="5.47408">
        <ele>425.52</ele>
        <time>2020-06-14T14:20:07Z</time>
      </trkpt>
      <trkpt lat="43.41595" lon="5.47396">
        <ele>425.04</ele>
        <time>2020-06-14T14:20:19Z</time>
      </trkpt>
      <trkpt lat="43.41603" lon="5.47386">
        <ele>425.52</ele>
        <time>2020-06-14T14:20:31Z</time>
      </trkpt>
      <trkpt lat="43.41606" lon="5.47387">
        <ele>426.48</ele>
        <time>2020-06-14T14:20:36Z</time>
      </trkpt>
      <trkpt lat="43.41613" lon="5.47385">
        <ele>426.48</ele>
        <time>2020-06-14T14:20:44Z</time>
      </trkpt>
      <trkpt lat="43.41618" lon="5.47382">
        <ele>426.96</ele>
        <time>2020-06-14T14:20:50Z</time>
      </trkpt>
      <trkpt lat="43.41627" lon="5.4738">
        <ele>427.92</ele>
        <time>2020-06-14T14:21:01Z</time>
      </trkpt>
      <trkpt lat="43.41627" lon="5.4738">
        <ele>427.92</ele>
        <time>2020-06-14T14:21:02Z</time>
      </trkpt>
      <trkpt lat="43.41637" lon="5.47374">
        <ele>427.44</ele>
        <time>2020-06-14T14:21:11Z</time>
      </trkpt>
      <trkpt lat="43.41649" lon="5.47362">
        <ele>427.44</ele>
        <time>2020-06-14T14:21:24Z</time>
      </trkpt>
      <trkpt lat="43.41656" lon="5.47353">
        <ele>427.44</ele>
        <time>2020-06-14T14:21:35Z</time>
      </trkpt>
      <trkpt lat="43.41665" lon="5.47344">
        <ele>429.37</ele>
        <time>2020-06-14T14:21:48Z</time>
      </trkpt>
      <trkpt lat="43.41669" lon="5.47341">
        <ele>429.37</ele>
        <time>2020-06-14T14:21:53Z</time>
      </trkpt>
      <trkpt lat="43.41676" lon="5.47339">
        <ele>430.33</ele>
        <time>2020-06-14T14:22:00Z</time>
      </trkpt>
      <trkpt lat="43.41682" lon="5.47337">
        <ele>430.81</ele>
        <time>2020-06-14T14:22:07Z</time>
      </trkpt>
      <trkpt lat="43.41683" lon="5.47335">
        <ele>430.81</ele>
        <time>2020-06-14T14:22:09Z</time>
      </trkpt>
      <trkpt lat="43.41694" lon="5.47327">
        <ele>431.77</ele>
        <time>2020-06-14T14:22:22Z</time>
      </trkpt>
      <trkpt lat="43.41704" lon="5.47319">
        <ele>432.25</ele>
        <time>2020-06-14T14:22:34Z</time>
      </trkpt>
      <trkpt lat="43.41715" lon="5.47305">
        <ele>434.17</ele>
        <time>2020-06-14T14:22:48Z</time>
      </trkpt>
      <trkpt lat="43.41723" lon="5.47294">
        <ele>434.17</ele>
        <time>2020-06-14T14:22:59Z</time>
      </trkpt>
      <trkpt lat="43.41729" lon="5.47277">
        <ele>433.69</ele>
        <time>2020-06-14T14:23:09Z</time>
      </trkpt>
      <trkpt lat="43.41736" lon="5.47265">
        <ele>433.21</ele>
        <time>2020-06-14T14:23:20Z</time>
      </trkpt>
      <trkpt lat="43.41741" lon="5.47251">
        <ele>432.73</ele>
        <time>2020-06-14T14:23:31Z</time>
      </trkpt>
      <trkpt lat="43.41748" lon="5.47241">
        <ele>429.85</ele>
        <time>2020-06-14T14:23:40Z</time>
      </trkpt>
      <trkpt lat="43.4175" lon="5.47237">
        <ele>428.89</ele>
        <time>2020-06-14T14:23:43Z</time>
      </trkpt>
      <trkpt lat="43.4176" lon="5.47221">
        <ele>426</ele>
        <time>2020-06-14T14:23:56Z</time>
      </trkpt>
      <trkpt lat="43.41763" lon="5.47217">
        <ele>425.52</ele>
        <time>2020-06-14T14:24:00Z</time>
      </trkpt>
      <trkpt lat="43.41764" lon="5.47214">
        <ele>425.52</ele>
        <time>2020-06-14T14:24:02Z</time>
      </trkpt>
      <trkpt lat="43.41769" lon="5.47207">
        <ele>425.52</ele>
        <time>2020-06-14T14:24:09Z</time>
      </trkpt>
      <trkpt lat="43.41774" lon="5.47193">
        <ele>426.48</ele>
        <time>2020-06-14T14:24:21Z</time>
      </trkpt>
      <trkpt lat="43.41784" lon="5.4718">
        <ele>424.08</ele>
        <time>2020-06-14T14:24:34Z</time>
      </trkpt>
      <trkpt lat="43.41792" lon="5.4717">
        <ele>421.68</ele>
        <time>2020-06-14T14:24:46Z</time>
      </trkpt>
      <trkpt lat="43.41797" lon="5.47161">
        <ele>420.71</ele>
        <time>2020-06-14T14:24:55Z</time>
      </trkpt>
      <trkpt lat="43.41802" lon="5.47153">
        <ele>420.71</ele>
        <time>2020-06-14T14:25:07Z</time>
      </trkpt>
      <trkpt lat="43.41808" lon="5.47143">
        <ele>420.23</ele>
        <time>2020-06-14T14:25:18Z</time>
      </trkpt>
      <trkpt lat="43.41809" lon="5.47139">
        <ele>420.71</ele>
        <time>2020-06-14T14:25:27Z</time>
      </trkpt>
      <trkpt lat="43.41815" lon="5.47131">
        <ele>418.79</ele>
        <time>2020-06-14T14:25:35Z</time>
      </trkpt>
      <trkpt lat="43.41816" lon="5.47129">
        <ele>418.31</ele>
        <time>2020-06-14T14:25:37Z</time>
      </trkpt>
      <trkpt lat="43.41826" lon="5.47116">
        <ele>416.39</ele>
        <time>2020-06-14T14:25:51Z</time>
      </trkpt>
      <trkpt lat="43.41833" lon="5.47103">
        <ele>415.43</ele>
        <time>2020-06-14T14:26:02Z</time>
      </trkpt>
      <trkpt lat="43.41838" lon="5.47094">
        <ele>415.43</ele>
        <time>2020-06-14T14:26:11Z</time>
      </trkpt>
      <trkpt lat="43.41843" lon="5.47084">
        <ele>414.47</ele>
        <time>2020-06-14T14:26:20Z</time>
      </trkpt>
      <trkpt lat="43.41849" lon="5.4707">
        <ele>414.95</ele>
        <time>2020-06-14T14:26:32Z</time>
      </trkpt>
      <trkpt lat="43.41855" lon="5.47055">
        <ele>413.98</ele>
        <time>2020-06-14T14:26:44Z</time>
      </trkpt>
      <trkpt lat="43.41856" lon="5.47053">
        <ele>413.98</ele>
        <time>2020-06-14T14:26:46Z</time>
      </trkpt>
      <trkpt lat="43.41862" lon="5.47039">
        <ele>413.5</ele>
        <time>2020-06-14T14:26:59Z</time>
      </trkpt>
      <trkpt lat="43.41864" lon="5.47035">
        <ele>413.02</ele>
        <time>2020-06-14T14:27:03Z</time>
      </trkpt>
      <trkpt lat="43.41866" lon="5.47033">
        <ele>413.02</ele>
        <time>2020-06-14T14:27:05Z</time>
      </trkpt>
      <trkpt lat="43.41867" lon="5.4703">
        <ele>412.54</ele>
        <time>2020-06-14T14:27:07Z</time>
      </trkpt>
      <trkpt lat="43.41874" lon="5.47019">
        <ele>410.14</ele>
        <time>2020-06-14T14:27:18Z</time>
      </trkpt>
      <trkpt lat="43.41881" lon="5.47008">
        <ele>408.22</ele>
        <time>2020-06-14T14:27:28Z</time>
      </trkpt>
      <trkpt lat="43.41888" lon="5.46994">
        <ele>405.81</ele>
        <time>2020-06-14T14:27:39Z</time>
      </trkpt>
      <trkpt lat="43.41889" lon="5.46992">
        <ele>405.33</ele>
        <time>2020-06-14T14:27:41Z</time>
      </trkpt>
      <trkpt lat="43.4189" lon="5.4699">
        <ele>404.85</ele>
        <time>2020-06-14T14:27:43Z</time>
      </trkpt>
      <trkpt lat="43.41899" lon="5.4698">
        <ele>401.49</ele>
        <time>2020-06-14T14:27:55Z</time>
      </trkpt>
      <trkpt lat="43.41905" lon="5.46973">
        <ele>400.53</ele>
        <time>2020-06-14T14:28:03Z</time>
      </trkpt>
      <trkpt lat="43.41916" lon="5.46958">
        <ele>398.6</ele>
        <time>2020-06-14T14:28:18Z</time>
      </trkpt>
      <trkpt lat="43.41922" lon="5.46948">
        <ele>397.64</ele>
        <time>2020-06-14T14:28:27Z</time>
      </trkpt>
      <trkpt lat="43.41929" lon="5.46937">
        <ele>395.72</ele>
        <time>2020-06-14T14:28:39Z</time>
      </trkpt>
      <trkpt lat="43.41935" lon="5.46924">
        <ele>393.32</ele>
        <time>2020-06-14T14:28:50Z</time>
      </trkpt>
      <trkpt lat="43.41941" lon="5.4691">
        <ele>391.87</ele>
        <time>2020-06-14T14:29:03Z</time>
      </trkpt>
      <trkpt lat="43.41947" lon="5.46896">
        <ele>390.91</ele>
        <time>2020-06-14T14:29:15Z</time>
      </trkpt>
      <trkpt lat="43.41952" lon="5.46882">
        <ele>389.47</ele>
        <time>2020-06-14T14:29:26Z</time>
      </trkpt>
      <trkpt lat="43.41959" lon="5.46867">
        <ele>388.03</ele>
        <time>2020-06-14T14:29:39Z</time>
      </trkpt>
      <trkpt lat="43.4196" lon="5.46861">
        <ele>388.03</ele>
        <time>2020-06-14T14:29:52Z</time>
      </trkpt>
      <trkpt lat="43.41963" lon="5.46858">
        <ele>389.95</ele>
        <time>2020-06-14T14:30:21Z</time>
      </trkpt>
      <trkpt lat="43.41963" lon="5.46858">
        <ele>389.95</ele>
        <time>2020-06-14T14:30:40Z</time>
      </trkpt>
      <trkpt lat="43.41963" lon="5.46859">
        <ele>389.47</ele>
        <time>2020-06-14T14:30:54Z</time>
      </trkpt>
      <trkpt lat="43.41969" lon="5.4685">
        <ele>389.47</ele>
        <time>2020-06-14T14:31:05Z</time>
      </trkpt>
      <trkpt lat="43.41975" lon="5.46837">
        <ele>387.55</ele>
        <time>2020-06-14T14:31:17Z</time>
      </trkpt>
      <trkpt lat="43.41981" lon="5.46823">
        <ele>386.11</ele>
        <time>2020-06-14T14:31:28Z</time>
      </trkpt>
      <trkpt lat="43.41984" lon="5.46819">
        <ele>386.11</ele>
        <time>2020-06-14T14:31:32Z</time>
      </trkpt>
      <trkpt lat="43.41985" lon="5.46816">
        <ele>386.11</ele>
        <time>2020-06-14T14:31:34Z</time>
      </trkpt>
      <trkpt lat="43.41992" lon="5.468">
        <ele>385.63</ele>
        <time>2020-06-14T14:31:48Z</time>
      </trkpt>
      <trkpt lat="43.41999" lon="5.46785">
        <ele>385.63</ele>
        <time>2020-06-14T14:32:01Z</time>
      </trkpt>
      <trkpt lat="43.42001" lon="5.46776">
        <ele>384.66</ele>
        <time>2020-06-14T14:32:10Z</time>
      </trkpt>
      <trkpt lat="43.42004" lon="5.46764">
        <ele>382.74</ele>
        <time>2020-06-14T14:32:22Z</time>
      </trkpt>
      <trkpt lat="43.42009" lon="5.46749">
        <ele>380.34</ele>
        <time>2020-06-14T14:32:35Z</time>
      </trkpt>
      <trkpt lat="43.42017" lon="5.46734">
        <ele>376.49</ele>
        <time>2020-06-14T14:32:48Z</time>
      </trkpt>
      <trkpt lat="43.42024" lon="5.46721">
        <ele>375.53</ele>
        <time>2020-06-14T14:33:01Z</time>
      </trkpt>
      <trkpt lat="43.42025" lon="5.4672">
        <ele>375.05</ele>
        <time>2020-06-14T14:33:03Z</time>
      </trkpt>
      <trkpt lat="43.42028" lon="5.46716">
        <ele>374.57</ele>
        <time>2020-06-14T14:33:07Z</time>
      </trkpt>
      <trkpt lat="43.42035" lon="5.46718">
        <ele>371.21</ele>
        <time>2020-06-14T14:33:19Z</time>
      </trkpt>
      <trkpt lat="43.42038" lon="5.46721">
        <ele>370.24</ele>
        <time>2020-06-14T14:33:25Z</time>
      </trkpt>
      <trkpt lat="43.42039" lon="5.46723">
        <ele>370.24</ele>
        <time>2020-06-14T14:33:27Z</time>
      </trkpt>
      <trkpt lat="43.42042" lon="5.46733">
        <ele>368.32</ele>
        <time>2020-06-14T14:33:38Z</time>
      </trkpt>
      <trkpt lat="43.42044" lon="5.46744">
        <ele>366.4</ele>
        <time>2020-06-14T14:33:50Z</time>
      </trkpt>
      <trkpt lat="43.42044" lon="5.46746">
        <ele>366.4</ele>
        <time>2020-06-14T14:33:52Z</time>
      </trkpt>
      <trkpt lat="43.42046" lon="5.46757">
        <ele>364.96</ele>
        <time>2020-06-14T14:34:04Z</time>
      </trkpt>
      <trkpt lat="43.42048" lon="5.46768">
        <ele>363.04</ele>
        <time>2020-06-14T14:34:15Z</time>
      </trkpt>
      <trkpt lat="43.42045" lon="5.46781">
        <ele>362.55</ele>
        <time>2020-06-14T14:34:27Z</time>
      </trkpt>
      <trkpt lat="43.42044" lon="5.46795">
        <ele>361.11</ele>
        <time>2020-06-14T14:34:39Z</time>
      </trkpt>
      <trkpt lat="43.42045" lon="5.46798">
        <ele>360.63</ele>
        <time>2020-06-14T14:34:41Z</time>
      </trkpt>
      <trkpt lat="43.42046" lon="5.46801">
        <ele>360.15</ele>
        <time>2020-06-14T14:34:43Z</time>
      </trkpt>
      <trkpt lat="43.4205" lon="5.46804">
        <ele>359.67</ele>
        <time>2020-06-14T14:34:49Z</time>
      </trkpt>
      <trkpt lat="43.42055" lon="5.46803">
        <ele>359.19</ele>
        <time>2020-06-14T14:34:55Z</time>
      </trkpt>
      <trkpt lat="43.42059" lon="5.46784">
        <ele>359.19</ele>
        <time>2020-06-14T14:35:08Z</time>
      </trkpt>
      <trkpt lat="43.42061" lon="5.46774">
        <ele>362.07</ele>
        <time>2020-06-14T14:35:19Z</time>
      </trkpt>
      <trkpt lat="43.42065" lon="5.46759">
        <ele>362.55</ele>
        <time>2020-06-14T14:35:32Z</time>
      </trkpt>
      <trkpt lat="43.4207" lon="5.46743">
        <ele>363.52</ele>
        <time>2020-06-14T14:35:44Z</time>
      </trkpt>
      <trkpt lat="43.42071" lon="5.46734">
        <ele>361.59</ele>
        <time>2020-06-14T14:35:56Z</time>
      </trkpt>
      <trkpt lat="43.42075" lon="5.4672">
        <ele>361.59</ele>
        <time>2020-06-14T14:36:09Z</time>
      </trkpt>
      <trkpt lat="43.42076" lon="5.46712">
        <ele>362.55</ele>
        <time>2020-06-14T14:36:20Z</time>
      </trkpt>
      <trkpt lat="43.4208" lon="5.46699">
        <ele>362.07</ele>
        <time>2020-06-14T14:36:30Z</time>
      </trkpt>
      <trkpt lat="43.4208" lon="5.46697">
        <ele>362.07</ele>
        <time>2020-06-14T14:36:32Z</time>
      </trkpt>
      <trkpt lat="43.42081" lon="5.46682">
        <ele>361.59</ele>
        <time>2020-06-14T14:36:42Z</time>
      </trkpt>
      <trkpt lat="43.42083" lon="5.46667">
        <ele>361.59</ele>
        <time>2020-06-14T14:36:52Z</time>
      </trkpt>
      <trkpt lat="43.42085" lon="5.46652">
        <ele>360.15</ele>
        <time>2020-06-14T14:37:03Z</time>
      </trkpt>
      <trkpt lat="43.42086" lon="5.46646">
        <ele>359.67</ele>
        <time>2020-06-14T14:37:07Z</time>
      </trkpt>
      <trkpt lat="43.42086" lon="5.46639">
        <ele>359.67</ele>
        <time>2020-06-14T14:37:12Z</time>
      </trkpt>
      <trkpt lat="43.42085" lon="5.46632">
        <ele>359.67</ele>
        <time>2020-06-14T14:37:25Z</time>
      </trkpt>
      <trkpt lat="43.42086" lon="5.46628">
        <ele>360.15</ele>
        <time>2020-06-14T14:37:29Z</time>
      </trkpt>
      <trkpt lat="43.4209" lon="5.46617">
        <ele>360.63</ele>
        <time>2020-06-14T14:37:38Z</time>
      </trkpt>
      <trkpt lat="43.42094" lon="5.46601">
        <ele>359.19</ele>
        <time>2020-06-14T14:37:49Z</time>
      </trkpt>
      <trkpt lat="43.42096" lon="5.46588">
        <ele>356.79</ele>
        <time>2020-06-14T14:37:58Z</time>
      </trkpt>
      <trkpt lat="43.42096" lon="5.46586">
        <ele>356.31</ele>
        <time>2020-06-14T14:38:00Z</time>
      </trkpt>
      <trkpt lat="43.42097" lon="5.46579">
        <ele>355.83</ele>
        <time>2020-06-14T14:38:05Z</time>
      </trkpt>
      <trkpt lat="43.42097" lon="5.46564">
        <ele>354.38</ele>
        <time>2020-06-14T14:38:16Z</time>
      </trkpt>
      <trkpt lat="43.42098" lon="5.46554">
        <ele>352.94</ele>
        <time>2020-06-14T14:38:23Z</time>
      </trkpt>
      <trkpt lat="43.42101" lon="5.46535">
        <ele>350.54</ele>
        <time>2020-06-14T14:38:37Z</time>
      </trkpt>
      <trkpt lat="43.42103" lon="5.46527">
        <ele>349.58</ele>
        <time>2020-06-14T14:38:45Z</time>
      </trkpt>
      <trkpt lat="43.42104" lon="5.46525">
        <ele>349.58</ele>
        <time>2020-06-14T14:38:47Z</time>
      </trkpt>
      <trkpt lat="43.42108" lon="5.46508">
        <ele>349.1</ele>
        <time>2020-06-14T14:39:00Z</time>
      </trkpt>
      <trkpt lat="43.4211" lon="5.46501">
        <ele>349.58</ele>
        <time>2020-06-14T14:39:05Z</time>
      </trkpt>
      <trkpt lat="43.4211" lon="5.46496">
        <ele>349.58</ele>
        <time>2020-06-14T14:39:09Z</time>
      </trkpt>
      <trkpt lat="43.42114" lon="5.46482">
        <ele>349.58</ele>
        <time>2020-06-14T14:39:21Z</time>
      </trkpt>
      <trkpt lat="43.4212" lon="5.46472">
        <ele>351.02</ele>
        <time>2020-06-14T14:39:33Z</time>
      </trkpt>
      <trkpt lat="43.42126" lon="5.46464">
        <ele>349.58</ele>
        <time>2020-06-14T14:39:45Z</time>
      </trkpt>
      <trkpt lat="43.42133" lon="5.4645">
        <ele>346.21</ele>
        <time>2020-06-14T14:39:55Z</time>
      </trkpt>
      <trkpt lat="43.42137" lon="5.46433">
        <ele>342.37</ele>
        <time>2020-06-14T14:40:07Z</time>
      </trkpt>
      <trkpt lat="43.42138" lon="5.46429">
        <ele>341.89</ele>
        <time>2020-06-14T14:40:09Z</time>
      </trkpt>
      <trkpt lat="43.42135" lon="5.46414">
        <ele>340.92</ele>
        <time>2020-06-14T14:40:20Z</time>
      </trkpt>
      <trkpt lat="43.42135" lon="5.46412">
        <ele>340.92</ele>
        <time>2020-06-14T14:40:21Z</time>
      </trkpt>
      <trkpt lat="43.42135" lon="5.46408">
        <ele>340.92</ele>
        <time>2020-06-14T14:40:24Z</time>
      </trkpt>
      <trkpt lat="43.42132" lon="5.46387">
        <ele>339.96</ele>
        <time>2020-06-14T14:40:39Z</time>
      </trkpt>
      <trkpt lat="43.42132" lon="5.46374">
        <ele>339</ele>
        <time>2020-06-14T14:40:48Z</time>
      </trkpt>
      <trkpt lat="43.42129" lon="5.46359">
        <ele>337.08</ele>
        <time>2020-06-14T14:41:00Z</time>
      </trkpt>
      <trkpt lat="43.4212" lon="5.46348">
        <ele>336.6</ele>
        <time>2020-06-14T14:41:12Z</time>
      </trkpt>
      <trkpt lat="43.42106" lon="5.46339">
        <ele>335.64</ele>
        <time>2020-06-14T14:41:26Z</time>
      </trkpt>
      <trkpt lat="43.42098" lon="5.46328">
        <ele>336.6</ele>
        <time>2020-06-14T14:41:37Z</time>
      </trkpt>
      <trkpt lat="43.4209" lon="5.4632">
        <ele>337.56</ele>
        <time>2020-06-14T14:41:47Z</time>
      </trkpt>
      <trkpt lat="43.4209" lon="5.46318">
        <ele>338.04</ele>
        <time>2020-06-14T14:41:49Z</time>
      </trkpt>
      <trkpt lat="43.42089" lon="5.46303">
        <ele>337.56</ele>
        <time>2020-06-14T14:42:02Z</time>
      </trkpt>
      <trkpt lat="43.4209" lon="5.46302">
        <ele>337.56</ele>
        <time>2020-06-14T14:42:04Z</time>
      </trkpt>
      <trkpt lat="43.42094" lon="5.46297">
        <ele>338.52</ele>
        <time>2020-06-14T14:42:16Z</time>
      </trkpt>
      <trkpt lat="43.42103" lon="5.46293">
        <ele>341.41</ele>
        <time>2020-06-14T14:42:29Z</time>
      </trkpt>
      <trkpt lat="43.42112" lon="5.46289">
        <ele>341.89</ele>
        <time>2020-06-14T14:42:41Z</time>
      </trkpt>
      <trkpt lat="43.42122" lon="5.46284">
        <ele>341.89</ele>
        <time>2020-06-14T14:42:54Z</time>
      </trkpt>
      <trkpt lat="43.42124" lon="5.46284">
        <ele>342.37</ele>
        <time>2020-06-14T14:42:56Z</time>
      </trkpt>
      <trkpt lat="43.42134" lon="5.46276">
        <ele>344.29</ele>
        <time>2020-06-14T14:43:09Z</time>
      </trkpt>
      <trkpt lat="43.42139" lon="5.46269">
        <ele>346.21</ele>
        <time>2020-06-14T14:43:19Z</time>
      </trkpt>
      <trkpt lat="43.42141" lon="5.46264">
        <ele>346.21</ele>
        <time>2020-06-14T14:43:23Z</time>
      </trkpt>
      <trkpt lat="43.42143" lon="5.46249">
        <ele>347.17</ele>
        <time>2020-06-14T14:43:35Z</time>
      </trkpt>
      <trkpt lat="43.42142" lon="5.46234">
        <ele>347.17</ele>
        <time>2020-06-14T14:43:48Z</time>
      </trkpt>
      <trkpt lat="43.42144" lon="5.46229">
        <ele>347.17</ele>
        <time>2020-06-14T14:43:53Z</time>
      </trkpt>
      <trkpt lat="43.42148" lon="5.46225">
        <ele>346.69</ele>
        <time>2020-06-14T14:43:58Z</time>
      </trkpt>
      <trkpt lat="43.42154" lon="5.46221">
        <ele>345.25</ele>
        <time>2020-06-14T14:44:08Z</time>
      </trkpt>
      <trkpt lat="43.42164" lon="5.4622">
        <ele>347.65</ele>
        <time>2020-06-14T14:44:22Z</time>
      </trkpt>
      <trkpt lat="43.42174" lon="5.46213">
        <ele>350.06</ele>
        <time>2020-06-14T14:44:35Z</time>
      </trkpt>
      <trkpt lat="43.42175" lon="5.46211">
        <ele>350.06</ele>
        <time>2020-06-14T14:44:37Z</time>
      </trkpt>
      <trkpt lat="43.42178" lon="5.46205">
        <ele>350.54</ele>
        <time>2020-06-14T14:44:52Z</time>
      </trkpt>
      <trkpt lat="43.42179" lon="5.46202">
        <ele>350.06</ele>
        <time>2020-06-14T14:45:19Z</time>
      </trkpt>
      <trkpt lat="43.42179" lon="5.46202">
        <ele>351.5</ele>
        <time>2020-06-14T14:45:39Z</time>
      </trkpt>
      <trkpt lat="43.4218" lon="5.46194">
        <ele>350.54</ele>
        <time>2020-06-14T14:45:56Z</time>
      </trkpt>
      <trkpt lat="43.42182" lon="5.4619">
        <ele>350.54</ele>
        <time>2020-06-14T14:46:00Z</time>
      </trkpt>
      <trkpt lat="43.42182" lon="5.46185">
        <ele>351.5</ele>
        <time>2020-06-14T14:46:04Z</time>
      </trkpt>
      <trkpt lat="43.42182" lon="5.46171">
        <ele>351.5</ele>
        <time>2020-06-14T14:46:15Z</time>
      </trkpt>
      <trkpt lat="43.42186" lon="5.46163">
        <ele>353.42</ele>
        <time>2020-06-14T14:46:24Z</time>
      </trkpt>
      <trkpt lat="43.42191" lon="5.46151">
        <ele>356.31</ele>
        <time>2020-06-14T14:46:37Z</time>
      </trkpt>
      <trkpt lat="43.42193" lon="5.46147">
        <ele>358.71</ele>
        <time>2020-06-14T14:46:44Z</time>
      </trkpt>
      <trkpt lat="43.42198" lon="5.46136">
        <ele>360.63</ele>
        <time>2020-06-14T14:46:57Z</time>
      </trkpt>
      <trkpt lat="43.42198" lon="5.46134">
        <ele>361.59</ele>
        <time>2020-06-14T14:47:13Z</time>
      </trkpt>
      <trkpt lat="43.42198" lon="5.46133">
        <ele>359.67</ele>
        <time>2020-06-14T14:47:44Z</time>
      </trkpt>
      <trkpt lat="43.42199" lon="5.46133">
        <ele>360.15</ele>
        <time>2020-06-14T14:47:57Z</time>
      </trkpt>
      <trkpt lat="43.42204" lon="5.46124">
        <ele>362.07</ele>
        <time>2020-06-14T14:48:07Z</time>
      </trkpt>
      <trkpt lat="43.42206" lon="5.46118">
        <ele>362.07</ele>
        <time>2020-06-14T14:48:11Z</time>
      </trkpt>
      <trkpt lat="43.42208" lon="5.46102">
        <ele>360.63</ele>
        <time>2020-06-14T14:48:23Z</time>
      </trkpt>
      <trkpt lat="43.42209" lon="5.46095">
        <ele>362.07</ele>
        <time>2020-06-14T14:48:29Z</time>
      </trkpt>
      <trkpt lat="43.42213" lon="5.46084">
        <ele>362.07</ele>
        <time>2020-06-14T14:48:40Z</time>
      </trkpt>
      <trkpt lat="43.42215" lon="5.46079">
        <ele>363.04</ele>
        <time>2020-06-14T14:48:44Z</time>
      </trkpt>
      <trkpt lat="43.42216" lon="5.46075">
        <ele>364</ele>
        <time>2020-06-14T14:48:48Z</time>
      </trkpt>
      <trkpt lat="43.42219" lon="5.46063">
        <ele>364</ele>
        <time>2020-06-14T14:48:59Z</time>
      </trkpt>
      <trkpt lat="43.4222" lon="5.46051">
        <ele>365.44</ele>
        <time>2020-06-14T14:49:13Z</time>
      </trkpt>
      <trkpt lat="43.42221" lon="5.4604">
        <ele>365.44</ele>
        <time>2020-06-14T14:49:25Z</time>
      </trkpt>
      <trkpt lat="43.42223" lon="5.46027">
        <ele>365.44</ele>
        <time>2020-06-14T14:49:37Z</time>
      </trkpt>
      <trkpt lat="43.42225" lon="5.46016">
        <ele>365.92</ele>
        <time>2020-06-14T14:49:46Z</time>
      </trkpt>
      <trkpt lat="43.42226" lon="5.46009">
        <ele>365.92</ele>
        <time>2020-06-14T14:49:52Z</time>
      </trkpt>
      <trkpt lat="43.42227" lon="5.46005">
        <ele>365.92</ele>
        <time>2020-06-14T14:49:55Z</time>
      </trkpt>
      <trkpt lat="43.42229" lon="5.45998">
        <ele>366.4</ele>
        <time>2020-06-14T14:49:59Z</time>
      </trkpt>
      <trkpt lat="43.42229" lon="5.45992">
        <ele>366.88</ele>
        <time>2020-06-14T14:50:04Z</time>
      </trkpt>
      <trkpt lat="43.42235" lon="5.45979">
        <ele>366.4</ele>
        <time>2020-06-14T14:50:17Z</time>
      </trkpt>
      <trkpt lat="43.4224" lon="5.45972">
        <ele>365.92</ele>
        <time>2020-06-14T14:50:27Z</time>
      </trkpt>
      <trkpt lat="43.42242" lon="5.45967">
        <ele>365.44</ele>
        <time>2020-06-14T14:50:31Z</time>
      </trkpt>
      <trkpt lat="43.42247" lon="5.45955">
        <ele>364.48</ele>
        <time>2020-06-14T14:50:42Z</time>
      </trkpt>
      <trkpt lat="43.42248" lon="5.45951">
        <ele>364</ele>
        <time>2020-06-14T14:50:47Z</time>
      </trkpt>
      <trkpt lat="43.42251" lon="5.45946">
        <ele>362.55</ele>
        <time>2020-06-14T14:50:52Z</time>
      </trkpt>
      <trkpt lat="43.42253" lon="5.4594">
        <ele>361.59</ele>
        <time>2020-06-14T14:50:58Z</time>
      </trkpt>
      <trkpt lat="43.42254" lon="5.45938">
        <ele>362.07</ele>
        <time>2020-06-14T14:51:00Z</time>
      </trkpt>
      <trkpt lat="43.42256" lon="5.45929">
        <ele>361.11</ele>
        <time>2020-06-14T14:51:07Z</time>
      </trkpt>
      <trkpt lat="43.42257" lon="5.45916">
        <ele>358.23</ele>
        <time>2020-06-14T14:51:19Z</time>
      </trkpt>
      <trkpt lat="43.42259" lon="5.45902">
        <ele>357.27</ele>
        <time>2020-06-14T14:51:31Z</time>
      </trkpt>
      <trkpt lat="43.42261" lon="5.45898">
        <ele>357.27</ele>
        <time>2020-06-14T14:51:35Z</time>
      </trkpt>
      <trkpt lat="43.42267" lon="5.45884">
        <ele>355.34</ele>
        <time>2020-06-14T14:51:47Z</time>
      </trkpt>
      <trkpt lat="43.42267" lon="5.4588">
        <ele>355.34</ele>
        <time>2020-06-14T14:51:50Z</time>
      </trkpt>
      <trkpt lat="43.42268" lon="5.45878">
        <ele>355.34</ele>
        <time>2020-06-14T14:51:52Z</time>
      </trkpt>
      <trkpt lat="43.4227" lon="5.45865">
        <ele>353.9</ele>
        <time>2020-06-14T14:52:04Z</time>
      </trkpt>
      <trkpt lat="43.42273" lon="5.45855">
        <ele>353.42</ele>
        <time>2020-06-14T14:52:15Z</time>
      </trkpt>
      <trkpt lat="43.42276" lon="5.45843">
        <ele>351.5</ele>
        <time>2020-06-14T14:52:28Z</time>
      </trkpt>
      <trkpt lat="43.42282" lon="5.4583">
        <ele>348.62</ele>
        <time>2020-06-14T14:52:41Z</time>
      </trkpt>
      <trkpt lat="43.42287" lon="5.4582">
        <ele>349.58</ele>
        <time>2020-06-14T14:52:53Z</time>
      </trkpt>
      <trkpt lat="43.42292" lon="5.45805">
        <ele>349.1</ele>
        <time>2020-06-14T14:53:06Z</time>
      </trkpt>
      <trkpt lat="43.42297" lon="5.45792">
        <ele>346.69</ele>
        <time>2020-06-14T14:53:18Z</time>
      </trkpt>
      <trkpt lat="43.423" lon="5.45785">
        <ele>346.21</ele>
        <time>2020-06-14T14:53:24Z</time>
      </trkpt>
      <trkpt lat="43.42302" lon="5.45778">
        <ele>344.77</ele>
        <time>2020-06-14T14:53:29Z</time>
      </trkpt>
      <trkpt lat="43.42305" lon="5.45768">
        <ele>343.81</ele>
        <time>2020-06-14T14:53:38Z</time>
      </trkpt>
      <trkpt lat="43.42308" lon="5.45755">
        <ele>342.37</ele>
        <time>2020-06-14T14:53:49Z</time>
      </trkpt>
      <trkpt lat="43.4231" lon="5.4574">
        <ele>340.92</ele>
        <time>2020-06-14T14:54:01Z</time>
      </trkpt>
      <trkpt lat="43.42308" lon="5.45724">
        <ele>338.52</ele>
        <time>2020-06-14T14:54:13Z</time>
      </trkpt>
      <trkpt lat="43.42308" lon="5.45712">
        <ele>338.04</ele>
        <time>2020-06-14T14:54:22Z</time>
      </trkpt>
      <trkpt lat="43.42308" lon="5.45709">
        <ele>338.52</ele>
        <time>2020-06-14T14:54:24Z</time>
      </trkpt>
      <trkpt lat="43.42308" lon="5.45702">
        <ele>338.52</ele>
        <time>2020-06-14T14:54:29Z</time>
      </trkpt>
      <trkpt lat="43.42306" lon="5.45693">
        <ele>338.52</ele>
        <time>2020-06-14T14:54:37Z</time>
      </trkpt>
      <trkpt lat="43.42308" lon="5.45684">
        <ele>337.08</ele>
        <time>2020-06-14T14:54:48Z</time>
      </trkpt>
      <trkpt lat="43.42308" lon="5.45676">
        <ele>336.6</ele>
        <time>2020-06-14T14:54:55Z</time>
      </trkpt>
      <trkpt lat="43.42308" lon="5.45673">
        <ele>335.64</ele>
        <time>2020-06-14T14:54:57Z</time>
      </trkpt>
      <trkpt lat="43.42309" lon="5.45661">
        <ele>334.68</ele>
        <time>2020-06-14T14:55:09Z</time>
      </trkpt>
      <trkpt lat="43.42309" lon="5.4566">
        <ele>334.68</ele>
        <time>2020-06-14T14:55:10Z</time>
      </trkpt>
      <trkpt lat="43.4231" lon="5.45659">
        <ele>334.68</ele>
        <time>2020-06-14T14:55:12Z</time>
      </trkpt>
      <trkpt lat="43.42314" lon="5.4564">
        <ele>333.23</ele>
        <time>2020-06-14T14:55:26Z</time>
      </trkpt>
      <trkpt lat="43.42314" lon="5.45629">
        <ele>331.79</ele>
        <time>2020-06-14T14:55:36Z</time>
      </trkpt>
      <trkpt lat="43.42314" lon="5.45626">
        <ele>331.79</ele>
        <time>2020-06-14T14:55:38Z</time>
      </trkpt>
      <trkpt lat="43.42312" lon="5.45613">
        <ele>329.87</ele>
        <time>2020-06-14T14:55:48Z</time>
      </trkpt>
      <trkpt lat="43.42313" lon="5.45598">
        <ele>329.87</ele>
        <time>2020-06-14T14:55:59Z</time>
      </trkpt>
      <trkpt lat="43.42314" lon="5.45594">
        <ele>329.87</ele>
        <time>2020-06-14T14:56:02Z</time>
      </trkpt>
      <trkpt lat="43.42314" lon="5.4559">
        <ele>328.91</ele>
        <time>2020-06-14T14:56:05Z</time>
      </trkpt>
      <trkpt lat="43.42316" lon="5.45579">
        <ele>327.95</ele>
        <time>2020-06-14T14:56:17Z</time>
      </trkpt>
      <trkpt lat="43.42317" lon="5.45565">
        <ele>326.99</ele>
        <time>2020-06-14T14:56:27Z</time>
      </trkpt>
      <trkpt lat="43.4232" lon="5.45554">
        <ele>326.02</ele>
        <time>2020-06-14T14:56:37Z</time>
      </trkpt>
      <trkpt lat="43.42321" lon="5.45552">
        <ele>326.02</ele>
        <time>2020-06-14T14:56:39Z</time>
      </trkpt>
      <trkpt lat="43.42322" lon="5.45544">
        <ele>325.06</ele>
        <time>2020-06-14T14:56:46Z</time>
      </trkpt>
      <trkpt lat="43.42323" lon="5.45539">
        <ele>324.58</ele>
        <time>2020-06-14T14:56:50Z</time>
      </trkpt>
      <trkpt lat="43.42325" lon="5.45536">
        <ele>324.58</ele>
        <time>2020-06-14T14:56:53Z</time>
      </trkpt>
      <trkpt lat="43.4233" lon="5.45527">
        <ele>323.62</ele>
        <time>2020-06-14T14:57:03Z</time>
      </trkpt>
      <trkpt lat="43.42331" lon="5.45525">
        <ele>323.62</ele>
        <time>2020-06-14T14:57:05Z</time>
      </trkpt>
      <trkpt lat="43.42333" lon="5.4552">
        <ele>322.66</ele>
        <time>2020-06-14T14:57:09Z</time>
      </trkpt>
      <trkpt lat="43.42336" lon="5.45507">
        <ele>321.7</ele>
        <time>2020-06-14T14:57:19Z</time>
      </trkpt>
      <trkpt lat="43.42339" lon="5.45497">
        <ele>322.18</ele>
        <time>2020-06-14T14:57:28Z</time>
      </trkpt>
      <trkpt lat="43.42344" lon="5.45486">
        <ele>322.66</ele>
        <time>2020-06-14T14:57:38Z</time>
      </trkpt>
      <trkpt lat="43.42346" lon="5.45481">
        <ele>321.7</ele>
        <time>2020-06-14T14:57:42Z</time>
      </trkpt>
      <trkpt lat="43.42346" lon="5.45478">
        <ele>321.7</ele>
        <time>2020-06-14T14:57:44Z</time>
      </trkpt>
      <trkpt lat="43.42351" lon="5.45467">
        <ele>322.66</ele>
        <time>2020-06-14T14:57:54Z</time>
      </trkpt>
      <trkpt lat="43.42356" lon="5.45454">
        <ele>321.7</ele>
        <time>2020-06-14T14:58:05Z</time>
      </trkpt>
      <trkpt lat="43.4236" lon="5.45444">
        <ele>322.18</ele>
        <time>2020-06-14T14:58:14Z</time>
      </trkpt>
      <trkpt lat="43.42362" lon="5.45435">
        <ele>321.22</ele>
        <time>2020-06-14T14:58:25Z</time>
      </trkpt>
      <trkpt lat="43.42363" lon="5.45435">
        <ele>321.22</ele>
        <time>2020-06-14T14:58:26Z</time>
      </trkpt>
      <trkpt lat="43.42366" lon="5.45418">
        <ele>319.78</ele>
        <time>2020-06-14T14:58:37Z</time>
      </trkpt>
      <trkpt lat="43.42367" lon="5.45415">
        <ele>318.81</ele>
        <time>2020-06-14T14:58:39Z</time>
      </trkpt>
      <trkpt lat="43.42369" lon="5.45409">
        <ele>317.85</ele>
        <time>2020-06-14T14:58:45Z</time>
      </trkpt>
      <trkpt lat="43.4237" lon="5.45401">
        <ele>316.41</ele>
        <time>2020-06-14T14:58:51Z</time>
      </trkpt>
      <trkpt lat="43.42374" lon="5.45386">
        <ele>314.97</ele>
        <time>2020-06-14T14:59:03Z</time>
      </trkpt>
      <trkpt lat="43.42379" lon="5.45378">
        <ele>314.97</ele>
        <time>2020-06-14T14:59:11Z</time>
      </trkpt>
      <trkpt lat="43.42381" lon="5.45376">
        <ele>314.49</ele>
        <time>2020-06-14T14:59:13Z</time>
      </trkpt>
      <trkpt lat="43.42386" lon="5.45368">
        <ele>315.93</ele>
        <time>2020-06-14T14:59:22Z</time>
      </trkpt>
      <trkpt lat="43.4239" lon="5.45353">
        <ele>314.01</ele>
        <time>2020-06-14T14:59:34Z</time>
      </trkpt>
      <trkpt lat="43.4239" lon="5.45349">
        <ele>314.01</ele>
        <time>2020-06-14T14:59:36Z</time>
      </trkpt>
      <trkpt lat="43.4239" lon="5.45346">
        <ele>313.53</ele>
        <time>2020-06-14T14:59:38Z</time>
      </trkpt>
      <trkpt lat="43.42392" lon="5.45329">
        <ele>312.57</ele>
        <time>2020-06-14T14:59:52Z</time>
      </trkpt>
      <trkpt lat="43.42395" lon="5.45317">
        <ele>312.09</ele>
        <time>2020-06-14T15:00:02Z</time>
      </trkpt>
      <trkpt lat="43.42402" lon="5.45301">
        <ele>311.12</ele>
        <time>2020-06-14T15:00:14Z</time>
      </trkpt>
      <trkpt lat="43.42402" lon="5.453">
        <ele>311.12</ele>
        <time>2020-06-14T15:00:15Z</time>
      </trkpt>
      <trkpt lat="43.42401" lon="5.45297">
        <ele>311.12</ele>
        <time>2020-06-14T15:00:17Z</time>
      </trkpt>
      <trkpt lat="43.42402" lon="5.45284">
        <ele>312.09</ele>
        <time>2020-06-14T15:00:27Z</time>
      </trkpt>
      <trkpt lat="43.42401" lon="5.45273">
        <ele>312.57</ele>
        <time>2020-06-14T15:00:38Z</time>
      </trkpt>
      <trkpt lat="43.42401" lon="5.45272">
        <ele>313.05</ele>
        <time>2020-06-14T15:00:39Z</time>
      </trkpt>
      <trkpt lat="43.42401" lon="5.45259">
        <ele>312.09</ele>
        <time>2020-06-14T15:00:48Z</time>
      </trkpt>
      <trkpt lat="43.42402" lon="5.45257">
        <ele>312.09</ele>
        <time>2020-06-14T15:00:50Z</time>
      </trkpt>
      <trkpt lat="43.42401" lon="5.45243">
        <ele>311.6</ele>
        <time>2020-06-14T15:01:02Z</time>
      </trkpt>
      <trkpt lat="43.42399" lon="5.45231">
        <ele>310.64</ele>
        <time>2020-06-14T15:01:12Z</time>
      </trkpt>
      <trkpt lat="43.42396" lon="5.45212">
        <ele>309.68</ele>
        <time>2020-06-14T15:01:24Z</time>
      </trkpt>
      <trkpt lat="43.42394" lon="5.45199">
        <ele>309.2</ele>
        <time>2020-06-14T15:01:35Z</time>
      </trkpt>
      <trkpt lat="43.42397" lon="5.45186">
        <ele>307.28</ele>
        <time>2020-06-14T15:01:45Z</time>
      </trkpt>
      <trkpt lat="43.42398" lon="5.45182">
        <ele>306.8</ele>
        <time>2020-06-14T15:01:49Z</time>
      </trkpt>
      <trkpt lat="43.42402" lon="5.45173">
        <ele>307.76</ele>
        <time>2020-06-14T15:02:00Z</time>
      </trkpt>
      <trkpt lat="43.42406" lon="5.45169">
        <ele>307.76</ele>
        <time>2020-06-14T15:02:05Z</time>
      </trkpt>
      <trkpt lat="43.42413" lon="5.45159">
        <ele>307.28</ele>
        <time>2020-06-14T15:02:16Z</time>
      </trkpt>
      <trkpt lat="43.42422" lon="5.45147">
        <ele>308.72</ele>
        <time>2020-06-14T15:02:30Z</time>
      </trkpt>
      <trkpt lat="43.42428" lon="5.45137">
        <ele>308.72</ele>
        <time>2020-06-14T15:02:40Z</time>
      </trkpt>
      <trkpt lat="43.4243" lon="5.45128">
        <ele>308.72</ele>
        <time>2020-06-14T15:02:53Z</time>
      </trkpt>
      <trkpt lat="43.42436" lon="5.45109">
        <ele>307.28</ele>
        <time>2020-06-14T15:03:06Z</time>
      </trkpt>
      <trkpt lat="43.42438" lon="5.45106">
        <ele>306.8</ele>
        <time>2020-06-14T15:03:08Z</time>
      </trkpt>
      <trkpt lat="43.42443" lon="5.45095">
        <ele>305.36</ele>
        <time>2020-06-14T15:03:16Z</time>
      </trkpt>
      <trkpt lat="43.42451" lon="5.45084">
        <ele>305.84</ele>
        <time>2020-06-14T15:03:28Z</time>
      </trkpt>
      <trkpt lat="43.42453" lon="5.45081">
        <ele>306.32</ele>
        <time>2020-06-14T15:03:31Z</time>
      </trkpt>
      <trkpt lat="43.42459" lon="5.45073">
        <ele>307.76</ele>
        <time>2020-06-14T15:03:41Z</time>
      </trkpt>
      <trkpt lat="43.42465" lon="5.4506">
        <ele>308.24</ele>
        <time>2020-06-14T15:03:53Z</time>
      </trkpt>
      <trkpt lat="43.42468" lon="5.45054">
        <ele>308.72</ele>
        <time>2020-06-14T15:03:58Z</time>
      </trkpt>
      <trkpt lat="43.4247" lon="5.45049">
        <ele>309.2</ele>
        <time>2020-06-14T15:04:01Z</time>
      </trkpt>
      <trkpt lat="43.42471" lon="5.45042">
        <ele>308.72</ele>
        <time>2020-06-14T15:04:05Z</time>
      </trkpt>
      <trkpt lat="43.42474" lon="5.45033">
        <ele>308.72</ele>
        <time>2020-06-14T15:04:11Z</time>
      </trkpt>
      <trkpt lat="43.42475" lon="5.45025">
        <ele>310.16</ele>
        <time>2020-06-14T15:04:16Z</time>
      </trkpt>
      <trkpt lat="43.4248" lon="5.45009">
        <ele>311.12</ele>
        <time>2020-06-14T15:04:29Z</time>
      </trkpt>
      <trkpt lat="43.42483" lon="5.44993">
        <ele>311.12</ele>
        <time>2020-06-14T15:04:40Z</time>
      </trkpt>
      <trkpt lat="43.42484" lon="5.44987">
        <ele>311.12</ele>
        <time>2020-06-14T15:04:43Z</time>
      </trkpt>
      <trkpt lat="43.42483" lon="5.44974">
        <ele>310.16</ele>
        <time>2020-06-14T15:04:51Z</time>
      </trkpt>
      <trkpt lat="43.42488" lon="5.44963">
        <ele>307.76</ele>
        <time>2020-06-14T15:04:58Z</time>
      </trkpt>
      <trkpt lat="43.42488" lon="5.44959">
        <ele>306.8</ele>
        <time>2020-06-14T15:05:00Z</time>
      </trkpt>
      <trkpt lat="43.42489" lon="5.44955">
        <ele>304.88</ele>
        <time>2020-06-14T15:05:03Z</time>
      </trkpt>
      <trkpt lat="43.42489" lon="5.44952">
        <ele>303.91</ele>
        <time>2020-06-14T15:05:05Z</time>
      </trkpt>
      <trkpt lat="43.42492" lon="5.44935">
        <ele>298.63</ele>
        <time>2020-06-14T15:05:14Z</time>
      </trkpt>
      <trkpt lat="43.42494" lon="5.4493">
        <ele>297.67</ele>
        <time>2020-06-14T15:05:17Z</time>
      </trkpt>
      <trkpt lat="43.42493" lon="5.44928">
        <ele>297.18</ele>
        <time>2020-06-14T15:05:19Z</time>
      </trkpt>
      <trkpt lat="43.42484" lon="5.44906">
        <ele>293.82</ele>
        <time>2020-06-14T15:05:37Z</time>
      </trkpt>
      <trkpt lat="43.4248" lon="5.44899">
        <ele>293.82</ele>
        <time>2020-06-14T15:05:44Z</time>
      </trkpt>
      <trkpt lat="43.42478" lon="5.44898">
        <ele>294.3</ele>
        <time>2020-06-14T15:05:46Z</time>
      </trkpt>
      <trkpt lat="43.42472" lon="5.44891">
        <ele>295.26</ele>
        <time>2020-06-14T15:05:53Z</time>
      </trkpt>
      <trkpt lat="43.42465" lon="5.44883">
        <ele>296.7</ele>
        <time>2020-06-14T15:06:03Z</time>
      </trkpt>
      <trkpt lat="43.42459" lon="5.44871">
        <ele>297.67</ele>
        <time>2020-06-14T15:06:15Z</time>
      </trkpt>
      <trkpt lat="43.42456" lon="5.44865">
        <ele>297.67</ele>
        <time>2020-06-14T15:06:19Z</time>
      </trkpt>
      <trkpt lat="43.42449" lon="5.44857">
        <ele>298.15</ele>
        <time>2020-06-14T15:06:30Z</time>
      </trkpt>
      <trkpt lat="43.42448" lon="5.44855">
        <ele>298.63</ele>
        <time>2020-06-14T15:06:32Z</time>
      </trkpt>
      <trkpt lat="43.42446" lon="5.44849">
        <ele>299.11</ele>
        <time>2020-06-14T15:06:36Z</time>
      </trkpt>
      <trkpt lat="43.42446" lon="5.44835">
        <ele>298.63</ele>
        <time>2020-06-14T15:06:48Z</time>
      </trkpt>
      <trkpt lat="43.42447" lon="5.44816">
        <ele>297.18</ele>
        <time>2020-06-14T15:07:01Z</time>
      </trkpt>
      <trkpt lat="43.42446" lon="5.44799">
        <ele>297.67</ele>
        <time>2020-06-14T15:07:13Z</time>
      </trkpt>
      <trkpt lat="43.42443" lon="5.44786">
        <ele>297.18</ele>
        <time>2020-06-14T15:07:24Z</time>
      </trkpt>
      <trkpt lat="43.42446" lon="5.44779">
        <ele>295.26</ele>
        <time>2020-06-14T15:07:33Z</time>
      </trkpt>
      <trkpt lat="43.42449" lon="5.44778">
        <ele>294.78</ele>
        <time>2020-06-14T15:07:37Z</time>
      </trkpt>
      <trkpt lat="43.42456" lon="5.44778">
        <ele>294.3</ele>
        <time>2020-06-14T15:07:43Z</time>
      </trkpt>
      <trkpt lat="43.42462" lon="5.44777">
        <ele>293.82</ele>
        <time>2020-06-14T15:07:51Z</time>
      </trkpt>
      <trkpt lat="43.42464" lon="5.44777">
        <ele>294.3</ele>
        <time>2020-06-14T15:07:53Z</time>
      </trkpt>
      <trkpt lat="43.42474" lon="5.44776">
        <ele>296.7</ele>
        <time>2020-06-14T15:08:03Z</time>
      </trkpt>
      <trkpt lat="43.42476" lon="5.44774">
        <ele>297.18</ele>
        <time>2020-06-14T15:08:06Z</time>
      </trkpt>
      <trkpt lat="43.42489" lon="5.44772">
        <ele>298.63</ele>
        <time>2020-06-14T15:08:18Z</time>
      </trkpt>
      <trkpt lat="43.42501" lon="5.44767">
        <ele>298.15</ele>
        <time>2020-06-14T15:08:29Z</time>
      </trkpt>
      <trkpt lat="43.42502" lon="5.44766">
        <ele>298.15</ele>
        <time>2020-06-14T15:08:30Z</time>
      </trkpt>
      <trkpt lat="43.42511" lon="5.44758">
        <ele>295.74</ele>
        <time>2020-06-14T15:08:38Z</time>
      </trkpt>
      <trkpt lat="43.42518" lon="5.44751">
        <ele>293.82</ele>
        <time>2020-06-14T15:08:44Z</time>
      </trkpt>
      <trkpt lat="43.4252" lon="5.44746">
        <ele>293.34</ele>
        <time>2020-06-14T15:08:47Z</time>
      </trkpt>
      <trkpt lat="43.42522" lon="5.44744">
        <ele>292.86</ele>
        <time>2020-06-14T15:08:49Z</time>
      </trkpt>
      <trkpt lat="43.42524" lon="5.44742">
        <ele>292.86</ele>
        <time>2020-06-14T15:08:51Z</time>
      </trkpt>
      <trkpt lat="43.42532" lon="5.44736">
        <ele>292.86</ele>
        <time>2020-06-14T15:09:01Z</time>
      </trkpt>
      <trkpt lat="43.42542" lon="5.44718">
        <ele>291.42</ele>
        <time>2020-06-14T15:09:13Z</time>
      </trkpt>
      <trkpt lat="43.42548" lon="5.44702">
        <ele>289.49</ele>
        <time>2020-06-14T15:09:25Z</time>
      </trkpt>
      <trkpt lat="43.42555" lon="5.44686">
        <ele>288.05</ele>
        <time>2020-06-14T15:09:37Z</time>
      </trkpt>
      <trkpt lat="43.42555" lon="5.44682">
        <ele>287.57</ele>
        <time>2020-06-14T15:09:40Z</time>
      </trkpt>
      <trkpt lat="43.42559" lon="5.44673">
        <ele>288.05</ele>
        <time>2020-06-14T15:09:47Z</time>
      </trkpt>
      <trkpt lat="43.42559" lon="5.4467">
        <ele>288.05</ele>
        <time>2020-06-14T15:09:49Z</time>
      </trkpt>
      <trkpt lat="43.4256" lon="5.44666">
        <ele>288.05</ele>
        <time>2020-06-14T15:09:52Z</time>
      </trkpt>
      <trkpt lat="43.4256" lon="5.44663">
        <ele>288.53</ele>
        <time>2020-06-14T15:09:54Z</time>
      </trkpt>
      <trkpt lat="43.42566" lon="5.44646">
        <ele>287.09</ele>
        <time>2020-06-14T15:10:08Z</time>
      </trkpt>
      <trkpt lat="43.42571" lon="5.44632">
        <ele>285.17</ele>
        <time>2020-06-14T15:10:17Z</time>
      </trkpt>
      <trkpt lat="43.42575" lon="5.44617">
        <ele>285.17</ele>
        <time>2020-06-14T15:10:27Z</time>
      </trkpt>
      <trkpt lat="43.42576" lon="5.44609">
        <ele>285.65</ele>
        <time>2020-06-14T15:10:32Z</time>
      </trkpt>
      <trkpt lat="43.42577" lon="5.44606">
        <ele>285.65</ele>
        <time>2020-06-14T15:10:34Z</time>
      </trkpt>
      <trkpt lat="43.42578" lon="5.44602">
        <ele>285.65</ele>
        <time>2020-06-14T15:10:37Z</time>
      </trkpt>
      <trkpt lat="43.4258" lon="5.44583">
        <ele>284.21</ele>
        <time>2020-06-14T15:10:49Z</time>
      </trkpt>
      <trkpt lat="43.4258" lon="5.44571">
        <ele>282.28</ele>
        <time>2020-06-14T15:10:57Z</time>
      </trkpt>
      <trkpt lat="43.42579" lon="5.44552">
        <ele>279.88</ele>
        <time>2020-06-14T15:11:10Z</time>
      </trkpt>
      <trkpt lat="43.42579" lon="5.44542">
        <ele>280.36</ele>
        <time>2020-06-14T15:11:17Z</time>
      </trkpt>
      <trkpt lat="43.42578" lon="5.44539">
        <ele>280.36</ele>
        <time>2020-06-14T15:11:19Z</time>
      </trkpt>
      <trkpt lat="43.42578" lon="5.44531">
        <ele>280.36</ele>
        <time>2020-06-14T15:11:24Z</time>
      </trkpt>
      <trkpt lat="43.42577" lon="5.44526">
        <ele>280.36</ele>
        <time>2020-06-14T15:11:28Z</time>
      </trkpt>
      <trkpt lat="43.42574" lon="5.44503">
        <ele>277.96</ele>
        <time>2020-06-14T15:11:44Z</time>
      </trkpt>
      <trkpt lat="43.42573" lon="5.44501">
        <ele>277.96</ele>
        <time>2020-06-14T15:11:45Z</time>
      </trkpt>
      <trkpt lat="43.42573" lon="5.44492">
        <ele>277.96</ele>
        <time>2020-06-14T15:11:52Z</time>
      </trkpt>
      <trkpt lat="43.42572" lon="5.44489">
        <ele>278.44</ele>
        <time>2020-06-14T15:11:54Z</time>
      </trkpt>
      <trkpt lat="43.42572" lon="5.44478">
        <ele>278.44</ele>
        <time>2020-06-14T15:12:02Z</time>
      </trkpt>
      <trkpt lat="43.42569" lon="5.4446">
        <ele>277.96</ele>
        <time>2020-06-14T15:12:15Z</time>
      </trkpt>
      <trkpt lat="43.42569" lon="5.44457">
        <ele>277.96</ele>
        <time>2020-06-14T15:12:17Z</time>
      </trkpt>
      <trkpt lat="43.42568" lon="5.44452">
        <ele>277.96</ele>
        <time>2020-06-14T15:12:22Z</time>
      </trkpt>
      <trkpt lat="43.42567" lon="5.44444">
        <ele>277.96</ele>
        <time>2020-06-14T15:12:28Z</time>
      </trkpt>
      <trkpt lat="43.42565" lon="5.44438">
        <ele>277.48</ele>
        <time>2020-06-14T15:12:33Z</time>
      </trkpt>
      <trkpt lat="43.42563" lon="5.44419">
        <ele>277.48</ele>
        <time>2020-06-14T15:12:47Z</time>
      </trkpt>
      <trkpt lat="43.42563" lon="5.44413">
        <ele>278.44</ele>
        <time>2020-06-14T15:12:51Z</time>
      </trkpt>
      <trkpt lat="43.42564" lon="5.44408">
        <ele>278.44</ele>
        <time>2020-06-14T15:12:54Z</time>
      </trkpt>
      <trkpt lat="43.42564" lon="5.44405">
        <ele>278.92</ele>
        <time>2020-06-14T15:12:56Z</time>
      </trkpt>
      <trkpt lat="43.42566" lon="5.44395">
        <ele>278.44</ele>
        <time>2020-06-14T15:13:03Z</time>
      </trkpt>
      <trkpt lat="43.42568" lon="5.44384">
        <ele>279.88</ele>
        <time>2020-06-14T15:13:11Z</time>
      </trkpt>
      <trkpt lat="43.42574" lon="5.4437">
        <ele>281.32</ele>
        <time>2020-06-14T15:13:23Z</time>
      </trkpt>
      <trkpt lat="43.42579" lon="5.4436">
        <ele>282.28</ele>
        <time>2020-06-14T15:13:35Z</time>
      </trkpt>
      <trkpt lat="43.42583" lon="5.44346">
        <ele>282.28</ele>
        <time>2020-06-14T15:13:47Z</time>
      </trkpt>
      <trkpt lat="43.42589" lon="5.44331">
        <ele>281.8</ele>
        <time>2020-06-14T15:14:00Z</time>
      </trkpt>
      <trkpt lat="43.42591" lon="5.44328">
        <ele>281.8</ele>
        <time>2020-06-14T15:14:03Z</time>
      </trkpt>
      <trkpt lat="43.42593" lon="5.44321">
        <ele>281.8</ele>
        <time>2020-06-14T15:14:08Z</time>
      </trkpt>
      <trkpt lat="43.42601" lon="5.44304">
        <ele>281.32</ele>
        <time>2020-06-14T15:14:20Z</time>
      </trkpt>
      <trkpt lat="43.42605" lon="5.44289">
        <ele>279.88</ele>
        <time>2020-06-14T15:14:30Z</time>
      </trkpt>
      <trkpt lat="43.42612" lon="5.44279">
        <ele>282.77</ele>
        <time>2020-06-14T15:14:42Z</time>
      </trkpt>
      <trkpt lat="43.42615" lon="5.44274">
        <ele>284.21</ele>
        <time>2020-06-14T15:14:48Z</time>
      </trkpt>
      <trkpt lat="43.42624" lon="5.44257">
        <ele>284.21</ele>
        <time>2020-06-14T15:15:03Z</time>
      </trkpt>
      <trkpt lat="43.42625" lon="5.44254">
        <ele>284.21</ele>
        <time>2020-06-14T15:15:05Z</time>
      </trkpt>
      <trkpt lat="43.42633" lon="5.44239">
        <ele>280.84</ele>
        <time>2020-06-14T15:15:17Z</time>
      </trkpt>
      <trkpt lat="43.42638" lon="5.44222">
        <ele>274.59</ele>
        <time>2020-06-14T15:15:25Z</time>
      </trkpt>
      <trkpt lat="43.42638" lon="5.44219">
        <ele>273.15</ele>
        <time>2020-06-14T15:15:27Z</time>
      </trkpt>
      <trkpt lat="43.4264" lon="5.44215">
        <ele>272.67</ele>
        <time>2020-06-14T15:15:29Z</time>
      </trkpt>
      <trkpt lat="43.4264" lon="5.44211">
        <ele>271.71</ele>
        <time>2020-06-14T15:15:31Z</time>
      </trkpt>
      <trkpt lat="43.42642" lon="5.44205">
        <ele>270.75</ele>
        <time>2020-06-14T15:15:35Z</time>
      </trkpt>
      <trkpt lat="43.42644" lon="5.4419">
        <ele>270.27</ele>
        <time>2020-06-14T15:15:47Z</time>
      </trkpt>
      <trkpt lat="43.42645" lon="5.44174">
        <ele>268.35</ele>
        <time>2020-06-14T15:15:58Z</time>
      </trkpt>
      <trkpt lat="43.42645" lon="5.44165">
        <ele>267.38</ele>
        <time>2020-06-14T15:16:04Z</time>
      </trkpt>
      <trkpt lat="43.42644" lon="5.44149">
        <ele>265.94</ele>
        <time>2020-06-14T15:16:16Z</time>
      </trkpt>
      <trkpt lat="43.42645" lon="5.44135">
        <ele>264.98</ele>
        <time>2020-06-14T15:16:27Z</time>
      </trkpt>
      <trkpt lat="43.42645" lon="5.44119">
        <ele>267.38</ele>
        <time>2020-06-14T15:16:39Z</time>
      </trkpt>
      <trkpt lat="43.42646" lon="5.44118">
        <ele>267.38</ele>
        <time>2020-06-14T15:16:40Z</time>
      </trkpt>
      <trkpt lat="43.42646" lon="5.44102">
        <ele>266.42</ele>
        <time>2020-06-14T15:16:51Z</time>
      </trkpt>
      <trkpt lat="43.42646" lon="5.44083">
        <ele>265.46</ele>
        <time>2020-06-14T15:17:06Z</time>
      </trkpt>
      <trkpt lat="43.42646" lon="5.44081">
        <ele>265.46</ele>
        <time>2020-06-14T15:17:07Z</time>
      </trkpt>
      <trkpt lat="43.42647" lon="5.44077">
        <ele>265.46</ele>
        <time>2020-06-14T15:17:10Z</time>
      </trkpt>
      <trkpt lat="43.42645" lon="5.4407">
        <ele>265.46</ele>
        <time>2020-06-14T15:17:14Z</time>
      </trkpt>
      <trkpt lat="43.42636" lon="5.44059">
        <ele>266.42</ele>
        <time>2020-06-14T15:17:27Z</time>
      </trkpt>
      <trkpt lat="43.42629" lon="5.4405">
        <ele>267.38</ele>
        <time>2020-06-14T15:17:37Z</time>
      </trkpt>
      <trkpt lat="43.42621" lon="5.44044">
        <ele>267.38</ele>
        <time>2020-06-14T15:17:48Z</time>
      </trkpt>
      <trkpt lat="43.42619" lon="5.44042">
        <ele>267.38</ele>
        <time>2020-06-14T15:17:50Z</time>
      </trkpt>
      <trkpt lat="43.42616" lon="5.44039">
        <ele>266.9</ele>
        <time>2020-06-14T15:17:53Z</time>
      </trkpt>
      <trkpt lat="43.42616" lon="5.44033">
        <ele>265.46</ele>
        <time>2020-06-14T15:18:00Z</time>
      </trkpt>
      <trkpt lat="43.42617" lon="5.44032">
        <ele>265.46</ele>
        <time>2020-06-14T15:18:02Z</time>
      </trkpt>
      <trkpt lat="43.42622" lon="5.44025">
        <ele>264.98</ele>
        <time>2020-06-14T15:18:11Z</time>
      </trkpt>
      <trkpt lat="43.4263" lon="5.44011">
        <ele>265.94</ele>
        <time>2020-06-14T15:18:24Z</time>
      </trkpt>
      <trkpt lat="43.42633" lon="5.44005">
        <ele>266.42</ele>
        <time>2020-06-14T15:18:30Z</time>
      </trkpt>
      <trkpt lat="43.42637" lon="5.43994">
        <ele>265.94</ele>
        <time>2020-06-14T15:18:39Z</time>
      </trkpt>
      <trkpt lat="43.42639" lon="5.43987">
        <ele>265.46</ele>
        <time>2020-06-14T15:18:43Z</time>
      </trkpt>
      <trkpt lat="43.4264" lon="5.4398">
        <ele>265.46</ele>
        <time>2020-06-14T15:18:47Z</time>
      </trkpt>
      <trkpt lat="43.42644" lon="5.43965">
        <ele>263.54</ele>
        <time>2020-06-14T15:18:56Z</time>
      </trkpt>
      <trkpt lat="43.42645" lon="5.43962">
        <ele>263.54</ele>
        <time>2020-06-14T15:18:58Z</time>
      </trkpt>
      <trkpt lat="43.42649" lon="5.4395">
        <ele>264.98</ele>
        <time>2020-06-14T15:19:09Z</time>
      </trkpt>
      <trkpt lat="43.4265" lon="5.43935">
        <ele>264.02</ele>
        <time>2020-06-14T15:19:18Z</time>
      </trkpt>
      <trkpt lat="43.42651" lon="5.43926">
        <ele>264.5</ele>
        <time>2020-06-14T15:19:24Z</time>
      </trkpt>
      <trkpt lat="43.42647" lon="5.43903">
        <ele>264.02</ele>
        <time>2020-06-14T15:19:39Z</time>
      </trkpt>
      <trkpt lat="43.42645" lon="5.4389">
        <ele>264.98</ele>
        <time>2020-06-14T15:19:50Z</time>
      </trkpt>
      <trkpt lat="43.42644" lon="5.4388">
        <ele>264.5</ele>
        <time>2020-06-14T15:19:56Z</time>
      </trkpt>
      <trkpt lat="43.42643" lon="5.43874">
        <ele>264.5</ele>
        <time>2020-06-14T15:20:01Z</time>
      </trkpt>
      <trkpt lat="43.42643" lon="5.43864">
        <ele>264.5</ele>
        <time>2020-06-14T15:20:08Z</time>
      </trkpt>
      <trkpt lat="43.42646" lon="5.43848">
        <ele>267.86</ele>
        <time>2020-06-14T15:20:21Z</time>
      </trkpt>
      <trkpt lat="43.42646" lon="5.43846">
        <ele>267.86</ele>
        <time>2020-06-14T15:20:22Z</time>
      </trkpt>
      <trkpt lat="43.42647" lon="5.43833">
        <ele>267.86</ele>
        <time>2020-06-14T15:20:32Z</time>
      </trkpt>
      <trkpt lat="43.42647" lon="5.43832">
        <ele>267.38</ele>
        <time>2020-06-14T15:20:33Z</time>
      </trkpt>
      <trkpt lat="43.42653" lon="5.43813">
        <ele>269.79</ele>
        <time>2020-06-14T15:20:48Z</time>
      </trkpt>
      <trkpt lat="43.42656" lon="5.43799">
        <ele>272.67</ele>
        <time>2020-06-14T15:21:00Z</time>
      </trkpt>
      <trkpt lat="43.42656" lon="5.43798">
        <ele>272.67</ele>
        <time>2020-06-14T15:21:01Z</time>
      </trkpt>
      <trkpt lat="43.42659" lon="5.43787">
        <ele>273.15</ele>
        <time>2020-06-14T15:21:09Z</time>
      </trkpt>
      <trkpt lat="43.4266" lon="5.43785">
        <ele>273.63</ele>
        <time>2020-06-14T15:21:11Z</time>
      </trkpt>
      <trkpt lat="43.42662" lon="5.43765">
        <ele>275.07</ele>
        <time>2020-06-14T15:21:25Z</time>
      </trkpt>
      <trkpt lat="43.42663" lon="5.43749">
        <ele>274.59</ele>
        <time>2020-06-14T15:21:35Z</time>
      </trkpt>
      <trkpt lat="43.42665" lon="5.43737">
        <ele>273.15</ele>
        <time>2020-06-14T15:21:42Z</time>
      </trkpt>
      <trkpt lat="43.42665" lon="5.43736">
        <ele>273.15</ele>
        <time>2020-06-14T15:21:43Z</time>
      </trkpt>
      <trkpt lat="43.42667" lon="5.43726">
        <ele>269.31</ele>
        <time>2020-06-14T15:21:55Z</time>
      </trkpt>
      <trkpt lat="43.4267" lon="5.43718">
        <ele>270.75</ele>
        <time>2020-06-14T15:22:09Z</time>
      </trkpt>
      <trkpt lat="43.42676" lon="5.43701">
        <ele>270.27</ele>
        <time>2020-06-14T15:22:23Z</time>
      </trkpt>
      <trkpt lat="43.4268" lon="5.43693">
        <ele>270.27</ele>
        <time>2020-06-14T15:22:31Z</time>
      </trkpt>
      <trkpt lat="43.42686" lon="5.43675">
        <ele>270.27</ele>
        <time>2020-06-14T15:22:45Z</time>
      </trkpt>
      <trkpt lat="43.42687" lon="5.43672">
        <ele>270.27</ele>
        <time>2020-06-14T15:22:47Z</time>
      </trkpt>
      <trkpt lat="43.42688" lon="5.43669">
        <ele>270.27</ele>
        <time>2020-06-14T15:22:49Z</time>
      </trkpt>
      <trkpt lat="43.4269" lon="5.43665">
        <ele>270.27</ele>
        <time>2020-06-14T15:22:53Z</time>
      </trkpt>
      <trkpt lat="43.42695" lon="5.43654">
        <ele>269.79</ele>
        <time>2020-06-14T15:23:01Z</time>
      </trkpt>
      <trkpt lat="43.42701" lon="5.43642">
        <ele>268.35</ele>
        <time>2020-06-14T15:23:11Z</time>
      </trkpt>
      <trkpt lat="43.42702" lon="5.43639">
        <ele>268.35</ele>
        <time>2020-06-14T15:23:13Z</time>
      </trkpt>
      <trkpt lat="43.4271" lon="5.43624">
        <ele>266.9</ele>
        <time>2020-06-14T15:23:25Z</time>
      </trkpt>
      <trkpt lat="43.42719" lon="5.43612">
        <ele>266.42</ele>
        <time>2020-06-14T15:23:36Z</time>
      </trkpt>
      <trkpt lat="43.42724" lon="5.43604">
        <ele>264.98</ele>
        <time>2020-06-14T15:23:44Z</time>
      </trkpt>
      <trkpt lat="43.42732" lon="5.43591">
        <ele>265.46</ele>
        <time>2020-06-14T15:23:56Z</time>
      </trkpt>
      <trkpt lat="43.42739" lon="5.43576">
        <ele>264.98</ele>
        <time>2020-06-14T15:24:08Z</time>
      </trkpt>
      <trkpt lat="43.42743" lon="5.43565">
        <ele>264.98</ele>
        <time>2020-06-14T15:24:16Z</time>
      </trkpt>
      <trkpt lat="43.42747" lon="5.4355">
        <ele>265.94</ele>
        <time>2020-06-14T15:24:27Z</time>
      </trkpt>
      <trkpt lat="43.4275" lon="5.43534">
        <ele>265.94</ele>
        <time>2020-06-14T15:24:37Z</time>
      </trkpt>
      <trkpt lat="43.42749" lon="5.43519">
        <ele>265.46</ele>
        <time>2020-06-14T15:24:48Z</time>
      </trkpt>
      <trkpt lat="43.42745" lon="5.43505">
        <ele>265.94</ele>
        <time>2020-06-14T15:24:58Z</time>
      </trkpt>
      <trkpt lat="43.42744" lon="5.435">
        <ele>265.94</ele>
        <time>2020-06-14T15:25:01Z</time>
      </trkpt>
      <trkpt lat="43.42738" lon="5.43484">
        <ele>266.42</ele>
        <time>2020-06-14T15:25:14Z</time>
      </trkpt>
      <trkpt lat="43.42737" lon="5.43479">
        <ele>265.94</ele>
        <time>2020-06-14T15:25:18Z</time>
      </trkpt>
      <trkpt lat="43.42734" lon="5.43467">
        <ele>269.31</ele>
        <time>2020-06-14T15:25:30Z</time>
      </trkpt>
      <trkpt lat="43.42734" lon="5.43459">
        <ele>271.71</ele>
        <time>2020-06-14T15:25:36Z</time>
      </trkpt>
      <trkpt lat="43.42732" lon="5.43441">
        <ele>270.75</ele>
        <time>2020-06-14T15:25:44Z</time>
      </trkpt>
      <trkpt lat="43.42731" lon="5.43437">
        <ele>270.27</ele>
        <time>2020-06-14T15:25:46Z</time>
      </trkpt>
      <trkpt lat="43.4273" lon="5.43434">
        <ele>270.27</ele>
        <time>2020-06-14T15:25:48Z</time>
      </trkpt>
      <trkpt lat="43.4273" lon="5.4343">
        <ele>270.27</ele>
        <time>2020-06-14T15:25:50Z</time>
      </trkpt>
      <trkpt lat="43.42725" lon="5.43416">
        <ele>270.27</ele>
        <time>2020-06-14T15:26:02Z</time>
      </trkpt>
      <trkpt lat="43.42718" lon="5.43408">
        <ele>270.27</ele>
        <time>2020-06-14T15:26:11Z</time>
      </trkpt>
      <trkpt lat="43.42706" lon="5.43397">
        <ele>268.83</ele>
        <time>2020-06-14T15:26:23Z</time>
      </trkpt>
      <trkpt lat="43.42701" lon="5.43388">
        <ele>267.38</ele>
        <time>2020-06-14T15:26:31Z</time>
      </trkpt>
      <trkpt lat="43.42693" lon="5.43376">
        <ele>266.9</ele>
        <time>2020-06-14T15:26:41Z</time>
      </trkpt>
      <trkpt lat="43.42689" lon="5.43359">
        <ele>266.9</ele>
        <time>2020-06-14T15:26:53Z</time>
      </trkpt>
      <trkpt lat="43.42688" lon="5.43356">
        <ele>267.38</ele>
        <time>2020-06-14T15:26:56Z</time>
      </trkpt>
      <trkpt lat="43.42688" lon="5.43353">
        <ele>267.86</ele>
        <time>2020-06-14T15:26:58Z</time>
      </trkpt>
      <trkpt lat="43.42684" lon="5.43335">
        <ele>270.27</ele>
        <time>2020-06-14T15:27:11Z</time>
      </trkpt>
      <trkpt lat="43.42684" lon="5.43319">
        <ele>271.23</ele>
        <time>2020-06-14T15:27:21Z</time>
      </trkpt>
      <trkpt lat="43.42683" lon="5.43309">
        <ele>272.19</ele>
        <time>2020-06-14T15:27:31Z</time>
      </trkpt>
      <trkpt lat="43.42681" lon="5.43298">
        <ele>272.67</ele>
        <time>2020-06-14T15:27:44Z</time>
      </trkpt>
      <trkpt lat="43.42677" lon="5.43289">
        <ele>272.19</ele>
        <time>2020-06-14T15:27:52Z</time>
      </trkpt>
      <trkpt lat="43.42676" lon="5.4328">
        <ele>270.75</ele>
        <time>2020-06-14T15:28:04Z</time>
      </trkpt>
      <trkpt lat="43.42671" lon="5.43273">
        <ele>269.31</ele>
        <time>2020-06-14T15:28:14Z</time>
      </trkpt>
      <trkpt lat="43.42669" lon="5.43266">
        <ele>268.83</ele>
        <time>2020-06-14T15:28:23Z</time>
      </trkpt>
      <trkpt lat="43.42666" lon="5.43253">
        <ele>269.79</ele>
        <time>2020-06-14T15:28:36Z</time>
      </trkpt>
      <trkpt lat="43.42662" lon="5.43238">
        <ele>269.31</ele>
        <time>2020-06-14T15:28:49Z</time>
      </trkpt>
      <trkpt lat="43.42656" lon="5.43223">
        <ele>269.31</ele>
        <time>2020-06-14T15:29:01Z</time>
      </trkpt>
      <trkpt lat="43.42651" lon="5.43206">
        <ele>271.23</ele>
        <time>2020-06-14T15:29:14Z</time>
      </trkpt>
      <trkpt lat="43.42647" lon="5.4319">
        <ele>274.11</ele>
        <time>2020-06-14T15:29:25Z</time>
      </trkpt>
      <trkpt lat="43.42647" lon="5.43189">
        <ele>274.11</ele>
        <time>2020-06-14T15:29:26Z</time>
      </trkpt>
      <trkpt lat="43.42641" lon="5.43174">
        <ele>276.04</ele>
        <time>2020-06-14T15:29:39Z</time>
      </trkpt>
      <trkpt lat="43.42634" lon="5.43161">
        <ele>277.96</ele>
        <time>2020-06-14T15:29:52Z</time>
      </trkpt>
      <trkpt lat="43.42631" lon="5.43152">
        <ele>278.92</ele>
        <time>2020-06-14T15:30:00Z</time>
      </trkpt>
      <trkpt lat="43.42629" lon="5.43134">
        <ele>279.4</ele>
        <time>2020-06-14T15:30:13Z</time>
      </trkpt>
      <trkpt lat="43.42623" lon="5.43115">
        <ele>279.4</ele>
        <time>2020-06-14T15:30:26Z</time>
      </trkpt>
      <trkpt lat="43.42618" lon="5.43103">
        <ele>278.44</ele>
        <time>2020-06-14T15:30:37Z</time>
      </trkpt>
      <trkpt lat="43.42611" lon="5.43089">
        <ele>277</ele>
        <time>2020-06-14T15:30:48Z</time>
      </trkpt>
      <trkpt lat="43.42603" lon="5.43067">
        <ele>273.63</ele>
        <time>2020-06-14T15:31:03Z</time>
      </trkpt>
      <trkpt lat="43.42602" lon="5.43065">
        <ele>273.63</ele>
        <time>2020-06-14T15:31:05Z</time>
      </trkpt>
      <trkpt lat="43.42597" lon="5.43049">
        <ele>272.67</ele>
        <time>2020-06-14T15:31:17Z</time>
      </trkpt>
      <trkpt lat="43.42596" lon="5.43046">
        <ele>272.19</ele>
        <time>2020-06-14T15:31:19Z</time>
      </trkpt>
      <trkpt lat="43.42592" lon="5.4303">
        <ele>270.27</ele>
        <time>2020-06-14T15:31:30Z</time>
      </trkpt>
      <trkpt lat="43.42592" lon="5.4302">
        <ele>270.75</ele>
        <time>2020-06-14T15:31:37Z</time>
      </trkpt>
      <trkpt lat="43.42593" lon="5.43007">
        <ele>272.19</ele>
        <time>2020-06-14T15:31:48Z</time>
      </trkpt>
      <trkpt lat="43.42593" lon="5.43005">
        <ele>272.67</ele>
        <time>2020-06-14T15:31:50Z</time>
      </trkpt>
      <trkpt lat="43.42593" lon="5.43002">
        <ele>273.15</ele>
        <time>2020-06-14T15:31:52Z</time>
      </trkpt>
      <trkpt lat="43.42594" lon="5.42997">
        <ele>273.15</ele>
        <time>2020-06-14T15:31:57Z</time>
      </trkpt>
      <trkpt lat="43.42594" lon="5.4299">
        <ele>272.19</ele>
        <time>2020-06-14T15:32:02Z</time>
      </trkpt>
      <trkpt lat="43.42599" lon="5.42977">
        <ele>273.15</ele>
        <time>2020-06-14T15:32:12Z</time>
      </trkpt>
      <trkpt lat="43.42604" lon="5.42965">
        <ele>277.96</ele>
        <time>2020-06-14T15:32:25Z</time>
      </trkpt>
      <trkpt lat="43.42608" lon="5.42952">
        <ele>279.4</ele>
        <time>2020-06-14T15:32:37Z</time>
      </trkpt>
      <trkpt lat="43.42616" lon="5.4294">
        <ele>278.44</ele>
        <time>2020-06-14T15:32:48Z</time>
      </trkpt>
      <trkpt lat="43.42618" lon="5.42935">
        <ele>277.96</ele>
        <time>2020-06-14T15:32:52Z</time>
      </trkpt>
      <trkpt lat="43.42621" lon="5.42929">
        <ele>277</ele>
        <time>2020-06-14T15:32:56Z</time>
      </trkpt>
      <trkpt lat="43.42623" lon="5.42923">
        <ele>276.04</ele>
        <time>2020-06-14T15:33:01Z</time>
      </trkpt>
      <trkpt lat="43.42634" lon="5.42908">
        <ele>271.71</ele>
        <time>2020-06-14T15:33:14Z</time>
      </trkpt>
      <trkpt lat="43.42643" lon="5.42899">
        <ele>270.27</ele>
        <time>2020-06-14T15:33:25Z</time>
      </trkpt>
      <trkpt lat="43.42658" lon="5.42889">
        <ele>269.79</ele>
        <time>2020-06-14T15:33:40Z</time>
      </trkpt>
      <trkpt lat="43.42668" lon="5.42879">
        <ele>267.86</ele>
        <time>2020-06-14T15:33:51Z</time>
      </trkpt>
      <trkpt lat="43.42682" lon="5.42867">
        <ele>264.02</ele>
        <time>2020-06-14T15:34:06Z</time>
      </trkpt>
      <trkpt lat="43.42685" lon="5.42865">
        <ele>263.54</ele>
        <time>2020-06-14T15:34:10Z</time>
      </trkpt>
      <trkpt lat="43.42699" lon="5.42852">
        <ele>262.58</ele>
        <time>2020-06-14T15:34:24Z</time>
      </trkpt>
      <trkpt lat="43.42702" lon="5.42848">
        <ele>262.1</ele>
        <time>2020-06-14T15:34:28Z</time>
      </trkpt>
      <trkpt lat="43.42705" lon="5.42844">
        <ele>262.58</ele>
        <time>2020-06-14T15:34:32Z</time>
      </trkpt>
      <trkpt lat="43.42715" lon="5.42829">
        <ele>264.98</ele>
        <time>2020-06-14T15:34:46Z</time>
      </trkpt>
      <trkpt lat="43.42719" lon="5.42823">
        <ele>265.94</ele>
        <time>2020-06-14T15:34:52Z</time>
      </trkpt>
      <trkpt lat="43.42726" lon="5.42807">
        <ele>265.94</ele>
        <time>2020-06-14T15:35:04Z</time>
      </trkpt>
      <trkpt lat="43.42727" lon="5.42802">
        <ele>265.94</ele>
        <time>2020-06-14T15:35:09Z</time>
      </trkpt>
      <trkpt lat="43.4273" lon="5.42788">
        <ele>267.38</ele>
        <time>2020-06-14T15:35:20Z</time>
      </trkpt>
      <trkpt lat="43.4273" lon="5.42777">
        <ele>266.9</ele>
        <time>2020-06-14T15:35:32Z</time>
      </trkpt>
      <trkpt lat="43.42731" lon="5.42774">
        <ele>266.9</ele>
        <time>2020-06-14T15:35:43Z</time>
      </trkpt>
      <trkpt lat="43.42734" lon="5.42767">
        <ele>267.86</ele>
        <time>2020-06-14T15:35:49Z</time>
      </trkpt>
      <trkpt lat="43.42735" lon="5.42765">
        <ele>268.35</ele>
        <time>2020-06-14T15:35:51Z</time>
      </trkpt>
      <trkpt lat="43.42737" lon="5.4276">
        <ele>269.79</ele>
        <time>2020-06-14T15:35:56Z</time>
      </trkpt>
      <trkpt lat="43.4274" lon="5.42749">
        <ele>272.19</ele>
        <time>2020-06-14T15:36:04Z</time>
      </trkpt>
      <trkpt lat="43.42743" lon="5.42736">
        <ele>274.59</ele>
        <time>2020-06-14T15:36:15Z</time>
      </trkpt>
      <trkpt lat="43.42747" lon="5.42723">
        <ele>279.88</ele>
        <time>2020-06-14T15:36:27Z</time>
      </trkpt>
      <trkpt lat="43.42747" lon="5.42705">
        <ele>278.44</ele>
        <time>2020-06-14T15:36:38Z</time>
      </trkpt>
      <trkpt lat="43.42747" lon="5.42695">
        <ele>277</ele>
        <time>2020-06-14T15:36:45Z</time>
      </trkpt>
      <trkpt lat="43.42749" lon="5.42682">
        <ele>272.67</ele>
        <time>2020-06-14T15:36:54Z</time>
      </trkpt>
      <trkpt lat="43.42753" lon="5.42669">
        <ele>270.75</ele>
        <time>2020-06-14T15:37:05Z</time>
      </trkpt>
      <trkpt lat="43.42752" lon="5.42658">
        <ele>271.23</ele>
        <time>2020-06-14T15:37:15Z</time>
      </trkpt>
      <trkpt lat="43.42749" lon="5.42642">
        <ele>270.75</ele>
        <time>2020-06-14T15:37:28Z</time>
      </trkpt>
      <trkpt lat="43.42747" lon="5.42626">
        <ele>272.19</ele>
        <time>2020-06-14T15:37:41Z</time>
      </trkpt>
      <trkpt lat="43.42746" lon="5.42609">
        <ele>273.63</ele>
        <time>2020-06-14T15:37:55Z</time>
      </trkpt>
      <trkpt lat="43.42745" lon="5.42596">
        <ele>274.11</ele>
        <time>2020-06-14T15:38:06Z</time>
      </trkpt>
      <trkpt lat="43.42746" lon="5.42594">
        <ele>274.11</ele>
        <time>2020-06-14T15:38:08Z</time>
      </trkpt>
      <trkpt lat="43.42746" lon="5.42581">
        <ele>278.44</ele>
        <time>2020-06-14T15:38:19Z</time>
      </trkpt>
      <trkpt lat="43.42747" lon="5.42576">
        <ele>280.84</ele>
        <time>2020-06-14T15:38:27Z</time>
      </trkpt>
      <trkpt lat="43.4275" lon="5.42576">
        <ele>282.28</ele>
        <time>2020-06-14T15:38:31Z</time>
      </trkpt>
      <trkpt lat="43.42751" lon="5.42578">
        <ele>282.77</ele>
        <time>2020-06-14T15:38:33Z</time>
      </trkpt>
      <trkpt lat="43.42754" lon="5.42574">
        <ele>274.11</ele>
        <time>2020-06-14T15:38:46Z</time>
      </trkpt>
      <trkpt lat="43.42759" lon="5.42578">
        <ele>271.23</ele>
        <time>2020-06-14T15:38:56Z</time>
      </trkpt>
      <trkpt lat="43.42766" lon="5.42588">
        <ele>267.86</ele>
        <time>2020-06-14T15:39:08Z</time>
      </trkpt>
      <trkpt lat="43.42777" lon="5.42595">
        <ele>264.98</ele>
        <time>2020-06-14T15:39:20Z</time>
      </trkpt>
      <trkpt lat="43.42787" lon="5.42603">
        <ele>261.14</ele>
        <time>2020-06-14T15:39:33Z</time>
      </trkpt>
      <trkpt lat="43.42799" lon="5.42608">
        <ele>256.33</ele>
        <time>2020-06-14T15:39:45Z</time>
      </trkpt>
      <trkpt lat="43.42806" lon="5.42612">
        <ele>254.89</ele>
        <time>2020-06-14T15:39:51Z</time>
      </trkpt>
      <trkpt lat="43.42813" lon="5.42623">
        <ele>253.93</ele>
        <time>2020-06-14T15:40:04Z</time>
      </trkpt>
      <trkpt lat="43.42815" lon="5.42627">
        <ele>254.41</ele>
        <time>2020-06-14T15:40:08Z</time>
      </trkpt>
      <trkpt lat="43.42816" lon="5.42629">
        <ele>254.41</ele>
        <time>2020-06-14T15:40:10Z</time>
      </trkpt>
      <trkpt lat="43.42821" lon="5.42642">
        <ele>254.89</ele>
        <time>2020-06-14T15:40:21Z</time>
      </trkpt>
      <trkpt lat="43.42826" lon="5.42652">
        <ele>257.29</ele>
        <time>2020-06-14T15:40:31Z</time>
      </trkpt>
      <trkpt lat="43.42832" lon="5.42668">
        <ele>259.69</ele>
        <time>2020-06-14T15:40:43Z</time>
      </trkpt>
      <trkpt lat="43.42837" lon="5.42681">
        <ele>262.1</ele>
        <time>2020-06-14T15:40:54Z</time>
      </trkpt>
      <trkpt lat="43.42838" lon="5.42693">
        <ele>266.9</ele>
        <time>2020-06-14T15:41:06Z</time>
      </trkpt>
      <trkpt lat="43.42838" lon="5.42694">
        <ele>267.38</ele>
        <time>2020-06-14T15:41:07Z</time>
      </trkpt>
      <trkpt lat="43.42839" lon="5.42708">
        <ele>269.31</ele>
        <time>2020-06-14T15:41:17Z</time>
      </trkpt>
      <trkpt lat="43.42841" lon="5.4271">
        <ele>269.31</ele>
        <time>2020-06-14T15:41:19Z</time>
      </trkpt>
      <trkpt lat="43.42847" lon="5.42723">
        <ele>267.38</ele>
        <time>2020-06-14T15:41:30Z</time>
      </trkpt>
      <trkpt lat="43.42846" lon="5.42729">
        <ele>267.38</ele>
        <time>2020-06-14T15:41:34Z</time>
      </trkpt>
      <trkpt lat="43.42846" lon="5.4274">
        <ele>265.46</ele>
        <time>2020-06-14T15:41:40Z</time>
      </trkpt>
      <trkpt lat="43.42846" lon="5.42743">
        <ele>264.5</ele>
        <time>2020-06-14T15:41:42Z</time>
      </trkpt>
      <trkpt lat="43.42846" lon="5.42746">
        <ele>264.02</ele>
        <time>2020-06-14T15:41:44Z</time>
      </trkpt>
      <trkpt lat="43.42849" lon="5.42769">
        <ele>258.73</ele>
        <time>2020-06-14T15:41:58Z</time>
      </trkpt>
      <trkpt lat="43.42849" lon="5.42782">
        <ele>257.77</ele>
        <time>2020-06-14T15:42:08Z</time>
      </trkpt>
      <trkpt lat="43.4285" lon="5.42787">
        <ele>256.33</ele>
        <time>2020-06-14T15:42:15Z</time>
      </trkpt>
      <trkpt lat="43.42852" lon="5.42795">
        <ele>254.41</ele>
        <time>2020-06-14T15:42:26Z</time>
      </trkpt>
      <trkpt lat="43.42852" lon="5.42797">
        <ele>253.93</ele>
        <time>2020-06-14T15:42:31Z</time>
      </trkpt>
      <trkpt lat="43.42849" lon="5.42808">
        <ele>252.48</ele>
        <time>2020-06-14T15:42:44Z</time>
      </trkpt>
      <trkpt lat="43.42848" lon="5.42814">
        <ele>252.48</ele>
        <time>2020-06-14T15:42:50Z</time>
      </trkpt>
      <trkpt lat="43.42846" lon="5.42822">
        <ele>252</ele>
        <time>2020-06-14T15:43:01Z</time>
      </trkpt>
      <trkpt lat="43.4284" lon="5.42833">
        <ele>251.52</ele>
        <time>2020-06-14T15:43:13Z</time>
      </trkpt>
      <trkpt lat="43.42839" lon="5.42834">
        <ele>251.52</ele>
        <time>2020-06-14T15:43:14Z</time>
      </trkpt>
      <trkpt lat="43.42837" lon="5.42846">
        <ele>252.48</ele>
        <time>2020-06-14T15:43:24Z</time>
      </trkpt>
      <trkpt lat="43.42831" lon="5.42862">
        <ele>253.93</ele>
        <time>2020-06-14T15:43:38Z</time>
      </trkpt>
      <trkpt lat="43.42827" lon="5.42877">
        <ele>253.44</ele>
        <time>2020-06-14T15:43:51Z</time>
      </trkpt>
      <trkpt lat="43.42827" lon="5.42878">
        <ele>252.96</ele>
        <time>2020-06-14T15:43:52Z</time>
      </trkpt>
      <trkpt lat="43.42823" lon="5.42895">
        <ele>251.52</ele>
        <time>2020-06-14T15:44:04Z</time>
      </trkpt>
      <trkpt lat="43.42816" lon="5.42909">
        <ele>252</ele>
        <time>2020-06-14T15:44:17Z</time>
      </trkpt>
      <trkpt lat="43.42815" lon="5.42922">
        <ele>252</ele>
        <time>2020-06-14T15:44:29Z</time>
      </trkpt>
      <trkpt lat="43.42816" lon="5.42944">
        <ele>250.08</ele>
        <time>2020-06-14T15:44:41Z</time>
      </trkpt>
      <trkpt lat="43.42815" lon="5.42947">
        <ele>250.08</ele>
        <time>2020-06-14T15:44:43Z</time>
      </trkpt>
      <trkpt lat="43.42821" lon="5.42963">
        <ele>247.68</ele>
        <time>2020-06-14T15:44:56Z</time>
      </trkpt>
      <trkpt lat="43.42822" lon="5.42964">
        <ele>247.2</ele>
        <time>2020-06-14T15:44:57Z</time>
      </trkpt>
      <trkpt lat="43.42822" lon="5.42972">
        <ele>244.31</ele>
        <time>2020-06-14T15:45:04Z</time>
      </trkpt>
      <trkpt lat="43.42826" lon="5.42983">
        <ele>242.39</ele>
        <time>2020-06-14T15:45:14Z</time>
      </trkpt>
      <trkpt lat="43.4283" lon="5.42999">
        <ele>240.95</ele>
        <time>2020-06-14T15:45:25Z</time>
      </trkpt>
      <trkpt lat="43.42833" lon="5.43007">
        <ele>241.43</ele>
        <time>2020-06-14T15:45:32Z</time>
      </trkpt>
      <trkpt lat="43.42838" lon="5.43016">
        <ele>239.99</ele>
        <time>2020-06-14T15:45:41Z</time>
      </trkpt>
      <trkpt lat="43.42839" lon="5.43019">
        <ele>239.02</ele>
        <time>2020-06-14T15:45:44Z</time>
      </trkpt>
      <trkpt lat="43.42837" lon="5.4303">
        <ele>236.14</ele>
        <time>2020-06-14T15:45:56Z</time>
      </trkpt>
      <trkpt lat="43.42836" lon="5.43037">
        <ele>236.14</ele>
        <time>2020-06-14T15:46:03Z</time>
      </trkpt>
      <trkpt lat="43.42836" lon="5.4304">
        <ele>235.18</ele>
        <time>2020-06-14T15:46:05Z</time>
      </trkpt>
      <trkpt lat="43.42835" lon="5.43058">
        <ele>233.26</ele>
        <time>2020-06-14T15:46:19Z</time>
      </trkpt>
      <trkpt lat="43.42833" lon="5.43073">
        <ele>232.78</ele>
        <time>2020-06-14T15:46:30Z</time>
      </trkpt>
      <trkpt lat="43.42834" lon="5.43077">
        <ele>231.81</ele>
        <time>2020-06-14T15:46:33Z</time>
      </trkpt>
      <trkpt lat="43.42831" lon="5.43088">
        <ele>231.81</ele>
        <time>2020-06-14T15:46:44Z</time>
      </trkpt>
      <trkpt lat="43.4283" lon="5.43091">
        <ele>231.81</ele>
        <time>2020-06-14T15:46:47Z</time>
      </trkpt>
      <trkpt lat="43.42826" lon="5.43106">
        <ele>233.26</ele>
        <time>2020-06-14T15:46:59Z</time>
      </trkpt>
      <trkpt lat="43.42825" lon="5.43113">
        <ele>233.26</ele>
        <time>2020-06-14T15:47:05Z</time>
      </trkpt>
      <trkpt lat="43.42821" lon="5.43127">
        <ele>234.22</ele>
        <time>2020-06-14T15:47:16Z</time>
      </trkpt>
      <trkpt lat="43.42819" lon="5.43131">
        <ele>235.66</ele>
        <time>2020-06-14T15:47:19Z</time>
      </trkpt>
      <trkpt lat="43.42813" lon="5.43149">
        <ele>242.39</ele>
        <time>2020-06-14T15:47:34Z</time>
      </trkpt>
      <trkpt lat="43.42812" lon="5.43152">
        <ele>242.87</ele>
        <time>2020-06-14T15:47:36Z</time>
      </trkpt>
      <trkpt lat="43.42819" lon="5.43167">
        <ele>242.87</ele>
        <time>2020-06-14T15:47:48Z</time>
      </trkpt>
      <trkpt lat="43.42832" lon="5.43171">
        <ele>244.31</ele>
        <time>2020-06-14T15:48:02Z</time>
      </trkpt>
      <trkpt lat="43.4284" lon="5.43168">
        <ele>248.64</ele>
        <time>2020-06-14T15:48:15Z</time>
      </trkpt>
      <trkpt lat="43.42847" lon="5.43173">
        <ele>251.52</ele>
        <time>2020-06-14T15:48:28Z</time>
      </trkpt>
      <trkpt lat="43.42851" lon="5.4318">
        <ele>251.04</ele>
        <time>2020-06-14T15:48:35Z</time>
      </trkpt>
      <trkpt lat="43.42857" lon="5.43189">
        <ele>253.44</ele>
        <time>2020-06-14T15:48:48Z</time>
      </trkpt>
      <trkpt lat="43.42864" lon="5.43203">
        <ele>257.77</ele>
        <time>2020-06-14T15:49:00Z</time>
      </trkpt>
      <trkpt lat="43.42872" lon="5.43218">
        <ele>261.14</ele>
        <time>2020-06-14T15:49:11Z</time>
      </trkpt>
      <trkpt lat="43.4288" lon="5.43238">
        <ele>261.14</ele>
        <time>2020-06-14T15:49:24Z</time>
      </trkpt>
      <trkpt lat="43.42884" lon="5.43248">
        <ele>262.1</ele>
        <time>2020-06-14T15:49:35Z</time>
      </trkpt>
      <trkpt lat="43.42892" lon="5.43265">
        <ele>263.54</ele>
        <time>2020-06-14T15:49:49Z</time>
      </trkpt>
      <trkpt lat="43.42896" lon="5.43276">
        <ele>261.62</ele>
        <time>2020-06-14T15:49:54Z</time>
      </trkpt>
      <trkpt lat="43.42897" lon="5.43286">
        <ele>260.17</ele>
        <time>2020-06-14T15:49:58Z</time>
      </trkpt>
      <trkpt lat="43.42895" lon="5.43303">
        <ele>258.73</ele>
        <time>2020-06-14T15:50:11Z</time>
      </trkpt>
      <trkpt lat="43.42894" lon="5.43321">
        <ele>257.77</ele>
        <time>2020-06-14T15:50:24Z</time>
      </trkpt>
      <trkpt lat="43.4289" lon="5.43342">
        <ele>256.33</ele>
        <time>2020-06-14T15:50:40Z</time>
      </trkpt>
      <trkpt lat="43.42886" lon="5.43362">
        <ele>254.89</ele>
        <time>2020-06-14T15:50:53Z</time>
      </trkpt>
      <trkpt lat="43.42886" lon="5.43363">
        <ele>254.89</ele>
        <time>2020-06-14T15:50:54Z</time>
      </trkpt>
      <trkpt lat="43.42887" lon="5.43382">
        <ele>255.37</ele>
        <time>2020-06-14T15:51:05Z</time>
      </trkpt>
      <trkpt lat="43.42888" lon="5.43398">
        <ele>254.41</ele>
        <time>2020-06-14T15:51:17Z</time>
      </trkpt>
      <trkpt lat="43.42892" lon="5.43418">
        <ele>255.37</ele>
        <time>2020-06-14T15:51:30Z</time>
      </trkpt>
      <trkpt lat="43.42894" lon="5.43433">
        <ele>254.41</ele>
        <time>2020-06-14T15:51:40Z</time>
      </trkpt>
      <trkpt lat="43.42899" lon="5.43447">
        <ele>253.44</ele>
        <time>2020-06-14T15:51:51Z</time>
      </trkpt>
      <trkpt lat="43.429" lon="5.43456">
        <ele>253.44</ele>
        <time>2020-06-14T15:51:57Z</time>
      </trkpt>
      <trkpt lat="43.42904" lon="5.43472">
        <ele>249.6</ele>
        <time>2020-06-14T15:52:10Z</time>
      </trkpt>
      <trkpt lat="43.42905" lon="5.43476">
        <ele>249.6</ele>
        <time>2020-06-14T15:52:13Z</time>
      </trkpt>
      <trkpt lat="43.42903" lon="5.43491">
        <ele>250.08</ele>
        <time>2020-06-14T15:52:26Z</time>
      </trkpt>
      <trkpt lat="43.42899" lon="5.43505">
        <ele>249.6</ele>
        <time>2020-06-14T15:52:38Z</time>
      </trkpt>
      <trkpt lat="43.42901" lon="5.43521">
        <ele>249.12</ele>
        <time>2020-06-14T15:52:46Z</time>
      </trkpt>
      <trkpt lat="43.42901" lon="5.43527">
        <ele>249.12</ele>
        <time>2020-06-14T15:52:50Z</time>
      </trkpt>
      <trkpt lat="43.42901" lon="5.43532">
        <ele>248.64</ele>
        <time>2020-06-14T15:52:54Z</time>
      </trkpt>
      <trkpt lat="43.42899" lon="5.43547">
        <ele>249.6</ele>
        <time>2020-06-14T15:53:06Z</time>
      </trkpt>
      <trkpt lat="43.42899" lon="5.43548">
        <ele>249.6</ele>
        <time>2020-06-14T15:53:07Z</time>
      </trkpt>
      <trkpt lat="43.42899" lon="5.43554">
        <ele>249.6</ele>
        <time>2020-06-14T15:53:11Z</time>
      </trkpt>
      <trkpt lat="43.42898" lon="5.43557">
        <ele>249.6</ele>
        <time>2020-06-14T15:53:13Z</time>
      </trkpt>
      <trkpt lat="43.42898" lon="5.4356">
        <ele>249.6</ele>
        <time>2020-06-14T15:53:15Z</time>
      </trkpt>
      <trkpt lat="43.42897" lon="5.43566">
        <ele>248.64</ele>
        <time>2020-06-14T15:53:19Z</time>
      </trkpt>
      <trkpt lat="43.42897" lon="5.43569">
        <ele>248.16</ele>
        <time>2020-06-14T15:53:22Z</time>
      </trkpt>
      <trkpt lat="43.429" lon="5.43584">
        <ele>245.27</ele>
        <time>2020-06-14T15:53:35Z</time>
      </trkpt>
      <trkpt lat="43.42906" lon="5.43584">
        <ele>241.91</ele>
        <time>2020-06-14T15:53:50Z</time>
      </trkpt>
      <trkpt lat="43.42908" lon="5.43583">
        <ele>240.95</ele>
        <time>2020-06-14T15:54:16Z</time>
      </trkpt>
      <trkpt lat="43.42911" lon="5.43581">
        <ele>241.43</ele>
        <time>2020-06-14T15:54:23Z</time>
      </trkpt>
      <trkpt lat="43.42915" lon="5.43572">
        <ele>241.91</ele>
        <time>2020-06-14T15:54:35Z</time>
      </trkpt>
      <trkpt lat="43.42914" lon="5.43568">
        <ele>242.87</ele>
        <time>2020-06-14T15:54:51Z</time>
      </trkpt>
    </trkseg>
  </trk>
</gpx>